[[{"header":{"parameterUnit":"m.s-1","parameterCategory":1,"la1":30.6,"la2":29.2853,"lo1":-89.7004,"lo2":-87.6739,"dy":0.0162,"dx":0.0183,"nx":112,"ny":82,"refTime":"2023-03-05T06:00:00:Z","depth":0,"parameterNumber":2,"parameterNumberName":"U-component_of_WINDS"},"data":[0.0,0.0,0.0,0.0,0.0,0.0,0.0,0.0,0.0,0.0,0.0,0.0,0.0,0.0,0.0,0.0,0.0,0.0,0.0,0.0,0.0,0.0,0.0,0.0,0.0,0.0,0.0,0.0,0.0,0.0,0.0,0.0,0.0,0.0,0.0,0.0,0.0,0.0,0.0,0.0,0.0,0.0,0.0,0.0,0.0,0.0,0.0,0.0,0.0,0.0,0.0,0.0,0.0,0.0,0.0,0.0,0.0,0.0,0.0,0.0,0.0,0.0,0.0,0.0,0.0,0.0,0.0,0.0,0.0,0.0,0.0,0.0,0.0,0.0,0.0,0.0,0.0,0.0,0.0,0.0,0.0,0.0,0.0,0.0,0.0,0.0,0.0,0.0,0.0,0.0,0.0,2.9485,3.2675,3.3823,3.1676,3.0402,2.8319,2.4991,0.0,0.0,0.0,0.0,0.0,0.0,0.0,0.0,0.0,0.0,0.0,0.0,0.0,0.0,0.0,0.0,0.0,0.0,0.0,0.0,0.0,0.0,0.0,0.0,0.0,0.0,0.0,0.0,0.0,0.0,0.0,0.0,0.0,0.0,0.0,0.0,0.0,0.0,0.0,0.0,0.0,0.0,0.0,0.0,0.0,0.0,0.0,0.0,0.0,0.0,0.0,0.0,0.0,0.0,0.0,0.0,0.0,0.0,0.0,0.0,0.0,0.0,0.0,0.0,0.0,0.0,0.0,0.0,0.0,0.0,0.0,0.0,0.0,0.0,0.0,0.0,0.0,0.0,0.0,0.0,0.0,0.0,0.0,0.0,0.0,0.0,0.0,0.0,0.0,0.0,0.0,0.0,0.0,0.0,0.0,0.0,0.0,0.0,0.0,0.0,0.0,0.0,0.0,0.0,2.8558,3.1454,3.2922,3.3216,3.2008,2.9251,2.6877,2.5311,0.0,0.0,0.0,0.0,0.0,0.0,0.0,0.0,0.0,0.0,0.0,0.0,0.0,0.0,0.0,0.0,0.0,0.0,0.0,0.0,0.0,0.0,0.0,0.0,0.0,0.0,0.0,0.0,0.0,0.0,0.0,0.0,0.0,0.0,0.0,0.0,0.0,0.0,0.0,0.0,0.0,0.0,0.0,0.0,0.0,0.0,0.0,0.0,0.0,0.0,0.0,0.0,0.0,0.0,0.0,0.0,0.0,0.0,0.0,0.0,0.0,0.0,0.0,0.0,0.0,0.0,0.0,0.0,0.0,0.0,0.0,0.0,0.0,0.0,0.0,0.0,0.0,0.0,0.0,0.0,0.0,0.0,0.0,0.0,0.0,0.0,0.0,0.0,0.0,0.0,0.0,0.0,0.0,0.0,0.0,0.0,0.0,0.0,0.0,0.0,0.0,0.0,0.0,2.8512,2.9522,3.2821,3.3269,3.2779,3.1406,2.8887,2.6527,2.4556,2.3907,0.0,0.0,0.0,0.0,0.0,0.0,0.0,0.0,0.0,0.0,0.0,0.0,0.0,0.0,0.0,0.0,0.0,0.0,0.0,0.0,0.0,0.0,0.0,0.0,0.0,0.0,0.0,0.0,0.0,0.0,0.0,0.0,0.0,0.0,0.0,0.0,0.0,0.0,0.0,0.0,0.0,0.0,0.0,0.0,0.0,0.0,0.0,0.0,0.0,0.0,0.0,0.0,0.0,0.0,0.0,0.0,0.0,0.0,0.0,0.0,0.0,0.0,0.0,0.0,0.0,0.0,0.0,0.0,0.0,0.0,0.0,0.0,0.0,0.0,0.0,0.0,0.0,0.0,0.0,0.0,0.0,0.0,0.0,0.0,0.0,0.0,0.0,0.0,0.0,0.0,0.0,0.0,0.0,0.0,0.0,0.0,0.0,0.0,0.0,0.0,0.0,0.0,3.0217,3.0515,3.3561,3.3274,3.2209,3.0565,2.8288,2.6063,2.3941,2.3379,0.0,0.0,0.0,0.0,0.0,0.0,0.0,0.0,0.0,0.0,0.0,0.0,0.0,0.0,0.0,0.0,0.0,0.0,0.0,0.0,0.0,0.0,0.0,0.0,0.0,0.0,0.0,0.0,0.0,0.0,0.0,0.0,0.0,0.0,0.0,0.0,0.0,0.0,0.0,0.0,0.0,0.0,0.0,0.0,0.0,0.0,0.0,0.0,0.0,0.0,0.0,0.0,0.0,0.0,0.0,0.0,0.0,0.0,0.0,0.0,0.0,0.0,0.0,0.0,0.0,0.0,0.0,0.0,0.0,0.0,0.0,0.0,0.0,0.0,0.0,0.0,0.0,0.0,0.0,0.0,0.0,0.0,0.0,0.0,0.0,0.0,0.0,0.0,0.0,0.0,0.0,0.0,0.0,0.0,0.0,0.0,0.0,0.0,0.0,0.0,0.0,0.0,3.0626,3.1395,3.3334,3.255,3.1268,2.9724,2.6819,2.4834,2.4202,2.281,0.0,0.0,0.0,0.0,0.0,0.0,0.0,0.0,0.0,0.0,0.0,0.0,0.0,0.0,0.0,0.0,0.0,0.0,0.0,0.0,0.0,0.0,0.0,0.0,0.0,0.0,0.0,0.0,0.0,0.0,0.0,0.0,0.0,0.0,0.0,0.0,0.0,0.0,0.0,0.0,0.0,0.0,0.0,0.0,0.0,0.0,0.0,0.0,0.0,0.0,0.0,0.0,0.0,0.0,0.0,0.0,0.0,0.0,0.0,0.0,0.0,0.0,0.0,0.0,0.0,0.0,0.0,0.0,0.0,0.0,0.0,0.0,0.0,0.0,0.0,0.0,0.0,0.0,0.0,0.0,0.0,0.0,0.0,0.0,0.0,0.0,0.0,0.0,0.0,0.0,0.0,0.0,0.0,0.0,0.0,0.0,0.0,0.0,0.0,0.0,0.0,0.0,3.0528,3.0929,0.0,3.1618,3.0126,2.9538,2.6831,2.509,2.4966,0.0,0.0,0.0,0.0,0.0,0.0,0.0,0.0,0.0,0.0,0.0,0.0,0.0,0.0,0.0,0.0,0.0,0.0,0.0,0.0,0.0,0.0,0.0,0.0,0.0,0.0,0.0,0.0,0.0,0.0,0.0,0.0,0.0,0.0,0.0,0.0,0.0,0.0,0.0,0.0,0.0,0.0,0.0,0.0,0.0,0.0,0.0,0.0,0.0,0.0,0.0,0.0,0.0,0.0,0.0,0.0,0.0,0.0,0.0,0.0,0.0,0.0,0.0,0.0,0.0,0.0,0.0,0.0,0.0,0.0,0.0,0.0,0.0,0.0,0.0,0.0,0.0,0.0,0.0,0.0,0.0,0.0,0.0,0.0,0.0,0.0,0.0,0.0,0.0,0.0,0.0,0.0,0.0,0.0,0.0,0.0,0.0,0.0,0.0,0.0,0.0,0.0,3.1101,3.0558,3.0696,0.0,3.0875,2.9301,2.8816,2.6182,2.4792,2.5263,0.0,0.0,0.0,0.0,0.0,0.0,0.0,0.0,0.0,0.0,0.0,0.0,0.0,0.0,0.0,0.0,0.0,0.0,0.0,0.0,0.0,0.0,0.0,0.0,0.0,0.0,0.0,0.0,0.0,0.0,0.0,0.0,0.0,0.0,0.0,0.0,0.0,0.0,0.0,0.0,0.0,0.0,0.0,0.0,0.0,0.0,0.0,0.0,0.0,0.0,0.0,0.0,0.0,0.0,0.0,0.0,0.0,0.0,0.0,0.0,0.0,0.0,0.0,0.0,0.0,0.0,0.0,0.0,0.0,0.0,0.0,0.0,0.0,0.0,0.0,0.0,0.0,0.0,0.0,0.0,0.0,0.0,0.0,0.0,0.0,0.0,0.0,0.0,0.0,0.0,0.0,0.0,0.0,0.0,0.0,0.0,0.0,0.0,0.0,0.0,0.0,0.0,3.0811,3.0804,3.0896,3.1698,3.0396,2.8865,2.734,2.4614,2.3599,0.0,0.0,0.0,0.0,0.0,0.0,0.0,0.0,0.0,0.0,0.0,0.0,0.0,0.0,0.0,0.0,0.0,0.0,0.0,0.0,0.0,0.0,0.0,0.0,0.0,0.0,0.0,0.0,0.0,0.0,0.0,0.0,0.0,0.0,0.0,0.0,0.0,0.0,0.0,0.0,0.0,0.0,0.0,0.0,0.0,0.0,0.0,0.0,0.0,0.0,0.0,0.0,0.0,0.0,0.0,0.0,0.0,0.0,0.0,0.0,0.0,0.0,0.0,0.0,0.0,0.0,0.0,0.0,0.0,0.0,0.0,0.0,0.0,0.0,0.0,0.0,0.0,0.0,0.0,0.0,0.0,0.0,0.0,0.0,0.0,0.0,0.0,0.0,0.0,0.0,0.0,0.0,0.0,0.0,0.0,0.0,0.0,0.0,0.0,0.0,0.0,0.0,0.0,3.045,3.0434,3.0481,3.0913,2.9292,2.7897,2.7248,2.4969,2.3987,2.5033,0.0,0.0,0.0,0.0,0.0,0.0,0.0,0.0,0.0,0.0,0.0,0.0,0.0,0.0,0.0,0.0,0.0,0.0,0.0,0.0,0.0,0.0,0.0,0.0,0.0,0.0,0.0,0.0,0.0,0.0,0.0,0.0,0.0,0.0,0.0,0.0,0.0,0.0,0.0,0.0,0.0,0.0,0.0,0.0,0.0,0.0,0.0,0.0,0.0,0.0,0.0,0.0,0.0,0.0,0.0,0.0,0.0,0.0,0.0,0.0,0.0,0.0,0.0,0.0,0.0,0.0,0.0,0.0,0.0,0.0,0.0,0.0,0.0,0.0,0.0,0.0,0.0,0.0,0.0,0.0,0.0,0.0,0.0,0.0,0.0,0.0,0.0,0.0,0.0,0.0,0.0,0.0,0.0,0.0,0.0,0.0,0.0,0.0,0.0,0.0,0.0,0.0,3.0644,3.0124,2.9873,3.0416,2.885,2.7573,2.7123,2.5062,2.4173,2.5045,0.0,0.0,0.0,0.0,0.0,0.0,0.0,0.0,0.0,0.0,0.0,0.0,0.0,0.0,0.0,0.0,0.0,0.0,0.0,0.0,0.0,0.0,0.0,0.0,0.0,0.0,0.0,0.0,0.0,0.0,0.0,0.0,0.0,0.0,0.0,0.0,0.0,0.0,0.0,0.0,0.0,0.0,0.0,0.0,0.0,0.0,0.0,0.0,0.0,0.0,0.0,0.0,0.0,0.0,0.0,0.0,0.0,0.0,0.0,0.0,0.0,0.0,0.0,0.0,0.0,0.0,0.0,0.0,0.0,0.0,0.0,0.0,0.0,0.0,0.0,0.0,0.0,0.0,0.0,0.0,0.0,0.0,0.0,0.0,0.0,0.0,0.0,0.0,0.0,0.0,0.0,0.0,0.0,0.0,0.0,0.0,0.0,0.0,0.0,0.0,0.0,0.0,3.0938,2.9774,2.9147,3.0069,2.8864,2.7699,2.6952,2.5035,2.4193,2.4967,0.0,0.0,0.0,0.0,0.0,0.0,0.0,0.0,0.0,0.0,0.0,0.0,0.0,0.0,0.0,0.0,0.0,0.0,0.0,0.0,0.0,0.0,0.0,0.0,0.0,0.0,0.0,0.0,0.0,0.0,0.0,0.0,0.0,0.0,0.0,0.0,0.0,0.0,0.0,0.0,0.0,0.0,0.0,0.0,0.0,0.0,0.0,0.0,0.0,0.0,0.0,0.0,0.0,0.0,0.0,0.0,0.0,0.0,0.0,0.0,2.7244,0.0,0.0,0.0,0.0,0.0,0.0,0.0,0.0,0.0,0.0,0.0,0.0,0.0,0.0,0.0,0.0,0.0,0.0,0.0,0.0,0.0,0.0,0.0,0.0,0.0,0.0,0.0,0.0,0.0,0.0,0.0,0.0,0.0,0.0,0.0,0.0,0.0,0.0,0.0,0.0,0.0,2.9362,2.9061,2.8879,2.91,2.8453,2.7699,2.6952,2.533,2.4365,2.4394,2.3719,0.0,0.0,0.0,0.0,0.0,0.0,0.0,0.0,0.0,0.0,0.0,0.0,0.0,0.0,0.0,0.0,0.0,0.0,0.0,0.0,0.0,0.0,0.0,0.0,0.0,0.0,0.0,0.0,0.0,0.0,0.0,0.0,0.0,0.0,0.0,0.0,0.0,0.0,0.0,0.0,0.0,0.0,0.0,0.0,0.0,0.0,0.0,0.0,0.0,0.0,0.0,0.0,0.0,0.0,0.0,0.0,0.0,0.0,0.0,0.0,2.7765,0.0,0.0,0.0,0.0,0.0,0.0,0.0,0.0,0.0,0.0,0.0,0.0,0.0,0.0,0.0,0.0,0.0,0.0,0.0,0.0,0.0,0.0,0.0,0.0,0.0,0.0,0.0,0.0,0.0,0.0,0.0,0.0,0.0,0.0,0.0,0.0,0.0,0.0,0.0,0.0,2.9265,2.8665,2.8331,2.876,2.845,2.797,2.7337,2.6039,2.5055,2.4522,2.3774,0.0,0.0,0.0,0.0,0.0,0.0,0.0,0.0,0.0,0.0,0.0,0.0,0.0,0.0,0.0,0.0,0.0,0.0,0.0,0.0,0.0,0.0,0.0,0.0,0.0,0.0,0.0,0.0,0.0,0.0,0.0,0.0,0.0,0.0,0.0,0.0,0.0,0.0,0.0,0.0,0.0,0.0,0.0,0.0,0.0,0.0,0.0,0.0,0.0,0.0,0.0,0.0,0.0,3.0936,3.1166,3.1098,3.1098,3.1533,3.2115,2.9621,2.8213,2.7643,0.0,0.0,0.0,0.0,0.0,0.0,0.0,0.0,0.0,0.0,0.0,0.0,0.0,0.0,0.0,0.0,0.0,0.0,0.0,0.0,0.0,0.0,0.0,0.0,0.0,2.5309,2.5459,0.0,0.0,0.0,0.0,0.0,0.0,0.0,0.0,0.0,0.0,0.0,0.0,2.9455,2.8404,2.7904,2.8655,2.8598,2.8274,2.7745,2.6731,2.5756,2.4993,2.3936,2.3468,0.0,0.0,0.0,0.0,0.0,0.0,0.0,0.0,0.0,0.0,0.0,0.0,0.0,0.0,0.0,0.0,0.0,0.0,0.0,0.0,0.0,0.0,0.0,0.0,0.0,0.0,0.0,0.0,0.0,0.0,0.0,0.0,2.8877,2.7717,0.0,0.0,0.0,0.0,0.0,0.0,0.0,0.0,0.0,0.0,0.0,0.0,0.0,0.0,3.2356,3.1868,3.1713,3.1923,3.1993,3.1857,3.1523,3.1523,3.2168,3.3251,3.2291,0.0,2.9895,2.8885,0.0,0.0,0.0,0.0,0.0,0.0,0.0,0.0,0.0,0.0,0.0,0.0,0.0,0.0,0.0,0.0,0.0,0.0,0.0,0.0,0.0,0.0,2.5158,2.5472,2.5551,2.5719,0.0,2.6153,2.6054,2.6343,0.0,0.0,0.0,0.0,0.0,0.0,0.0,0.0,2.8465,2.8178,2.8096,2.8498,2.853,2.8274,2.7745,2.6731,2.5943,2.5515,2.4482,2.3969,2.412,2.4001,0.0,0.0,0.0,0.0,0.0,0.0,0.0,0.0,0.0,0.0,0.0,0.0,0.0,0.0,0.0,0.0,0.0,0.0,0.0,0.0,0.0,0.0,0.0,0.0,0.0,0.0,0.0,0.0,0.0,3.0563,3.0396,2.8942,3.0558,3.1309,0.0,0.0,0.0,0.0,0.0,0.0,0.0,0.0,0.0,3.2148,3.1371,3.1539,3.2786,3.2444,3.2668,3.3448,3.3448,3.3536,3.3741,3.3741,3.4223,3.5002,3.392,3.3323,3.2931,3.0732,2.9042,2.7889,0.0,0.0,0.0,0.0,0.0,2.9784,3.0017,2.9536,0.0,0.0,0.0,0.0,0.0,0.0,0.0,0.0,0.0,0.0,0.0,0.0,0.0,2.6979,2.7494,2.7934,2.7858,2.7423,2.6932,0.0,2.6983,2.7541,2.8154,0.0,0.0,0.0,0.0,0.0,2.8244,2.812,2.813,2.845,2.849,2.8394,2.8166,2.7433,2.681,2.6353,2.5321,2.4665,2.453,2.4242,2.4312,0.0,0.0,0.0,0.0,0.0,0.0,0.0,0.0,0.0,0.0,0.0,0.0,0.0,0.0,0.0,0.0,0.0,0.0,0.0,0.0,0.0,0.0,0.0,0.0,0.0,0.0,0.0,0.0,3.1087,3.107,2.9439,3.0832,3.1269,0.0,0.0,0.0,0.0,0.0,0.0,3.2647,3.2334,3.2657,3.38,3.265,3.2694,3.4033,3.3969,3.442,3.5438,3.5438,3.5673,3.6065,3.6065,3.6312,3.6655,3.5475,3.5093,3.5046,3.212,3.0073,2.8739,2.8366,2.8774,2.9624,3.0055,3.0132,3.0109,3.0501,2.9815,2.873,2.826,0.0,2.7874,2.7412,0.0,0.0,0.0,0.0,2.7759,2.8425,2.8446,2.8405,2.885,2.9591,3.0043,2.9459,2.9019,2.8362,0.0,2.7311,2.7746,2.7903,0.0,0.0,0.0,0.0,2.7936,2.8201,2.8193,2.821,2.8462,2.849,2.849,2.849,2.801,2.7541,2.7126,2.6017,2.5302,2.5154,2.4537,2.4538,2.521,0.0,0.0,0.0,0.0,0.0,0.0,0.0,0.0,0.0,0.0,0.0,0.0,0.0,0.0,0.0,0.0,0.0,0.0,0.0,0.0,0.0,0.0,0.0,0.0,0.0,0.0,0.0,0.0,0.0,2.7651,2.9686,0.0,0.0,0.0,0.0,3.053,3.2042,3.2677,3.1893,3.2971,3.4024,3.4989,3.507,3.593,3.772,3.7733,3.7918,3.8293,3.8293,3.8144,3.7874,3.7874,3.7886,3.7886,3.7308,3.6443,3.5294,3.2569,3.1669,3.1869,3.0837,3.0936,3.1577,3.0985,3.0871,3.094,3.0336,2.9663,2.905,2.8965,2.8669,2.8396,2.8562,2.9059,0.0,0.0,2.8036,2.8499,2.8801,2.8863,2.927,3.0846,3.1273,3.1173,3.0625,3.0487,2.9829,0.0,2.7353,2.7488,2.768,0.0,2.8745,2.8371,2.8716,2.8797,2.8195,2.8322,2.8474,2.849,2.849,2.849,2.849,2.801,2.7697,2.7661,2.6344,2.5713,2.6015,2.5212,2.5026,2.5564,2.5247,0.0,0.0,0.0,0.0,0.0,0.0,0.0,0.0,0.0,0.0,0.0,0.0,0.0,0.0,0.0,0.0,0.0,0.0,0.0,0.0,0.0,0.0,0.0,0.0,0.0,0.0,0.0,0.0,3.0843,3.2396,0.0,3.098,3.2049,3.2658,3.2201,3.3538,3.4612,3.5117,3.5451,3.613,3.7256,3.679,3.6993,3.7981,3.7994,3.8056,3.8189,3.8189,3.812,3.8002,3.8002,3.8002,3.8002,3.7801,3.7487,3.701,3.5707,3.3998,3.216,3.1773,3.1798,3.2099,3.2372,3.2443,3.2372,3.2266,3.1726,3.0971,3.026,2.9198,2.8229,2.8294,2.8476,2.8635,2.8477,2.9119,2.9955,3.0385,3.052,3.0658,3.1248,3.1406,3.1356,3.116,3.111,3.0831,2.9917,2.8717,2.7827,2.7774,2.7418,2.7279,2.7718,2.7832,2.7921,2.8025,2.8315,2.849,2.849,2.849,2.849,2.849,2.7801,2.7615,2.8194,2.607,2.5134,2.5823,2.487,2.4599,2.5146,2.5779,2.5977,0.0,0.0,0.0,0.0,0.0,0.0,0.0,0.0,0.0,0.0,0.0,0.0,0.0,0.0,0.0,0.0,0.0,0.0,0.0,0.0,0.0,0.0,0.0,0.0,0.0,0.0,3.2583,3.3379,3.4348,3.4444,3.3113,3.3731,3.4146,3.3931,3.5078,3.6267,3.729,3.7221,3.7666,3.887,3.8182,3.8015,3.8567,3.8567,3.8567,3.8567,3.8567,3.8567,3.8567,3.8567,3.8567,3.8567,3.8379,3.8304,3.8253,3.7688,3.6157,3.4123,3.3759,3.3495,3.3375,3.3922,3.3899,3.3607,3.3389,3.2953,3.2315,3.1235,3.0118,2.9214,2.9214,2.9214,2.9289,2.9634,3.0412,3.1265,3.1834,3.2123,3.2269,3.236,3.2239,3.2101,3.2101,3.1751,3.1427,3.1377,3.0206,2.9057,2.8591,2.8114,2.7848,2.8036,2.8195,2.828,2.8288,2.8315,2.8268,2.807,2.7785,2.7592,2.7592,2.7126,2.7183,2.8007,2.5813,2.5067,2.6321,2.5047,2.4676,2.5461,2.6388,2.6789,2.6647,0.0,0.0,0.0,0.0,0.0,0.0,0.0,0.0,0.0,0.0,0.0,0.0,0.0,0.0,0.0,0.0,0.0,0.0,0.0,0.0,0.0,0.0,0.0,3.1091,3.2824,3.4233,3.4792,3.5304,3.5395,3.4879,3.532,3.5658,3.5658,3.6684,3.7525,3.8078,3.8103,3.8592,3.971,3.9258,3.922,3.9722,3.9722,3.971,3.9697,3.9697,3.9697,3.9697,3.9697,3.9697,3.9659,3.9158,3.8919,3.8881,3.8291,3.8052,3.7952,3.6871,3.6094,3.5571,3.5558,3.5194,3.4577,3.3542,3.3165,3.2977,3.1851,3.1486,3.1482,3.1482,3.1482,3.1482,3.1482,3.1863,3.2416,3.3002,3.352,3.3994,3.4249,3.3896,3.3511,3.3511,3.2506,3.1647,3.1893,3.171,3.1148,3.0105,3.0572,3.0651,2.9364,2.9853,0.0,2.8964,2.8342,2.777,2.7256,2.6373,2.5842,2.5831,2.5969,2.6367,2.711,2.5566,2.5525,2.7503,2.5724,2.532,2.6626,2.7029,2.7533,2.8116,0.0,0.0,0.0,0.0,0.0,0.0,0.0,0.0,0.0,0.0,0.0,0.0,0.0,0.0,0.0,0.0,0.0,0.0,0.0,0.0,0.0,0.0,3.2138,3.2437,3.3645,3.4859,3.5843,3.7156,3.7902,3.7763,3.8592,3.9132,3.9132,3.9433,3.9835,4.0361,4.0023,4.0123,4.0838,4.0713,4.0512,4.0287,4.0287,4.0086,3.9697,3.9697,3.9697,3.9697,3.9697,3.9697,3.9685,3.9534,3.9471,3.9484,3.9295,3.9233,3.912,3.799,3.7462,3.7287,3.6885,3.6108,3.5232,3.4941,3.459,3.4223,3.3887,3.3533,3.3206,3.3206,3.3206,3.3206,3.3206,3.3608,3.4051,3.4223,3.423,3.4209,3.4278,3.408,3.3868,3.3868,3.3566,3.3289,3.3165,3.3234,3.2648,3.061,3.0439,3.0172,2.8951,2.8949,0.0,2.7718,2.7457,2.7293,2.7139,2.6911,2.6606,2.6333,2.5733,2.5615,2.6153,2.4252,2.3628,2.4824,2.4621,2.5478,2.756,2.787,2.8143,0.0,0.0,0.0,0.0,0.0,0.0,0.0,0.0,0.0,0.0,0.0,0.0,0.0,0.0,0.0,0.0,0.0,0.0,0.0,0.0,0.0,0.0,3.3821,3.4908,3.571,3.5966,3.6596,3.7964,3.917,3.991,3.991,4.0462,4.0838,4.0838,4.0838,4.0976,4.1263,4.1001,4.0989,4.1275,4.1315,4.1152,4.0838,4.0838,4.0675,4.0361,4.0361,4.0262,4.0036,4.0036,3.991,0.0,3.9697,3.9697,3.9697,3.9697,3.9697,0.0,0.0,0.0,0.0,0.0,3.6784,3.6146,3.5658,3.5295,3.5004,3.4778,3.449,3.4214,3.4102,3.408,3.4058,3.3958,3.4334,3.4744,3.4744,3.478,3.4825,3.4708,3.442,3.4241,3.4438,3.4075,3.3749,3.3899,0.0,0.0,3.1847,3.1513,3.0891,2.9332,2.9209,2.8799,2.7443,2.7041,2.6809,2.6572,2.6048,2.5628,2.5389,2.4776,0.0,0.0,0.0,2.3205,2.3947,2.4539,0.0,0.0,0.0,2.8154,2.8825,0.0,0.0,0.0,2.8738,2.879,0.0,0.0,0.0,0.0,0.0,0.0,0.0,0.0,0.0,0.0,0.0,0.0,0.0,0.0,0.0,0.0,3.6632,3.8154,3.9825,3.9258,3.9145,4.0437,4.1114,4.149,4.149,4.1603,4.1679,4.1679,4.1628,4.1591,4.1591,0.0,0.0,0.0,0.0,4.1528,4.1403,4.1403,4.1378,4.1315,4.1315,4.1026,4.0487,4.0487,4.0212,3.9697,3.9697,3.9697,3.9697,3.9697,3.9697,3.9697,3.9697,3.9384,3.8768,3.77,3.7261,3.706,3.597,0.0,0.0,3.4996,3.4846,3.48,3.4537,3.4445,3.44,3.4228,3.4527,3.4884,3.4884,3.5204,3.5488,3.5247,3.481,3.458,3.5053,3.4173,3.3467,3.4137,3.3635,3.3101,3.3041,3.2819,3.203,3.0113,2.9931,2.9372,2.7615,2.6915,2.6367,2.5856,0.0,0.0,2.3867,2.3646,2.3764,2.4307,2.3724,2.362,2.421,2.4967,2.5955,2.7185,2.7226,2.7794,2.8922,2.9052,2.9052,2.8937,2.845,2.8456,0.0,0.0,0.0,0.0,0.0,0.0,0.0,0.0,0.0,0.0,0.0,0.0,0.0,0.0,0.0,3.648,3.8186,3.9978,4.206,4.2534,4.2308,4.1277,4.2057,4.266,4.266,4.3463,4.3962,4.3962,4.3576,4.3325,4.3325,4.3325,0.0,4.2672,4.3099,4.2898,4.2034,4.2022,4.1769,4.1315,0.0,0.0,4.0487,4.0487,4.0212,3.9697,3.9697,3.9697,3.9697,3.9697,3.9697,3.9697,3.9697,3.9384,3.8806,3.8103,3.7563,3.7122,3.6457,3.623,3.6158,3.5835,3.574,3.5692,3.542,3.5348,0.0,3.5301,3.5363,3.5437,3.5437,3.5367,3.5271,3.5199,3.4969,3.4751,3.4848,3.3986,3.3244,3.3386,3.2624,3.1784,3.137,3.1593,3.1418,3.0208,2.9351,2.8299,2.6802,2.6517,2.6251,2.5758,2.5482,2.5045,2.4332,2.4232,2.3959,2.3414,2.3231,2.3536,2.4413,2.4595,2.5484,2.7165,2.7366,2.7557,2.7799,2.8673,2.8744,2.8071,2.8643,2.895,0.0,0.0,0.0,0.0,0.0,0.0,0.0,0.0,0.0,0.0,0.0,3.2518,0.0,0.0,3.6828,3.8903,4.0659,4.2233,4.3614,4.4041,4.3874,4.3059,4.3463,4.3802,4.3802,4.4305,4.4589,4.4589,4.4338,4.4217,4.4217,4.4217,4.3953,4.3413,4.3664,4.3401,4.26,4.26,4.2462,4.2158,4.2158,4.1869,4.1369,4.1369,4.104,4.0501,4.0224,4.0111,4.0086,3.981,3.9697,3.9697,3.9555,3.9418,3.9245,3.8642,3.8003,3.7305,3.6792,3.6334,3.6016,3.6157,3.6196,3.6197,3.6199,3.6198,3.6174,3.605,3.6001,3.5865,3.5257,3.5007,3.4769,3.4176,3.3777,3.3561,3.3788,3.309,3.2532,3.2974,3.2263,3.1575,3.1524,3.107,3.0416,2.9459,2.885,2.8065,2.6855,2.6699,2.6543,2.6113,2.5845,2.5445,2.4795,2.4346,2.3806,2.314,2.3091,2.3309,2.3777,2.3799,2.4445,2.582,2.5944,2.6214,2.6648,2.7191,2.7232,2.6812,2.7252,2.8031,0.0,0.0,0.0,0.0,0.0,0.0,0.0,0.0,3.1761,3.3048,3.3376,3.4089,3.6295,3.7777,3.9295,4.1302,4.3049,4.4279,4.4702,4.4853,4.4928,4.4928,4.4828,4.4752,4.4752,4.4853,4.4928,4.4928,4.4928,4.4878,4.4765,4.4865,4.4614,4.3978,4.4066,4.3865,4.3313,4.3215,4.3165,4.3165,4.3052,4.2713,4.2213,4.2213,4.1884,4.129,4.0838,4.0537,4.0311,3.9934,3.9707,3.9581,3.931,3.9322,3.9467,3.8917,3.8291,3.7605,3.706,3.6455,3.5929,3.6075,3.6134,3.6108,3.6051,3.6043,3.6004,3.5788,3.5711,3.5505,3.4525,3.4264,3.4027,3.3112,3.2594,3.2446,3.2811,3.2158,3.1739,3.2426,3.1831,3.1319,3.164,3.0668,2.9603,2.8879,2.8593,2.8152,2.7251,2.7139,2.6982,2.6553,2.6123,2.5644,2.5141,2.4378,2.376,2.3386,2.3288,2.324,2.324,2.314,2.3539,2.4477,2.4498,2.485,2.5547,2.5725,2.5714,2.5547,2.5547,2.6586,2.7096,2.7109,2.7777,2.8721,2.9399,3.0374,0.0,0.0,3.3289,3.5171,3.5788,3.6359,3.7585,3.9522,4.134,4.2625,4.4233,4.5321,4.5384,4.5811,4.6125,4.6125,4.5686,4.5397,4.5397,4.5836,4.6125,4.6125,4.6125,4.5912,4.5409,4.5849,4.5606,4.4539,4.5033,4.502,4.4414,4.3953,4.3714,4.3702,4.324,4.2713,4.2213,4.2213,4.1884,4.1315,4.1252,4.0662,3.9797,3.9975,3.9771,3.931,3.8971,3.8867,3.8832,3.829,3.8044,3.7895,3.7354,3.7095,3.6821,3.5555,3.5144,3.4924,3.37,3.3352,3.3314,3.3298,3.3298,3.3272,3.3139,3.3085,3.3059,3.2925,3.2855,3.2833,3.2888,3.2034,3.1262,3.1366,3.0531,2.984,2.9889,2.9749,2.966,2.9728,2.8934,2.814,2.7689,2.7624,2.7448,2.6992,2.6572,2.5977,2.516,2.4629,2.4303,2.4254,2.3926,2.3721,2.3721,2.3327,2.3539,2.4477,2.4498,2.4541,2.4648,2.5432,2.5411,2.4648,2.4648,2.5179,2.8175,2.8669,2.9526,3.0271,3.1394,3.2561,3.3466,3.4374,3.5298,3.6419,3.7794,3.912,4.0238,4.1969,4.3586,0.0,4.5773,4.6552,4.6853,4.681,4.6522,4.5912,4.5635,4.561,4.5937,4.6434,4.6622,4.6338,4.6572,4.6522,4.5999,4.6188,4.5949,4.5146,4.5359,4.5208,4.4602,4.4364,4.4279,4.4251,4.4053,4.3639,4.314,4.314,4.2552,4.1534,4.1534,4.0803,3.9649,3.9766,3.9491,3.8971,3.8684,3.8147,3.7503,3.7498,3.7159,3.6588,3.571,3.5091,3.4635,3.429,3.4193,3.4142,3.3857,3.3764,3.3764,3.3764,3.3764,3.3627,3.2948,3.2793,3.2598,3.1909,3.1526,3.1403,3.1689,3.0969,3.0424,3.0916,3.0241,2.9676,2.9921,2.9764,2.9638,2.9719,2.9107,2.8506,2.8086,2.8054,2.7773,2.709,2.6855,2.6299,2.519,2.5137,2.4947,2.443,2.4023,2.3789,2.3789,2.3347,2.3288,2.3669,2.3691,2.3691,2.3691,2.4038,2.4048,2.3691,2.3691,2.4038,2.9078,2.9917,3.0903,3.2129,3.3527,3.4686,3.5163,3.6457,3.7738,3.8429,3.9961,4.153,4.2663,4.3815,4.5016,4.6296,4.6848,4.7237,4.7613,4.7074,4.6326,4.5359,4.4982,4.4991,4.5454,4.6203,4.6547,4.6326,4.6647,4.6697,4.6338,4.6313,4.6125,4.5723,4.5711,4.551,4.5066,4.4903,4.484,4.4828,4.4514,4.4134,4.3688,4.3453,4.2697,4.1592,4.174,4.096,3.9584,3.933,3.8829,3.812,3.7524,3.675,3.5995,3.5897,3.5697,3.5297,3.4474,3.3791,3.3329,3.3353,3.3351,3.3371,3.3427,3.342,3.342,3.342,3.342,3.3233,3.2428,3.2209,3.1989,3.1112,3.0635,3.0478,3.082,3.0409,3.0155,3.0762,3.04,3.0058,3.0332,3.0137,2.9921,2.9794,2.9375,2.8945,2.8525,2.8369,2.8008,2.7275,2.7197,2.6758,2.5718,2.5801,2.562,2.5,2.4443,2.4163,2.4163,2.3698,2.3474,2.3474,2.3474,2.3474,2.3474,2.3474,2.3474,2.3474,2.3474,2.364,0.0,0.0,3.0604,3.3802,3.5041,3.6044,3.8253,3.9584,4.0689,4.1808,4.2512,4.3237,4.4313,4.4564,4.5141,4.681,4.7099,4.7111,4.7124,4.6225,4.5309,4.469,4.3702,4.3162,0.0,4.4749,4.5748,4.6276,4.6326,4.6326,4.6313,4.6313,4.6301,4.6288,4.6288,4.6276,4.6263,4.5723,4.546,4.5447,4.4342,4.3685,4.3386,4.2539,4.1843,4.1351,4.1852,4.1152,3.9528,3.8678,3.7686,3.6511,3.5074,3.4503,3.4336,3.3233,3.3533,3.4453,3.4397,3.4359,3.4153,3.307,3.2721,3.2493,3.1363,3.1005,3.1005,3.1005,3.1005,3.1005,3.0947,3.0947,3.0947,3.0918,3.0879,3.0869,3.0889,3.0869,3.0859,3.0889,3.0869,3.0859,3.0869,3.0859,3.0703,3.0244,2.9852,2.9422,2.8928,2.8545,2.8125,2.7721,2.7673,2.7487,2.6992,2.6592,2.6357,2.6328,2.5532,2.5053,2.5053,2.4609,2.4352,2.4352,2.4352,2.4352,2.4352,2.4352,2.4352,2.4352,2.4352,2.4362,0.0,0.0,3.4669,3.6915,3.8151,3.9207,4.074,4.1645,4.2185,4.2173,4.2047,4.1867,4.1867,4.2168,4.2958,4.4627,4.5831,4.6685,4.7048,4.7117,4.6153,4.3583,4.3425,0.0,0.0,0.0,0.0,4.5425,4.598,4.6313,4.6313,4.6622,4.666,4.6326,4.6634,4.6556,4.5981,4.5794,4.5574,4.5351,4.4249,4.3701,4.3559,4.2545,4.1436,4.0246,4.0412,3.9383,3.7502,3.6954,3.6267,3.553,3.4707,3.3927,3.3243,3.2856,3.2428,3.2084,3.2084,3.2084,3.2008,3.1624,3.1508,3.1421,3.1034,3.0889,3.0889,3.0889,3.0889,3.0889,3.0889,3.0889,3.0889,3.0889,3.0889,3.0889,3.0889,3.0889,3.0889,3.0889,3.0889,3.0889,3.0889,3.0889,3.084,3.0684,2.9795,2.8984,2.8564,2.8379,2.8161,2.7741,2.7946,2.7793,2.7045,2.7148,2.7018,2.6451,2.583,2.5381,2.5102,2.4648,2.4391,2.4391,2.4391,2.4391,2.4391,2.4391,2.4391,2.4391,2.4391,2.457,0.0,3.5438,3.7745,3.9825,4.1015,4.1882,4.2612,4.3052,4.3039,4.2057,4.1116,4.035,3.9986,3.9709,4.0223,4.2296,4.3526,4.4585,4.5649,4.5707,4.491,4.2802,4.2759,4.2534,0.0,0.0,0.0,4.4762,4.5627,4.6147,4.6225,4.6761,4.6767,4.625,4.6574,4.6376,4.5648,4.5635,4.5415,4.4993,4.4007,4.3421,4.3184,4.1719,4.0507,3.951,3.9057,3.7936,3.6437,3.5606,3.494,3.4354,3.3487,3.2703,3.2076,3.2076,3.1566,3.0889,3.0889,3.0889,3.0889,3.0889,3.0889,3.0889,3.0889,3.0889,3.0889,3.0889,3.0889,3.0889,3.0889,3.0889,3.0889,3.0889,3.0889,3.0889,3.0889,3.0889,3.0889,3.0889,3.0889,3.0889,3.0889,3.0889,3.083,3.0664,2.9922,2.9228,2.8826,2.8613,2.8359,2.7966,2.8161,2.8066,2.7519,2.7614,2.7457,2.691,2.6411,2.5971,2.5581,2.5273,2.5049,2.4869,2.4859,2.4859,2.4859,2.4859,2.4859,2.4859,2.4859,2.5039,3.5577,3.7851,3.9786,4.2409,4.3423,4.3812,4.3774,4.3711,4.3172,4.149,3.981,3.863,0.0,0.0,3.72,3.9986,4.0549,4.1307,4.3216,4.2587,4.2075,0.0,0.0,0.0,0.0,0.0,0.0,4.4367,0.0,4.5846,4.6105,4.6614,4.6664,4.6123,4.6098,4.5841,4.527,4.527,4.4981,4.4466,4.3538,4.2802,4.2234,4.0088,3.9069,3.8951,3.7719,3.6897,3.6232,3.4653,3.3713,3.3085,3.1513,3.0889,3.0889,3.0889,3.0889,3.0889,3.0889,3.0889,3.0889,3.0889,3.0889,3.0889,3.0889,3.0889,3.0889,3.0889,3.0889,3.0889,3.0889,3.0889,3.0889,3.0889,3.0889,3.0889,3.0889,3.0889,3.0889,3.0889,3.0889,3.0889,3.0889,3.0889,3.0742,3.0303,3.0234,3.0068,2.9657,2.9209,2.8789,2.8369,2.833,2.831,2.8291,2.7956,2.7712,2.7692,2.7275,2.6865,2.6435,2.6396,2.6191,2.5732,2.5703,2.5693,2.5693,2.5693,2.5693,2.5693,2.5693,2.5693,3.8743,4.0965,4.2755,4.3654,4.3995,4.3983,4.3518,4.2501,4.1124,3.9232,3.6897,3.4914,0.0,0.0,0.0,3.8843,4.1166,0.0,4.4389,4.4813,0.0,4.2633,0.0,4.322,4.2113,4.3079,0.0,0.0,4.4664,4.5328,4.6402,4.674,4.6664,4.6123,4.6105,4.5723,4.4933,4.4687,4.4491,4.4315,4.2345,4.1331,4.1119,3.883,3.7267,3.6338,3.6042,3.5242,3.4109,3.3083,3.2594,3.2365,3.1319,3.0889,3.0889,3.0889,3.0889,3.0889,3.0889,3.0889,3.0889,3.0889,3.0889,3.0889,3.0889,3.0889,3.0889,3.0889,3.0889,3.0889,3.0889,3.0889,3.0889,3.0889,3.0889,3.0889,3.0889,3.0889,3.0889,3.0889,3.0889,3.0889,3.0889,3.0889,3.085,3.0732,3.0713,3.0439,2.9696,2.95,2.9238,2.8809,2.876,2.8633,2.832,2.822,2.8024,2.7712,2.7585,2.7305,2.6875,2.6553,2.6338,2.6221,2.5884,2.5693,2.5693,2.5693,2.5693,2.5693,2.5693,2.5693,4.1139,4.3049,4.4501,4.4645,4.4331,4.3565,4.2,4.0502,3.8662,3.5812,3.3561,3.1825,3.0914,3.1835,3.3548,0.0,0.0,0.0,4.2905,4.3897,4.4109,0.0,4.4087,0.0,4.3663,4.4244,4.4857,0.0,4.5285,4.5728,4.6604,4.6743,4.6574,4.6039,4.5771,4.5039,4.3732,4.3514,4.3114,4.2492,4.0717,3.9868,3.9815,3.7521,3.6073,3.5376,0.0,3.41,3.3328,3.2519,3.2198,3.211,3.123,3.1006,3.1162,3.1162,3.1289,3.1485,3.1485,3.1485,3.1416,3.1016,3.0889,3.0928,3.1103,3.1162,3.1211,3.1396,3.1309,3.1162,3.1162,3.1162,3.1162,3.1162,3.1162,3.1221,3.1446,3.1299,3.1162,3.1162,3.1162,3.1103,3.0928,3.0889,3.0889,3.0889,3.0889,3.0713,3.0243,2.9999,2.9678,2.9248,2.9033,2.8818,2.8584,2.8398,2.8193,2.7985,2.7966,2.777,2.7314,2.7106,2.6881,2.667,2.624,2.6001,2.6001,2.5806,2.5693,2.5693,2.5693,2.5693,4.2995,4.4477,4.5386,4.5251,4.4324,4.2692,3.9856,3.813,3.602,3.2148,3.0411,2.939,2.8794,2.961,3.1104,3.3414,0.0,3.8325,4.0917,4.197,4.2881,4.4002,4.476,4.5331,4.5615,4.5495,4.5705,4.6378,4.6507,4.6629,4.6757,4.6716,4.6342,4.5537,4.488,4.3704,4.2027,4.2027,4.1409,4.0192,3.9062,3.85,3.8371,3.6217,3.519,3.5067,0.0,0.0,3.3328,3.2609,3.2247,3.212,3.1377,3.125,3.1523,3.1582,3.1846,3.2198,3.2198,3.2198,3.2081,3.1328,3.1055,3.1133,3.1494,3.1572,3.168,3.2091,3.1894,3.1572,3.1572,3.1572,3.1572,3.1572,3.1572,3.1709,3.212,3.1875,3.1562,3.1503,3.1484,3.1357,3.0967,3.0889,3.0889,3.0889,3.0889,3.0889,3.0889,3.0537,3.0155,2.9725,2.9268,2.8976,2.8976,2.8564,2.831,2.8369,2.832,2.8125,2.779,2.7721,2.7516,2.7109,2.6689,2.6475,2.6465,2.6069,2.5854,2.5796,2.5796,2.5767,4.4586,4.5441,4.5791,4.5073,4.3458,4.129,3.8362,3.6051,0.0,0.0,2.896,2.8222,2.767,2.9572,3.2214,3.5382,3.7729,4.0259,4.3436,4.3535,4.3698,0.0,4.5405,4.579,4.5854,0.0,0.0,0.0,0.0,4.724,4.7118,4.6846,4.5728,4.3653,4.2271,4.123,4.056,4.056,4.043,4.0192,3.8463,3.7439,3.7074,3.5177,3.41,3.3723,0.0,0.0,3.3347,3.2891,3.2511,3.2179,3.2032,3.1768,3.1562,3.1954,3.213,3.2198,3.2198,3.2198,3.2179,3.2022,3.1973,3.1993,3.2061,3.2091,3.2101,3.2179,3.2149,3.2091,3.2091,3.2091,3.2091,3.2091,3.2091,3.2101,3.2179,3.214,3.1953,3.1592,3.1484,3.1357,3.0967,3.0889,3.0889,3.0889,3.0889,3.0889,3.0889,3.082,3.0596,3.0137,2.9735,2.9481,2.9481,2.874,2.8437,2.8762,2.8486,2.8262,2.821,2.7878,2.7653,2.7585,2.7129,2.6904,2.6904,2.6801,2.6596,2.6279,2.6279,2.6084,4.522,4.5705,4.5755,4.4787,4.2545,3.9733,3.6354,0.0,0.0,2.8123,2.7368,2.7185,2.6939,2.875,3.105,3.3289,3.5439,3.8082,4.1677,4.2481,4.3421,4.5289,4.6226,4.674,0.0,0.0,0.0,0.0,0.0,4.631,4.6229,4.5071,4.363,4.1966,4.1199,4.0244,3.9124,3.9124,3.8728,3.8009,3.6881,3.6261,3.603,3.4689,3.3997,3.375,3.3525,0.0,3.3357,3.2969,3.2676,3.2501,3.2286,3.2178,3.2207,3.2412,3.2637,3.2822,3.2822,3.2822,3.2822,3.2822,3.2529,3.2237,3.2462,3.2521,3.257,3.2764,3.2666,3.2521,3.2521,3.2521,3.2521,3.2521,3.2666,3.2764,3.2579,3.2666,3.2627,3.1982,3.1855,3.165,3.0996,3.0889,3.0889,3.0889,3.0889,3.0889,3.0889,3.0889,3.0801,3.0586,3.0156,2.9921,2.9921,2.9344,2.907,2.9248,2.8857,2.8613,2.8613,2.8239,2.8015,2.8015,2.7604,2.7353,2.7353,2.7129,2.6914,2.6709,2.6709,2.6602,4.5299,4.5599,4.5493,4.4556,4.184,3.8467,3.4703,3.2083,0.0,2.6532,2.6211,2.6499,2.6499,2.7876,2.9478,3.0812,3.2675,3.5319,3.922,4.0921,4.2634,0.0,4.6484,0.0,4.6583,0.0,0.0,0.0,0.0,0.0,4.4812,4.3003,4.1537,4.0544,4.0221,3.9296,3.7662,3.7652,3.7102,3.6016,3.5684,3.5478,3.5361,3.4603,3.4192,3.4085,3.3613,0.0,0.0,3.3066,3.2871,3.2773,3.256,3.2588,3.2803,3.29,3.3135,3.3386,3.3386,3.3386,3.3386,3.3386,3.2978,3.2531,3.2832,3.293,3.2998,3.3299,3.3184,3.293,3.293,3.293,3.293,3.293,3.3184,3.3299,3.2998,3.3193,3.3174,3.2364,3.2198,3.1925,3.1035,3.0889,3.0889,3.0889,3.0889,3.0889,3.0889,3.0889,3.0889,3.0889,3.0478,3.0234,3.0332,2.9891,2.9637,2.9725,2.9209,2.8889,2.8889,2.8516,2.8291,2.8291,2.7995,2.7829,2.7829,2.7451,2.7246,2.7158,2.7158,2.7109,4.4813,4.5176,4.5037,4.446,4.1564,3.7899,3.421,0.0,2.919,2.6458,2.6211,2.6499,2.6499,2.7444,2.8793,3.0552,3.1955,3.4303,3.8417,4.009,4.1466,4.2991,0.0,0.0,4.3646,0.0,0.0,0.0,0.0,0.0,4.3194,4.1774,4.0534,3.9653,3.8316,3.7149,3.6186,3.6186,3.6118,3.5982,3.5942,3.5762,3.5371,3.4873,3.4466,3.4085,3.3613,0.0,0.0,3.3347,3.3135,3.2832,3.3174,3.3096,3.2842,3.3223,3.3357,3.3386,3.3386,3.3386,3.3386,3.3386,3.3338,3.331,3.3318,3.3328,3.3338,3.3377,3.3357,3.3328,3.3328,3.3328,3.3328,3.3328,3.3357,3.3377,3.3338,3.3357,3.3174,3.2364,3.2198,3.1925,3.1035,3.0889,3.0889,3.0889,3.0889,3.0889,3.0889,3.0889,3.0889,3.0889,3.0478,3.0371,3.0791,3.0087,2.9764,3.0117,2.9375,2.8889,2.8889,2.8516,2.8291,2.8291,2.8252,2.8232,2.8232,2.8193,2.7978,2.7633,2.7633,2.7418,4.3614,4.4604,4.4832,4.3685,4.0494,3.686,3.3818,0.0,2.7836,2.6531,2.6091,2.6067,2.6436,2.6851,2.7521,2.8677,2.9157,3.0697,3.4408,3.6133,3.7946,4.049,4.2659,0.0,0.0,0.0,0.0,0.0,0.0,0.0,3.9957,3.9641,3.9077,3.8197,3.7602,3.6885,3.6025,3.5982,3.5982,3.5982,3.5982,3.5801,3.5371,3.4912,3.4473,3.4085,3.3613,0.0,0.0,3.3386,3.333,3.3193,3.3328,3.3289,3.3193,3.3328,3.3386,3.3386,3.3386,3.3386,3.3386,3.3386,3.3386,3.3386,3.3386,3.3386,3.3386,3.3386,3.3386,3.3386,3.3386,3.3386,3.3386,3.3386,3.3386,3.3318,3.3096,3.3047,3.2793,3.1943,3.1777,3.1592,3.0996,3.0889,3.0889,3.0889,3.0889,3.0889,3.0889,3.0889,3.0889,3.0889,3.0723,3.0693,3.0869,3.0566,3.0439,3.0605,3.0029,2.958,2.9316,2.8896,2.8555,2.8301,2.8291,2.8291,2.8291,2.8291,2.8203,2.8073,2.8073,2.7949,4.1774,4.3174,4.3734,4.2891,3.9418,3.5684,0.0,0.0,2.6767,2.6324,2.5904,2.5741,2.6172,2.6386,2.6646,2.7076,2.7251,2.8383,3.1388,3.3074,3.4999,3.7798,0.0,0.0,0.0,0.0,0.0,0.0,0.0,0.0,0.0,3.8337,3.7861,3.7139,3.7109,3.6758,3.6025,3.5982,3.5982,3.5982,3.5982,3.5801,3.5371,3.4912,3.4473,3.4085,0.0,0.0,0.0,3.3386,3.3386,3.3386,3.3386,3.3386,3.3386,3.3386,3.3386,3.3386,3.3386,3.3386,3.3386,3.3386,3.3386,3.3386,3.3386,3.3386,3.3386,3.3386,3.3386,3.3386,3.3386,3.3386,3.3386,3.3386,3.3386,3.3279,3.2891,3.2793,3.2539,3.1659,3.1484,3.1357,3.0967,3.0889,3.0889,3.0889,3.0889,3.0889,3.0889,3.0889,3.0889,3.0889,3.0889,3.0889,3.0889,3.0889,3.0889,3.0889,3.0449,3.0068,2.9794,2.9219,2.8779,2.8486,2.8359,2.8291,2.8291,2.8291,2.8291,2.8291,2.8291,2.8291,3.9279,4.0572,4.1439,4.2207,3.8487,3.4402,3.3578,2.9759,2.6265,2.5719,2.5598,2.5598,2.5598,2.6109,2.6415,2.616,2.6963,2.8338,3.0408,3.1876,3.3315,0.0,0.0,3.7728,0.0,0.0,0.0,0.0,0.0,0.0,0.0,3.8357,3.7119,3.6724,3.6714,3.6465,3.5991,3.5982,3.5982,3.5982,3.5982,3.5801,3.5371,3.4912,3.4473,0.0,0.0,0.0,0.0,3.3386,3.3386,3.3386,3.3386,3.3386,3.3386,3.3386,3.3386,3.3386,3.3386,3.3386,3.3386,3.3386,3.3386,3.3386,3.3386,3.3386,3.3386,3.3386,3.3386,3.3386,3.3386,3.3386,3.3386,3.3386,3.3386,3.3279,3.2891,3.2793,3.2539,3.1659,3.1484,3.1357,3.0967,3.0889,3.0889,3.0889,3.0889,3.0889,3.0889,3.0889,3.0889,3.0889,3.0889,3.0889,3.0889,3.0889,3.0889,3.0889,3.0449,3.0195,3.0185,2.9375,2.8889,2.8889,2.8506,2.8291,2.8291,2.8291,2.8291,2.8291,2.8291,2.8291,3.505,3.6477,3.7133,3.6648,3.435,3.1833,3.038,2.7668,2.5365,2.5123,2.5042,2.5172,2.5523,2.608,2.6739,2.7476,2.7591,2.7937,2.8917,0.0,0.0,3.4687,3.7718,3.9398,0.0,0.0,0.0,0.0,0.0,0.0,0.0,3.7212,3.6841,3.6714,3.6704,3.6465,3.5991,3.5732,3.5732,3.5982,3.541,3.5049,3.4902,3.4463,0.0,0.0,0.0,0.0,0.0,3.3386,3.3386,3.3386,3.3386,3.3386,3.3386,3.3386,3.3386,3.3386,3.3386,3.3386,3.3386,3.3386,3.3386,3.3386,3.3386,3.3386,3.3386,3.3386,3.3386,3.3386,3.3386,3.3386,3.3386,3.3386,3.3386,3.3279,3.2891,3.2793,3.2539,3.1659,3.1484,3.1357,3.0967,3.1133,3.1221,3.0937,3.1133,3.1211,3.0928,3.0889,3.0889,3.0889,3.0889,3.0889,3.0889,3.0889,3.0889,3.0889,3.0752,3.0527,3.0205,2.9941,2.9521,2.8898,2.8762,2.8574,2.8291,2.8291,2.8291,2.8291,2.8291,2.8291,3.145,3.3124,3.3801,3.3449,3.1598,0.0,2.8597,2.6309,2.4423,2.4473,2.449,2.4653,2.5209,2.5661,2.6223,2.7036,2.7128,2.7396,0.0,0.0,0.0,3.3594,0.0,0.0,0.0,0.0,0.0,0.0,0.0,0.0,0.0,3.6401,3.626,3.6426,3.6426,3.6221,3.5791,3.5527,3.5439,3.5517,3.4961,3.4609,3.4453,3.4222,0.0,0.0,0.0,0.0,0.0,3.3386,3.3386,3.3386,3.3386,3.3386,3.3386,3.3386,3.3386,3.3386,3.3386,3.3386,3.3386,3.3386,3.3386,3.3386,3.3386,3.3386,3.3386,3.3386,3.3386,3.3386,3.3386,3.3386,3.3386,3.3386,3.3386,3.3279,3.2891,3.2793,3.2588,3.1894,3.1768,3.168,3.1416,3.1455,3.1396,3.1162,3.1211,3.1182,3.0928,3.1025,3.1064,3.0908,3.1035,3.1064,3.0898,3.0889,3.0889,3.0889,3.0889,3.0762,3.0469,3.0293,2.9941,2.9414,2.9082,2.8789,2.8525,2.8369,2.8291,2.8291,2.8291,2.8291,0.0,3.0212,3.1059,3.1854,2.9844,2.7701,2.7788,2.5542,0.0,2.3863,2.3966,2.4167,2.4704,2.4959,2.5193,2.5459,2.6008,2.6874,0.0,2.8978,0.0,0.0,0.0,0.0,0.0,0.0,0.0,0.0,0.0,0.0,0.0,3.5874,3.5566,3.5967,3.5913,3.5752,3.54,3.5332,3.5098,3.4697,3.4639,3.4424,3.4104,3.4075,0.0,0.0,0.0,0.0,0.0,3.3386,3.3386,3.3386,3.3386,3.3386,3.3386,3.3386,3.3386,3.3386,3.3386,3.3386,3.3386,3.3386,3.3386,3.3386,3.3386,3.3386,3.3386,3.3386,3.3386,3.3386,3.3386,3.3386,3.3386,3.3386,3.3386,3.331,3.292,3.2842,3.2715,3.2325,3.2247,3.2237,3.2208,3.1855,3.1572,3.1542,3.123,3.0976,3.0947,3.125,3.1318,3.0928,3.124,3.1318,3.0928,3.0889,3.0889,3.0889,3.0889,3.0889,3.0889,3.0478,3.0234,3.0195,2.9385,2.8918,2.8889,2.8525,2.832,2.8291,2.8291,2.8291,0.0,0.0,2.5876,2.6477,2.6076,2.5419,0.0,2.4392,2.3757,2.3396,2.3675,2.4167,2.4704,2.4959,2.561,2.7195,2.7447,2.7664,2.8305,0.0,0.0,3.453,0.0,0.0,0.0,0.0,0.0,0.0,0.0,0.0,0.0,3.5674,3.5439,3.5537,3.5195,3.5127,3.5391,3.4759,3.4492,3.4687,3.4033,3.3848,3.4095,3.373,0.0,0.0,0.0,0.0,3.3386,3.3386,3.3386,3.3386,3.3386,3.3386,3.3386,3.3386,3.3386,3.3386,3.3386,3.3386,3.3386,3.3386,3.3386,3.3386,3.3386,3.3386,3.3386,3.3386,3.3386,3.3386,3.3386,3.3386,3.3386,3.3386,3.3386,3.3357,3.3269,3.3271,3.3144,3.2725,3.2646,3.2579,3.2257,3.2344,3.2383,3.206,3.1964,3.1748,3.1416,3.1172,3.0996,3.0898,3.0976,3.0996,3.0898,3.0889,3.0889,3.0889,3.0889,3.0889,3.0889,3.0781,3.0566,3.0205,2.9687,2.9248,2.8889,2.8818,2.8603,2.8291,2.8291,2.8291,2.1419,2.2749,2.4067,2.4352,2.4616,2.4653,2.4117,2.3791,2.3499,2.317,2.3358,2.3838,2.4653,2.4959,2.5512,2.6796,2.736,0.0,0.0,0.0,3.391,3.4959,0.0,0.0,0.0,0.0,0.0,0.0,0.0,0.0,0.0,3.5312,3.5078,3.5078,3.4443,3.4326,3.4785,3.4349,3.4082,3.4111,3.3643,3.3545,3.3769,3.3525,3.3386,0.0,0.0,0.0,3.3386,3.3386,3.3386,3.3386,3.3386,3.3386,3.3386,3.3386,3.3386,3.3386,3.3386,3.3386,3.3386,3.3386,3.3386,3.3386,3.3386,3.3386,3.3386,3.3386,3.3386,3.3386,3.3386,3.3386,3.3386,3.3386,3.3386,3.3386,3.3386,3.3386,3.335,3.3125,3.3086,3.3008,3.2783,3.2773,3.2715,3.2521,3.2325,3.212,3.1846,3.1787,3.1611,3.1221,3.1357,3.1318,3.0928,3.0889,3.0889,3.0889,3.0889,3.0889,3.0889,3.0889,3.0674,3.0205,2.9999,2.9551,2.8889,2.8889,2.8701,2.8291,2.8291,2.8291,2.0641,2.2374,2.3954,2.3791,2.4202,2.4528,2.3991,2.3474,2.3108,2.3108,2.317,2.3584,2.4716,2.4998,0.0,2.5966,0.0,0.0,3.0237,3.1755,3.3145,0.0,0.0,0.0,0.0,0.0,0.0,0.0,0.0,0.0,0.0,3.4853,3.46,3.46,3.3769,3.3535,3.3997,3.4007,3.3789,3.3386,3.3386,3.3386,3.3386,3.3386,3.3386,0.0,0.0,0.0,3.3386,3.3386,3.3386,3.3386,3.3386,3.3386,3.3386,3.3386,3.3386,3.3386,3.3386,3.3386,3.3386,3.3386,3.3386,3.3386,3.3386,3.3386,3.3386,3.3386,3.3386,3.3386,3.3386,3.3386,3.3386,3.3386,3.3386,3.3386,3.3386,3.3386,3.3386,3.3386,3.3386,3.3386,3.3386,3.3125,3.2891,3.2891,3.256,3.2296,3.2296,3.255,3.2393,3.1572,3.1846,3.1778,3.0957,3.0889,3.0889,3.0889,3.0889,3.0889,3.0889,3.0889,3.0703,3.0312,3.0303,2.9883,2.9023,2.9023,2.8769,2.8291,2.8291,2.8291,2.1093,2.2663,2.3766,2.2797,2.3351,2.3979,2.3371,2.317,2.3108,2.3108,2.3512,2.4192,2.5285,2.5185,2.5564,0.0,0.0,3.01,0.0,0.0,0.0,0.0,0.0,0.0,0.0,0.0,0.0,0.0,0.0,0.0,0.0,3.4404,3.4202,3.4202,3.334,3.3096,3.3516,3.3525,3.3455,3.3386,3.3386,3.3386,3.3386,3.3386,3.3386,0.0,0.0,3.3386,3.3386,3.3386,3.3386,3.3386,3.3386,3.3386,3.3386,3.3386,3.3386,3.3386,3.3386,3.3386,3.3386,3.3386,3.3386,3.3386,3.3386,3.3386,3.3386,3.3386,3.3386,3.3386,3.3386,3.3386,3.3386,3.3386,3.3386,3.3386,3.3386,3.3386,3.3386,3.3386,3.3386,3.3386,3.3386,3.3338,3.333,3.333,3.2969,3.2695,3.2695,3.2472,3.2101,3.1572,3.1542,3.1416,3.0928,3.0889,3.0889,3.0889,3.0889,3.0889,3.0889,3.0889,3.0859,3.0781,3.0781,3.0351,2.95,2.95,2.909,2.8291,2.8291,2.8291,2.0439,2.1807,2.3037,2.2797,2.4185,2.5469,2.4863,2.4644,2.4459,2.4054,2.4131,2.4468,2.5092,0.0,2.7644,3.0066,0.0,0.0,0.0,0.0,0.0,0.0,0.0,0.0,0.0,0.0,0.0,0.0,0.0,0.0,0.0,0.0,3.3889,3.3398,3.2998,3.2773,3.2744,3.2969,3.3086,3.3086,3.331,3.3301,3.3086,3.3289,3.3386,3.3386,0.0,3.3386,3.3377,3.3174,3.3086,3.2982,3.2232,3.1939,3.1872,3.1322,3.1621,3.2269,3.2269,3.2756,3.3386,3.3386,3.3386,3.3386,3.3386,3.3386,3.3386,3.3386,3.3386,3.3386,3.3386,3.3386,3.3386,3.3386,3.3386,3.3386,3.3386,3.3386,3.3386,3.3386,3.3386,3.3386,3.3386,3.3386,3.3386,3.3386,3.322,3.3135,3.3135,3.2969,3.2685,3.2256,3.2207,3.1943,3.1289,3.123,3.1133,3.0908,3.0889,3.0889,3.0889,3.0889,3.0889,3.0889,3.0889,3.0566,2.9931,2.9931,2.9618,2.9012,2.9012,2.8857,2.0125,2.1274,2.2545,2.3155,2.4816,2.6348,2.6529,2.5993,2.5471,2.5414,2.5269,2.5205,2.5302,2.7126,0.0,3.1264,0.0,0.0,0.0,0.0,0.0,0.0,0.0,0.0,0.0,0.0,0.0,0.0,0.0,0.0,0.0,0.0,3.3459,3.2666,3.2549,3.2393,3.2198,3.2383,3.2598,3.2803,3.3223,3.3203,3.2803,3.3125,3.3271,3.3271,3.3271,3.3271,3.3252,3.293,3.2597,3.2214,3.1113,3.056,3.0265,2.9462,2.9826,3.0725,3.1056,3.1845,3.2734,3.3165,3.3292,3.3292,3.3386,3.3386,3.3386,3.3292,3.3292,3.3292,3.3386,3.3323,3.3292,3.3292,3.3238,3.3206,3.327,3.3292,3.3301,3.3386,3.3386,3.3386,3.3386,3.3386,3.3386,3.3386,3.3386,3.3386,3.3386,3.3308,3.3154,3.2832,3.2715,3.2344,3.1582,3.1484,3.1338,3.0918,3.0889,3.0889,3.0889,3.0889,3.0889,3.0889,3.0889,3.0664,3.0195,3.0195,2.998,2.9598,2.9598,2.9422,2.1093,2.2018,2.2874,2.3713,2.4076,2.4863,2.7371,2.6154,2.5073,2.7074,2.734,2.7061,0.0,2.7939,2.9069,2.9142,0.0,0.0,0.0,0.0,0.0,0.0,0.0,0.0,0.0,0.0,0.0,0.0,0.0,0.0,0.0,0.0,0.0,3.2257,3.1826,3.1787,3.2198,3.1797,3.2012,3.2803,3.3223,3.3203,3.2793,3.2822,3.2842,3.2842,3.2842,3.2842,3.2842,3.2803,3.2018,3.0852,3.0726,3.0127,2.9311,2.9239,2.9084,2.9067,3.0387,3.071,3.0798,3.2425,3.2953,3.2985,3.3301,3.3386,3.3333,3.3016,3.2953,3.3016,3.3333,3.3175,3.2953,3.2953,3.2699,3.2549,3.2858,3.2953,3.3048,3.3333,3.3386,3.3386,3.3386,3.3386,3.3386,3.3386,3.3386,3.3386,3.3386,3.3076,3.2832,3.2803,3.2482,3.2021,3.1533,3.1484,3.1338,3.0918,3.0889,3.0889,3.0889,3.0889,3.0889,3.0889,3.0889,3.0664,3.0195,3.0195,2.998,2.9598,2.9598,2.9579,2.0326,2.167,2.3122,2.3822,2.4331,2.5347,2.784,2.7684,2.7273,2.8138,2.8729,0.0,0.0,0.0,2.9714,3.0668,0.0,0.0,0.0,0.0,0.0,0.0,0.0,0.0,0.0,0.0,0.0,0.0,0.0,0.0,0.0,0.0,0.0,3.1777,3.1572,3.1475,3.1407,3.1465,3.168,3.2002,3.2441,3.2422,3.2012,3.2285,3.2549,3.2783,3.255,3.2559,3.2692,3.1363,3.0383,2.9552,2.7809,2.6661,2.5984,2.5984,2.6437,2.7295,2.869,2.9663,3.054,3.2074,3.2581,3.2603,3.2731,3.2794,3.2762,3.2613,3.2581,3.2613,3.2762,3.2667,3.2581,3.2581,3.2476,3.2422,3.2571,3.2581,3.2635,3.2762,3.2794,3.2794,3.2794,3.2953,3.308,3.308,3.327,3.3386,3.3386,3.3281,3.3184,3.3184,3.2803,3.249,3.2324,3.1826,3.1455,3.1289,3.1035,3.0889,3.0889,3.0889,3.0889,3.0889,3.0889,3.0801,3.0635,3.0635,3.0547,3.0419,3.0419,3.0263,2.0075,2.1359,2.2885,2.3695,2.4711,2.6201,2.8904,2.8713,2.8242,2.9214,2.9388,2.9579,3.0389,0.0,0.0,0.0,0.0,0.0,0.0,0.0,0.0,0.0,0.0,0.0,0.0,0.0,0.0,0.0,0.0,0.0,0.0,0.0,0.0,0.0,3.1318,3.1182,3.0889,3.1172,3.1318,3.1318,3.1651,3.168,3.1494,3.1415,3.1745,3.2342,3.1239,3.1145,3.164,2.9632,2.8342,2.7424,2.5336,2.4184,2.3726,2.3923,2.4491,2.5331,2.6839,2.8188,2.9548,3.1092,3.1891,3.2262,3.2358,3.239,3.239,3.2262,3.223,3.223,3.2093,3.2166,3.223,3.223,3.2166,3.2093,3.223,3.223,3.2262,3.239,3.239,3.239,3.239,3.2581,3.2731,3.2731,3.2953,3.3111,3.3228,3.3121,3.3097,3.3191,3.3086,3.2891,3.2617,3.206,3.1611,3.1338,3.1055,3.0889,3.0889,3.0889,3.0889,3.0889,3.0889,3.0889,3.0889,3.0889,3.0889,3.0889,3.0889,3.0723,2.0679,2.1244,2.2112,2.3393,2.5077,2.7321,3.0723,2.8967,2.7453,3.0411,2.9266,2.8005,2.8937,2.8673,0.0,0.0,0.0,0.0,0.0,0.0,0.0,0.0,0.0,0.0,0.0,0.0,0.0,0.0,0.0,0.0,0.0,0.0,0.0,0.0,3.0889,3.0889,3.0889,3.0889,3.0889,3.0889,3.0889,3.1103,3.1454,3.0178,3.0298,3.1365,2.8735,2.8359,2.9465,2.7759,2.6056,2.4413,2.3725,2.3334,2.3145,2.3755,2.3553,2.3231,2.4898,2.6195,2.737,2.9198,3.0737,3.1951,3.2262,3.239,3.2326,3.1951,3.1887,3.1814,3.1474,3.1644,3.1878,3.1887,3.1644,3.1474,3.1814,3.1887,3.1983,3.2326,3.239,3.239,3.239,3.239,3.239,3.239,3.239,3.2517,3.2858,3.2565,3.243,3.2772,3.3174,3.3076,3.2276,3.2198,3.1827,3.0947,3.0889,3.0889,3.0889,3.0889,3.0889,3.0889,3.0889,3.0889,3.0889,3.0889,3.0889,3.0889,3.0889,3.0889,2.0175,2.1562,2.3313,2.4066,2.6364,2.8939,3.08,2.9873,2.9128,3.0926,2.983,2.8974,3.0438,0.0,0.0,0.0,0.0,0.0,0.0,0.0,0.0,0.0,0.0,0.0,0.0,0.0,0.0,0.0,0.0,0.0,0.0,0.0,0.0,0.0,3.0889,3.0889,3.0889,3.0889,3.0889,3.0889,3.0889,3.0957,3.1074,3.0682,3.0866,3.1375,2.9382,2.8929,2.9346,2.6251,2.414,2.2772,2.2322,2.2244,2.234,2.2517,2.2457,2.2522,2.401,2.4877,2.5751,2.8271,2.9537,3.0098,3.0186,3.0917,3.124,2.9108,2.9789,3.0934,3.0125,3.0319,3.0856,3.1409,3.1474,3.1442,3.1515,3.1548,3.158,3.1667,3.1699,3.1699,3.1699,3.1901,3.2047,3.2047,3.2262,3.2517,3.2858,3.3005,3.3107,3.3201,3.3086,3.2881,3.2627,3.206,3.1601,3.1348,3.1055,3.0889,3.0889,3.0889,3.0889,3.0889,3.0889,3.0889,3.0889,3.0889,3.0889,3.0889,3.0889,3.0889,2.0972,2.2403,2.4142,2.5544,2.769,2.9704,3.0689,3.0682,0.0,0.0,3.0119,2.9546,3.0711,3.0408,0.0,0.0,0.0,0.0,0.0,0.0,0.0,0.0,0.0,0.0,0.0,0.0,0.0,0.0,0.0,0.0,0.0,0.0,0.0,0.0,3.0791,3.0801,3.0615,3.0801,3.0889,3.0889,3.0889,3.0889,3.0889,3.0333,3.0536,3.1161,2.9039,2.788,2.7212,2.4425,2.3263,2.3177,2.2606,2.269,2.3153,2.2897,2.2716,2.2651,2.3102,2.3756,2.4663,2.6374,2.7465,2.81,2.81,2.8714,2.8995,2.7263,2.786,2.8879,2.8268,2.8749,2.9686,3.0897,3.1171,3.1171,3.1171,3.13,3.141,3.141,3.141,3.141,3.141,3.158,3.1717,3.1717,3.1974,3.2326,3.2676,3.2985,3.327,3.3396,3.3047,3.2725,3.2589,3.1914,3.1445,3.1279,3.1035,3.0889,3.0889,3.0889,3.0889,3.0889,3.0889,3.0889,3.0889,3.0889,3.0889,3.0889,3.0889,3.0889,2.2471,2.339,2.4595,2.7283,2.8931,3.0065,3.0611,3.1429,3.1817,3.0954,0.0,2.9833,3.0195,0.0,0.0,0.0,0.0,0.0,0.0,0.0,0.0,0.0,0.0,0.0,0.0,0.0,0.0,0.0,0.0,0.0,0.0,0.0,0.0,3.0156,3.0547,3.0586,3.0205,3.0576,3.0791,0.0,3.0791,3.0771,3.0713,2.9561,2.954,3.0313,2.7945,2.5821,2.3953,2.2598,2.3216,2.4903,2.3864,2.4079,2.4919,2.4198,2.3747,2.3329,2.2293,2.2795,2.3876,2.4005,2.4982,2.6088,2.6088,2.6184,2.6248,2.5992,2.6064,2.6208,2.6112,2.7002,2.8332,3.0099,3.0645,3.0745,3.0781,3.1107,3.1364,3.1401,3.141,3.141,3.141,3.141,3.141,3.141,3.1685,3.2015,3.2326,3.2635,3.2985,3.3292,3.2945,3.2547,3.2167,3.1728,3.1299,3.0918,3.0889,3.0889,3.0889,3.0889,3.0889,3.0889,3.0889,3.0889,3.0889,3.0889,3.0889,3.0889,3.0889,3.0889,2.2241,2.3013,2.4243,2.6878,2.9614,3.1654,3.1688,3.2144,3.2043,3.0253,3.0282,3.0664,0.0,0.0,0.0,0.0,0.0,0.0,0.0,0.0,0.0,0.0,0.0,0.0,0.0,0.0,0.0,0.0,0.0,0.0,0.0,0.0,0.0,2.9735,2.9833,2.9989,3.0195,2.9999,3.0048,0.0,3.0038,2.9741,2.9515,2.99,2.8959,2.7017,2.6451,2.5254,2.3605,2.2254,2.2997,2.4879,2.3649,2.3937,2.4856,2.3707,2.3245,2.2998,2.174,2.1668,2.2316,2.342,2.4134,2.456,2.456,2.5391,2.5832,2.3562,2.4334,2.5628,2.4783,2.5123,2.614,2.7878,2.9315,3.0415,3.0717,3.0855,3.1011,3.1355,3.141,3.141,3.141,3.141,3.141,3.141,3.1685,3.1919,3.2015,3.2294,3.2549,3.2613,3.2155,3.1828,3.1732,3.1306,3.0986,3.0898,3.0889,3.0889,3.0889,3.0889,3.0889,3.0889,3.0889,3.0889,3.0889,3.0889,3.0889,3.0889,3.0889,3.0889,2.2528,2.3415,2.468,2.7346,2.9748,3.1369,3.117,3.1188,3.095,3.0063,3.0439,3.0889,0.0,0.0,0.0,0.0,0.0,0.0,0.0,0.0,0.0,0.0,0.0,0.0,0.0,0.0,0.0,0.0,0.0,0.0,0.0,2.9598,2.95,2.9258,2.9491,2.958,2.959,2.958,2.9706,2.9921,2.9537,2.9122,2.8691,2.9298,2.8529,2.6671,2.6671,2.6201,2.5362,2.4046,2.4871,2.6801,2.5476,2.5354,2.579,2.4494,2.3628,2.292,2.1569,2.1209,2.1464,2.2215,2.2543,2.2669,2.2669,2.3206,2.3486,2.2008,2.2493,2.3376,2.2819,2.3364,2.4324,2.5239,2.7247,2.9189,3.0034,3.0547,3.0846,3.1057,3.1281,3.141,3.141,3.1254,3.1189,3.1382,3.1382,3.1495,3.1859,3.2047,3.223,3.239,3.1798,3.1417,3.1417,3.0951,3.0674,3.0674,3.0801,3.0889,3.0889,3.0889,3.0889,3.0889,3.0889,3.0889,3.0889,3.0889,3.0889,3.0889,3.0889,3.0889,2.292,2.407,2.5328,2.7696,2.9219,3.0072,3.0,2.9766,2.9696,3.0048,3.0449,0.0,0.0,0.0,0.0,0.0,0.0,0.0,0.0,0.0,0.0,0.0,0.0,0.0,0.0,0.0,0.0,0.0,0.0,0.0,2.9383,2.9383,2.9207,2.8818,2.916,2.9209,2.8889,2.9209,2.9412,2.9481,2.9023,2.852,2.8014,2.8239,2.7887,2.7126,2.7126,2.7199,2.7198,2.5929,2.6819,2.8856,2.7504,2.7142,2.7142,2.5576,2.434,2.3201,2.1632,2.1109,2.1109,2.1109,2.1109,2.1109,2.1109,2.1109,2.1109,2.1109,2.1109,2.1109,2.1109,2.1908,2.2796,2.3038,2.5014,2.7268,2.8896,2.9785,3.0365,3.0732,3.1112,3.141,3.141,3.1102,3.1033,3.1364,3.1134,3.1106,3.1744,3.1814,3.191,3.2189,3.1571,3.1101,3.1101,3.0664,3.0382,3.0382,3.0704,3.0889,3.0889,3.0889,3.0889,3.0889,3.0889,3.0889,3.0889,3.0889,3.0889,3.0889,3.0889,3.0889,2.2991,2.4457,2.5658,2.651,2.7404,2.8259,2.8924,0.0,2.9618,0.0,0.0,0.0,0.0,0.0,0.0,0.0,0.0,0.0,0.0,0.0,0.0,0.0,0.0,0.0,0.0,0.0,0.0,0.0,0.0,0.0,2.8486,2.8457,2.8437,2.8379,2.8428,2.8603,2.8889,2.8613,2.8643,2.8976,2.8063,2.7457,2.7157,2.6984,2.6565,2.6009,2.6009,2.6224,2.6448,2.5098,2.6316,2.8856,2.7504,2.7723,2.843,2.5912,2.4902,2.4409,2.194,2.1109,2.1109,2.1109,2.1109,2.1109,2.1109,2.1109,2.1109,2.1109,2.1109,2.1109,2.1109,2.1229,2.1664,2.2827,2.3417,2.4479,2.7277,2.7955,2.8583,3.0455,3.1112,3.141,3.141,3.1364,3.1355,3.1401,3.1364,3.1355,3.1433,3.1474,3.1474,3.1538,3.107,3.0772,3.0772,3.0545,3.0382,3.0382,3.0704,3.0889,3.0889,3.0889,3.0889,3.0889,3.0889,3.0889,3.0889,3.0889,3.0889,3.0889,3.0889,3.0889,2.3797,2.4824,2.5508,2.6527,2.6889,2.7194,2.8054,2.8396,2.8601,2.8836,0.0,0.0,0.0,0.0,0.0,0.0,0.0,0.0,0.0,0.0,0.0,0.0,0.0,0.0,0.0,0.0,0.0,0.0,0.0,2.8486,2.8301,2.8291,2.8291,2.8291,2.8093,2.8171,2.8564,2.8144,2.7995,2.805,2.7453,2.7053,2.6763,2.6636,2.6581,2.6588,2.6588,2.6811,2.7129,2.6539,2.709,2.8295,2.7927,2.722,2.6324,2.5343,2.407,2.2654,2.1513,2.1109,2.1109,2.1109,2.1109,2.1109,2.1109,2.1109,2.1109,2.1109,2.1109,2.1109,2.1109,2.1109,2.126,2.1846,2.1971,2.2557,2.4618,2.5864,2.7169,2.9263,3.0433,3.1153,3.1373,3.1194,3.1153,3.1382,3.1226,3.1047,3.1047,3.1272,3.1327,3.1107,3.069,3.0504,3.068,3.0225,3.003,3.0382,3.0538,3.0704,3.0889,3.0889,3.0889,3.0889,3.0889,3.0889,3.0889,3.0889,3.0889,3.0889,3.0889,3.0889,2.3775,2.4235,2.4571,2.5902,2.6002,2.604,0.0,0.0,2.7487,0.0,0.0,0.0,0.0,0.0,0.0,0.0,0.0,0.0,0.0,0.0,0.0,0.0,0.0,0.0,0.0,0.0,0.0,0.0,0.0,2.8086,2.7978,2.7969,2.7969,2.7969,2.7692,2.7673,2.7969,2.7604,2.729,2.6985,2.6892,2.6714,2.6462,2.6536,2.6747,2.7059,2.7059,2.7279,2.7646,2.7646,2.7701,2.7792,2.7777,2.6575,2.477,2.4418,2.305,2.1344,2.0976,2.0935,2.1002,2.1002,2.1049,2.1109,2.1109,2.1109,2.1109,2.1109,2.1109,2.1109,2.1109,2.1109,2.1109,2.1109,2.1109,2.1475,2.2796,2.4454,2.6171,2.7694,2.917,3.0244,3.0533,3.0606,3.0745,3.1038,3.0827,3.0644,3.0644,3.1015,3.1075,3.0681,3.0378,3.0251,3.0408,2.992,2.9795,3.0236,3.0421,3.0635,3.0889,3.0889,3.0889,3.0889,3.0889,3.0889,3.0889,3.0889,3.0889,3.0889,3.0889,3.0889,2.194,2.1961,2.2435,2.3588,2.3903,2.4388,0.0,0.0,0.0,0.0,0.0,0.0,0.0,0.0,0.0,0.0,0.0,0.0,0.0,0.0,0.0,0.0,0.0,0.0,0.0,0.0,0.0,0.0,0.0,2.7545,2.71,2.708,2.708,2.708,2.706,2.706,2.708,2.6795,2.6409,2.5888,2.627,2.6288,2.6031,2.6435,2.66,2.6619,2.6619,2.6875,2.7233,2.7233,2.7454,2.7679,2.6553,2.6024,2.5618,2.3219,2.2251,2.1959,2.0692,2.0461,2.0733,2.0733,2.0882,2.1109,2.1109,2.1109,2.1109,2.1109,2.1109,2.1109,2.1109,2.1109,2.1109,2.1109,2.1109,2.1475,2.2796,2.4454,2.5744,2.5847,2.72,2.8343,2.8369,2.9413,3.0241,3.0259,3.0241,3.0231,3.0231,3.0571,3.0671,3.0277,3.0213,3.0039,2.9696,2.9781,2.9892,2.9922,3.0528,3.0889,3.0889,3.0889,3.0889,3.0889,3.0889,3.0889,3.0889,3.0889,3.0889,3.0889,3.0889,3.0889,2.3369,2.3094,2.2953,2.4023,2.4463,2.4668,2.4784,2.5625,2.6358,0.0,0.0,0.0,0.0,0.0,0.0,0.0,0.0,0.0,0.0,0.0,0.0,0.0,0.0,0.0,0.0,0.0,0.0,0.0,0.0,0.0,2.7021,2.6986,2.6986,2.6986,2.6758,2.6611,2.6611,2.6433,2.6259,2.6053,2.5849,2.5714,2.5609,2.5765,2.5829,2.5829,2.5829,2.6215,2.6756,2.626,2.5991,2.5835,2.5406,2.44,2.3086,2.2453,2.1646,2.0849,2.0379,2.027,2.0421,2.0646,2.0742,2.0869,2.1049,2.1109,2.1109,2.1109,2.1109,2.1109,2.1109,2.1109,2.1109,2.1109,2.1109,2.1229,2.172,2.2984,2.4126,2.4377,2.6271,2.7883,2.8172,2.9306,3.0204,3.0204,3.0204,3.0103,2.9868,3.0158,3.025,2.9868,2.9791,2.9828,2.9902,2.9752,2.9804,3.0216,3.045,3.0674,3.0889,3.0889,3.0889,3.0889,3.0889,3.0889,3.0889,3.0889,3.0889,3.0889,3.0889,3.0889,2.3615,2.3352,2.3115,2.4016,2.4141,2.3992,2.379,0.0,2.5305,0.0,0.0,0.0,0.0,0.0,0.0,0.0,0.0,0.0,0.0,0.0,0.0,0.0,0.0,0.0,0.0,0.0,0.0,0.0,0.0,0.0,2.6367,2.6357,2.6357,2.6357,2.6029,2.5785,2.5711,2.5515,2.5471,2.5527,2.5164,2.5058,2.5205,2.5333,2.5398,2.5362,2.4844,2.5222,2.6169,2.5618,2.5031,2.4401,2.4118,2.2878,2.1278,2.1276,2.0701,1.994,1.994,1.9977,2.009,2.0321,2.0514,2.0746,2.0909,2.1036,2.1109,2.1109,2.1109,2.1109,2.1109,2.1109,2.1109,2.1109,2.1109,2.1109,2.1109,2.179,2.2492,2.2775,2.4586,2.63,2.7,2.8249,2.9283,2.973,2.9791,2.969,2.9436,2.9767,2.9828,2.9445,2.9519,2.9646,2.9737,2.9667,2.9804,3.0216,3.0421,3.0665,3.0889,3.0889,3.0889,3.0889,3.0889,3.0889,3.0889,3.0889,3.0889,3.0889,3.0889,3.0889,0.0,0.0,0.0,2.3331,0.0,0.0,2.3135,0.0,2.3408,0.0,0.0,0.0,0.0,0.0,0.0,0.0,0.0,0.0,0.0,0.0,0.0,0.0,0.0,0.0,0.0,0.0,0.0,0.0,0.0,2.5484,2.5092,2.5072,2.5072,2.5072,2.4831,2.4555,2.4283,2.4019,2.3973,2.4165,2.4165,2.4385,2.4764,2.515,2.5307,2.5211,2.3703,2.3894,2.5283,2.5283,2.4613,2.3524,2.2657,2.1627,2.0532,1.9699,1.9388,1.9395,1.9395,1.9582,1.9786,1.98,2.0187,2.0679,2.0692,2.0862,2.1082,2.1082,2.1082,2.1082,2.1096,2.1102,2.1109,2.1109,2.1109,2.1109,2.1109,2.1109,2.1109,2.1109,2.2184,2.3473,2.4748,2.6064,2.7383,2.8737,2.8955,2.8955,2.8984,2.9344,2.9436,2.9051,2.9354,2.9427,2.9042,2.9538,2.9892,2.9892,3.0528,3.0889,3.0889,3.0889,3.0889,3.0889,3.0889,3.0889,3.0889,3.0889,3.0889,3.0889,3.0889,3.0889,2.4031,0.0,0.0,0.0,0.0,0.0,0.0,0.0,0.0,0.0,0.0,0.0,0.0,0.0,0.0,0.0,0.0,0.0,0.0,0.0,0.0,0.0,0.0,0.0,0.0,0.0,0.0,0.0,2.483,2.4703,2.4609,2.459,2.453,2.4376,2.4306,2.4143,2.3876,2.3594,2.3475,2.3548,2.3353,2.3321,2.344,2.355,2.3327,2.284,2.2428,2.219,2.2134,2.2134,2.1788,2.119,2.0653,2.0028,1.9371,1.9125,1.9185,1.9395,1.9395,1.9448,1.9548,1.9733,1.9907,2.008,2.0294,2.0384,2.0444,2.0444,2.0444,2.0497,2.0742,2.0949,2.1109,2.1109,2.1109,2.1109,2.1109,2.1109,2.1109,2.1109,2.2184,2.3193,2.3566,2.471,2.6003,2.7353,2.7534,2.7903,2.8895,2.9106,2.9133,2.9023,2.9106,2.9133,2.9023,2.9538,2.9892,2.9892,3.0528,3.0889,3.0889,3.0889,3.0889,3.0889,3.0889,3.0889,3.0889,3.0889,3.0889,3.0889,3.0889,3.0889,2.4302,2.439,2.4268,0.0,0.0,0.0,2.1937,2.248,0.0,0.0,0.0,0.0,0.0,0.0,0.0,0.0,0.0,0.0,0.0,0.0,0.0,0.0,0.0,0.0,0.0,0.0,0.0,2.4391,2.4248,2.415,2.415,2.3962,2.3829,2.3807,2.3702,2.3532,2.3278,2.3024,2.2968,2.3121,2.2791,2.2739,2.2904,2.2904,2.2467,2.1713,2.1234,2.0588,1.9835,1.949,1.9546,1.9825,1.974,1.9314,1.8758,1.885,1.9112,1.9395,1.9395,1.9395,1.9428,1.9566,1.97,1.9833,2.0,2.0104,2.0204,2.0204,2.0204,2.0244,2.0448,2.0615,2.0711,2.0711,2.0842,2.0929,2.0929,2.1022,2.1109,2.1109,2.1727,2.2428,2.3014,2.3721,2.4648,2.5973,2.6164,2.665,2.7993,2.8152,2.837,2.8955,2.9014,2.9014,2.9014,2.945,2.9774,2.9892,3.0401,3.0762,3.0889,3.0889,3.0889,3.0889,3.0889,3.0791,3.0605,3.0801,3.0791,3.0596,3.0449,3.037,2.4117,2.4582,2.4954,0.0,0.0,0.0,2.2622,2.24,2.2204,0.0,0.0,0.0,0.0,0.0,0.0,0.0,0.0,0.0,0.0,0.0,0.0,0.0,0.0,0.0,2.4254,2.4254,2.4254,2.4254,2.3926,2.3721,2.3721,2.3305,2.3134,2.3265,2.3049,2.28,2.2582,2.2354,2.24,2.2767,2.2391,2.2364,2.2602,2.2602,2.2037,2.1033,2.0031,1.9059,1.8158,1.7445,1.7881,1.8998,1.935,1.9044,1.847,1.8696,1.9011,1.9301,1.9301,1.9301,1.9301,1.9301,1.9475,1.9659,1.9693,1.988,2.0064,2.0097,2.013,2.0157,2.0157,2.0177,2.0204,2.0204,2.0434,2.0628,2.0628,2.0828,2.1009,2.1009,2.1062,2.1481,2.2678,2.2889,2.3356,2.4779,2.4994,2.5546,2.7021,2.7233,2.7693,2.8856,2.9014,2.9014,2.9014,2.9302,2.9597,2.9833,3.0157,3.048,3.083,3.083,3.0859,3.0889,3.0889,3.0664,3.0195,3.0615,3.0576,3.0117,2.9774,2.9598,0.0,0.0,0.0,0.0,0.0,0.0,2.277,2.2795,2.2792,0.0,0.0,0.0,0.0,0.0,0.0,0.0,0.0,0.0,0.0,0.0,0.0,0.0,0.0,0.0,2.3344,2.3344,2.3344,2.3344,2.3266,2.324,2.324,2.2996,2.2788,2.2599,2.2387,2.2141,2.1895,2.1851,2.1874,2.1925,2.1842,2.145,2.08,2.08,1.9971,1.8498,1.8282,1.775,1.7032,1.6867,1.7113,1.7616,1.789,1.8043,1.8109,1.8149,1.839,1.8692,1.8692,1.8692,1.8692,1.8692,1.8698,1.8791,1.9025,1.9103,1.9203,1.9472,1.97,1.9887,1.9887,2.0024,2.0204,2.0204,2.0244,2.029,2.029,2.0337,2.0377,2.0377,2.0782,2.1166,2.1443,2.1475,2.2285,2.4656,2.4994,2.5882,2.831,2.8618,2.8707,2.8984,2.9014,2.9014,2.9014,2.9302,2.9529,2.9558,2.9833,3.0157,3.048,3.0509,3.0606,3.0889,3.0889,3.0664,3.0195,3.0293,3.0107,2.9715,2.9637,2.9598,0.0,0.0,0.0,2.5335,0.0,0.0,0.0,2.3107,2.3054,0.0,0.0,0.0,0.0,0.0,0.0,0.0,0.0,0.0,0.0,0.0,0.0,0.0,0.0,0.0,2.2488,2.2684,2.2888,2.3081,2.3013,2.2947,2.2947,2.2728,2.2485,2.2274,2.2163,2.1963,2.1696,2.1696,2.1696,2.1696,2.1696,2.1199,2.0294,2.0294,1.9298,1.7551,1.7551,1.7064,1.6255,1.6433,1.6605,1.6779,1.722,1.7549,1.7836,1.7949,1.8196,1.849,1.849,1.849,1.849,1.849,1.849,1.8544,1.881,1.9025,1.9172,1.9354,1.9502,1.9615,1.9615,1.9693,1.98,1.98,1.9913,1.9983,1.9983,2.0104,2.0204,2.0204,2.0437,2.0691,2.0869,2.1009,2.1544,2.2865,2.2952,2.3633,2.5788,2.5899,2.637,2.7855,2.8002,2.8271,2.8955,2.9153,2.9331,2.9479,2.9401,2.958,3.0074,2.9872,2.991,3.0263,3.0263,3.001,2.956,2.956,2.9453,2.9238,2.9061,2.8963,0.0,0.0,0.0,0.0,0.0,2.5004,0.0,0.0,0.0,0.0,0.0,0.0,0.0,0.0,0.0,0.0,0.0,0.0,0.0,0.0,0.0,0.0,0.0,0.0,0.0,2.2119,2.242,2.284,2.2628,2.257,2.2734,2.245,2.2246,2.2154,2.2074,2.1919,2.1696,2.1696,2.1696,2.1696,2.153,2.0921,1.9999,1.9818,1.8719,1.7005,1.7005,1.6558,1.5821,1.6086,1.621,1.627,1.6859,1.7234,1.7442,1.7669,1.7949,1.8264,1.8264,1.827,1.8317,1.8317,1.8357,1.845,1.8656,1.8965,1.9241,1.9294,1.9308,1.9321,1.9381,1.9395,1.9395,1.9395,1.9575,1.972,1.972,1.99,2.0037,2.0037,2.0077,2.0241,2.0541,2.0788,2.0998,2.1273,2.1132,2.155,2.3103,2.3079,2.383,2.6216,2.646,2.6978,2.8323,2.8412,2.8685,2.924,2.885,2.8953,2.968,2.9391,2.9318,2.9598,2.9598,2.9355,2.8889,2.8889,2.885,2.8789,2.8447,2.8291,0.0,0.0,0.0,0.0,2.4999,0.0,0.0,0.0,0.0,0.0,0.0,0.0,0.0,0.0,0.0,0.0,0.0,0.0,0.0,0.0,0.0,0.0,0.0,0.0,0.0,2.1582,2.1542,2.1992,2.1629,2.1725,2.2485,2.2117,2.2019,2.2366,2.1954,2.1731,2.1696,2.1696,2.1696,2.1687,2.0853,1.9931,1.8949,1.8056,1.7044,1.5967,1.5967,1.5903,1.5808,1.5841,1.5855,1.5915,1.6526,1.6774,1.6807,1.6847,1.7073,1.7353,1.7353,1.7495,1.7709,1.7709,1.7876,1.8049,1.8082,1.835,1.8644,1.8905,1.895,1.9038,1.9328,1.9395,1.9395,1.9395,1.9421,1.9448,1.9448,1.9475,1.9495,1.9495,1.9673,1.994,2.0204,2.0277,2.0716,2.1904,2.2048,2.2535,2.3903,2.4049,2.4159,2.4464,2.4531,2.5001,2.6244,2.6331,2.6961,2.8434,2.8154,2.8347,2.9326,2.9466,2.957,2.9598,2.9598,2.9355,2.8889,2.8889,2.873,2.8359,2.831,2.8291,0.0,0.0,0.0,0.0,0.0,0.0,2.406,0.0,2.4143,0.0,0.0,0.0,0.0,0.0,0.0,0.0,0.0,0.0,0.0,0.0,0.0,0.0,0.0,0.0,0.0,0.0,0.0,0.0,2.1362,2.128,2.19,2.1478,2.129,2.1467,2.1398,2.1352,2.1352,2.1568,2.1696,2.1687,2.0741,1.9772,1.8773,1.7761,1.6739,1.5808,1.5808,1.5808,1.5808,1.5808,1.5808,1.5828,1.6075,1.6299,1.6498,1.6647,1.678,1.6919,1.6919,1.6967,1.7101,1.7301,1.7655,1.7989,1.8002,1.8216,1.8517,1.8637,1.8671,1.8698,1.8824,1.8985,1.9072,1.8898,1.9147,1.9348,1.9145,1.9274,1.9395,1.9395,1.9495,1.9586,1.9713,1.9977,2.0379,2.0939,2.0907,2.1059,2.1797,2.1749,2.1994,2.2951,2.3675,2.4615,2.5874,2.6641,2.7333,2.8022,2.7816,2.7763,2.7967,2.8368,2.86,2.86,2.8774,2.874,2.8555,2.8555,2.8467,2.8291,2.8291,2.8291,2.4581,0.0,0.0,0.0,0.0,0.0,0.0,0.0,0.0,0.0,0.0,0.0,0.0,0.0,0.0,0.0,0.0,0.0,0.0,0.0,0.0,0.0,0.0,0.0,0.0,0.0,0.0,2.1299,2.0798,2.0738,2.1373,2.1,2.0789,2.0901,2.0924,2.0998,2.1108,2.1388,2.1599,2.1696,2.0461,1.9498,1.8765,1.7482,1.648,1.5808,1.5808,1.5808,1.5808,1.5808,1.5808,1.5808,1.5808,1.5941,1.6203,1.6386,1.6513,1.6587,1.6587,1.664,1.674,1.6979,1.7375,1.7776,1.7782,1.7996,1.8257,1.8343,1.837,1.8384,1.847,1.8644,1.8751,1.8544,1.8846,1.9093,1.8851,1.8971,1.918,1.9261,1.9207,1.9207,1.9368,1.972,1.9993,1.9993,1.982,1.976,1.9967,1.9813,2.0137,2.1308,2.2494,2.3742,2.5087,2.6276,2.7116,2.7444,2.7558,2.7409,2.7035,2.7503,2.7799,2.7906,2.8094,2.8237,2.8291,2.8291,2.8291,2.8291,2.8291,2.8291,0.0,0.0,0.0,2.3206,0.0,0.0,0.0,0.0,2.4584,0.0,0.0,0.0,0.0,0.0,2.2637,2.0679,2.0735,0.0,0.0,0.0,0.0,0.0,0.0,0.0,0.0,0.0,0.0,1.9893,1.959,1.9893,2.1142,2.0817,2.0775,2.1163,2.0761,2.0701,2.1099,2.1095,2.1306,2.1674,1.9758,1.8842,1.8719,1.6756,1.5832,1.5808,1.5808,1.5808,1.5808,1.5808,1.5808,1.5808,1.5808,1.5815,1.5821,1.5828,1.6039,1.631,1.631,1.6473,1.6707,1.6714,1.6953,1.7233,1.7233,1.7408,1.7675,1.7949,1.8009,1.8103,1.8417,1.8497,1.8504,1.8497,1.8504,1.8517,1.8532,1.851,1.8604,1.8856,1.8711,1.8698,1.9301,1.9408,1.9428,1.9428,1.9421,1.9415,1.9421,1.9415,1.9444,1.9479,2.0557,2.1767,2.2978,2.4192,2.5375,2.6564,2.7253,2.7409,2.7035,2.7269,2.7566,2.7906,2.7906,2.804,2.8291,2.8291,2.8291,2.8291,2.8291,2.8291,0.0,0.0,2.3613,2.312,0.0,0.0,0.0,0.0,0.0,0.0,0.0,0.0,0.0,0.0,2.2867,2.1511,2.1761,2.1947,0.0,0.0,0.0,0.0,0.0,0.0,0.0,0.0,0.0,1.9955,1.9584,1.96,2.0303,2.0381,2.0375,2.0338,2.0307,2.0306,2.0308,2.0821,2.1181,2.1275,1.9587,1.8788,1.8719,1.6709,1.5808,1.5808,1.5808,1.5808,1.5808,1.5808,1.5808,1.5808,1.5808,1.5808,1.5808,1.5808,1.5868,1.5979,1.5979,1.6172,1.6444,1.6444,1.6645,1.6879,1.6879,1.7086,1.7347,1.7448,1.7589,1.7762,1.7862,1.8043,1.8116,1.7936,1.8196,1.8437,1.8209,1.835,1.8517,1.8617,1.8718,1.8996,1.9731,2.004,1.9997,1.9477,1.9395,1.9395,1.9395,2.0104,2.0579,2.0579,2.2389,2.374,2.4167,2.5293,2.6163,2.6555,2.682,2.6966,2.6999,2.726,2.7566,2.7906,2.8067,2.8211,2.8291,2.8291,2.8291,2.8291,2.8291,2.8291,2.2859,2.2984,0.0,2.3091,2.3054,0.0,2.2734,0.0,0.0,0.0,0.0,0.0,0.0,0.0,2.2996,2.209,2.2364,2.2449,0.0,2.1392,0.0,0.0,0.0,0.0,0.0,0.0,1.9109,2.0165,1.967,1.9507,0.0,0.0,1.9936,1.9902,1.9878,1.9891,1.9914,2.0408,2.0653,2.0586,1.9216,1.847,1.8218,1.6551,1.5808,1.5808,1.5808,1.5808,1.5808,1.5808,1.5808,1.5808,1.5808,1.5808,1.5808,1.5808,1.5808,1.5808,1.5808,1.5928,1.6112,1.6112,1.6313,1.6573,1.6673,1.6939,1.7226,1.7326,1.7468,1.7608,1.7608,1.7736,1.7802,1.7629,1.7909,1.8116,1.7896,1.8036,1.8196,1.831,1.839,1.8802,1.9913,2.0212,2.032,2.0458,2.0466,2.0509,2.0651,2.1374,2.1851,2.1851,2.3628,2.4981,2.5404,2.6163,2.6591,2.6591,2.6591,2.6691,2.6836,2.7026,2.7399,2.7975,2.7993,2.8077,2.8291,2.8291,2.8223,2.8103,2.8223,2.8213]},{"header":{"parameterUnit":"m.s-1","parameterCategory":1,"la1":30.6,"la2":29.2853,"lo1":-89.7004,"lo2":-87.6739,"dy":0.0162,"dx":0.0183,"nx":112,"ny":82,"refTime":"2023-03-05T06:00:00:Z","depth":0,"parameterNumber":3,"parameterNumberName":"V-component_of_WINDS"},"data":[0.0,0.0,0.0,0.0,0.0,0.0,0.0,0.0,0.0,0.0,0.0,0.0,0.0,0.0,0.0,0.0,0.0,0.0,0.0,0.0,0.0,0.0,0.0,0.0,0.0,0.0,0.0,0.0,0.0,0.0,0.0,0.0,0.0,0.0,0.0,0.0,0.0,0.0,0.0,0.0,0.0,0.0,0.0,0.0,0.0,0.0,0.0,0.0,0.0,0.0,0.0,0.0,0.0,0.0,0.0,0.0,0.0,0.0,0.0,0.0,0.0,0.0,0.0,0.0,0.0,0.0,0.0,0.0,0.0,0.0,0.0,0.0,0.0,0.0,0.0,0.0,0.0,0.0,0.0,0.0,0.0,0.0,0.0,0.0,0.0,0.0,0.0,0.0,0.0,0.0,0.0,2.1422,2.7085,3.0621,3.0656,3.1107,3.0502,2.8403,0.0,0.0,0.0,0.0,0.0,0.0,0.0,0.0,0.0,0.0,0.0,0.0,0.0,0.0,0.0,0.0,0.0,0.0,0.0,0.0,0.0,0.0,0.0,0.0,0.0,0.0,0.0,0.0,0.0,0.0,0.0,0.0,0.0,0.0,0.0,0.0,0.0,0.0,0.0,0.0,0.0,0.0,0.0,0.0,0.0,0.0,0.0,0.0,0.0,0.0,0.0,0.0,0.0,0.0,0.0,0.0,0.0,0.0,0.0,0.0,0.0,0.0,0.0,0.0,0.0,0.0,0.0,0.0,0.0,0.0,0.0,0.0,0.0,0.0,0.0,0.0,0.0,0.0,0.0,0.0,0.0,0.0,0.0,0.0,0.0,0.0,0.0,0.0,0.0,0.0,0.0,0.0,0.0,0.0,0.0,0.0,0.0,0.0,0.0,0.0,0.0,0.0,0.0,0.0,2.037,2.5957,2.9578,3.1902,3.2678,3.1609,3.0749,3.0366,0.0,0.0,0.0,0.0,0.0,0.0,0.0,0.0,0.0,0.0,0.0,0.0,0.0,0.0,0.0,0.0,0.0,0.0,0.0,0.0,0.0,0.0,0.0,0.0,0.0,0.0,0.0,0.0,0.0,0.0,0.0,0.0,0.0,0.0,0.0,0.0,0.0,0.0,0.0,0.0,0.0,0.0,0.0,0.0,0.0,0.0,0.0,0.0,0.0,0.0,0.0,0.0,0.0,0.0,0.0,0.0,0.0,0.0,0.0,0.0,0.0,0.0,0.0,0.0,0.0,0.0,0.0,0.0,0.0,0.0,0.0,0.0,0.0,0.0,0.0,0.0,0.0,0.0,0.0,0.0,0.0,0.0,0.0,0.0,0.0,0.0,0.0,0.0,0.0,0.0,0.0,0.0,0.0,0.0,0.0,0.0,0.0,0.0,0.0,0.0,0.0,0.0,0.0,1.955,2.3091,2.8094,3.0619,3.2212,3.2879,3.2047,3.1231,3.063,2.9522,0.0,0.0,0.0,0.0,0.0,0.0,0.0,0.0,0.0,0.0,0.0,0.0,0.0,0.0,0.0,0.0,0.0,0.0,0.0,0.0,0.0,0.0,0.0,0.0,0.0,0.0,0.0,0.0,0.0,0.0,0.0,0.0,0.0,0.0,0.0,0.0,0.0,0.0,0.0,0.0,0.0,0.0,0.0,0.0,0.0,0.0,0.0,0.0,0.0,0.0,0.0,0.0,0.0,0.0,0.0,0.0,0.0,0.0,0.0,0.0,0.0,0.0,0.0,0.0,0.0,0.0,0.0,0.0,0.0,0.0,0.0,0.0,0.0,0.0,0.0,0.0,0.0,0.0,0.0,0.0,0.0,0.0,0.0,0.0,0.0,0.0,0.0,0.0,0.0,0.0,0.0,0.0,0.0,0.0,0.0,0.0,0.0,0.0,0.0,0.0,0.0,0.0,2.3055,2.5407,2.9595,3.1473,3.2562,3.292,3.2292,3.1442,3.037,2.9195,0.0,0.0,0.0,0.0,0.0,0.0,0.0,0.0,0.0,0.0,0.0,0.0,0.0,0.0,0.0,0.0,0.0,0.0,0.0,0.0,0.0,0.0,0.0,0.0,0.0,0.0,0.0,0.0,0.0,0.0,0.0,0.0,0.0,0.0,0.0,0.0,0.0,0.0,0.0,0.0,0.0,0.0,0.0,0.0,0.0,0.0,0.0,0.0,0.0,0.0,0.0,0.0,0.0,0.0,0.0,0.0,0.0,0.0,0.0,0.0,0.0,0.0,0.0,0.0,0.0,0.0,0.0,0.0,0.0,0.0,0.0,0.0,0.0,0.0,0.0,0.0,0.0,0.0,0.0,0.0,0.0,0.0,0.0,0.0,0.0,0.0,0.0,0.0,0.0,0.0,0.0,0.0,0.0,0.0,0.0,0.0,0.0,0.0,0.0,0.0,0.0,0.0,2.4279,2.6696,3.1152,3.2692,3.3494,3.3708,3.2211,3.0908,3.0087,2.8199,0.0,0.0,0.0,0.0,0.0,0.0,0.0,0.0,0.0,0.0,0.0,0.0,0.0,0.0,0.0,0.0,0.0,0.0,0.0,0.0,0.0,0.0,0.0,0.0,0.0,0.0,0.0,0.0,0.0,0.0,0.0,0.0,0.0,0.0,0.0,0.0,0.0,0.0,0.0,0.0,0.0,0.0,0.0,0.0,0.0,0.0,0.0,0.0,0.0,0.0,0.0,0.0,0.0,0.0,0.0,0.0,0.0,0.0,0.0,0.0,0.0,0.0,0.0,0.0,0.0,0.0,0.0,0.0,0.0,0.0,0.0,0.0,0.0,0.0,0.0,0.0,0.0,0.0,0.0,0.0,0.0,0.0,0.0,0.0,0.0,0.0,0.0,0.0,0.0,0.0,0.0,0.0,0.0,0.0,0.0,0.0,0.0,0.0,0.0,0.0,0.0,0.0,2.5816,2.8403,0.0,3.292,3.3716,3.3793,3.2657,3.1827,3.1527,0.0,0.0,0.0,0.0,0.0,0.0,0.0,0.0,0.0,0.0,0.0,0.0,0.0,0.0,0.0,0.0,0.0,0.0,0.0,0.0,0.0,0.0,0.0,0.0,0.0,0.0,0.0,0.0,0.0,0.0,0.0,0.0,0.0,0.0,0.0,0.0,0.0,0.0,0.0,0.0,0.0,0.0,0.0,0.0,0.0,0.0,0.0,0.0,0.0,0.0,0.0,0.0,0.0,0.0,0.0,0.0,0.0,0.0,0.0,0.0,0.0,0.0,0.0,0.0,0.0,0.0,0.0,0.0,0.0,0.0,0.0,0.0,0.0,0.0,0.0,0.0,0.0,0.0,0.0,0.0,0.0,0.0,0.0,0.0,0.0,0.0,0.0,0.0,0.0,0.0,0.0,0.0,0.0,0.0,0.0,0.0,0.0,0.0,0.0,0.0,0.0,0.0,2.3892,2.6917,2.9675,0.0,3.3219,3.3818,3.3926,3.2405,3.1589,3.1939,0.0,0.0,0.0,0.0,0.0,0.0,0.0,0.0,0.0,0.0,0.0,0.0,0.0,0.0,0.0,0.0,0.0,0.0,0.0,0.0,0.0,0.0,0.0,0.0,0.0,0.0,0.0,0.0,0.0,0.0,0.0,0.0,0.0,0.0,0.0,0.0,0.0,0.0,0.0,0.0,0.0,0.0,0.0,0.0,0.0,0.0,0.0,0.0,0.0,0.0,0.0,0.0,0.0,0.0,0.0,0.0,0.0,0.0,0.0,0.0,0.0,0.0,0.0,0.0,0.0,0.0,0.0,0.0,0.0,0.0,0.0,0.0,0.0,0.0,0.0,0.0,0.0,0.0,0.0,0.0,0.0,0.0,0.0,0.0,0.0,0.0,0.0,0.0,0.0,0.0,0.0,0.0,0.0,0.0,0.0,0.0,0.0,0.0,0.0,0.0,0.0,0.0,2.4454,2.7464,3.0394,3.3221,3.3684,3.3909,3.418,3.1257,2.9868,0.0,0.0,0.0,0.0,0.0,0.0,0.0,0.0,0.0,0.0,0.0,0.0,0.0,0.0,0.0,0.0,0.0,0.0,0.0,0.0,0.0,0.0,0.0,0.0,0.0,0.0,0.0,0.0,0.0,0.0,0.0,0.0,0.0,0.0,0.0,0.0,0.0,0.0,0.0,0.0,0.0,0.0,0.0,0.0,0.0,0.0,0.0,0.0,0.0,0.0,0.0,0.0,0.0,0.0,0.0,0.0,0.0,0.0,0.0,0.0,0.0,0.0,0.0,0.0,0.0,0.0,0.0,0.0,0.0,0.0,0.0,0.0,0.0,0.0,0.0,0.0,0.0,0.0,0.0,0.0,0.0,0.0,0.0,0.0,0.0,0.0,0.0,0.0,0.0,0.0,0.0,0.0,0.0,0.0,0.0,0.0,0.0,0.0,0.0,0.0,0.0,0.0,0.0,2.6238,2.9103,3.1737,3.4033,3.4032,3.3955,3.4179,3.1673,3.0359,3.0948,0.0,0.0,0.0,0.0,0.0,0.0,0.0,0.0,0.0,0.0,0.0,0.0,0.0,0.0,0.0,0.0,0.0,0.0,0.0,0.0,0.0,0.0,0.0,0.0,0.0,0.0,0.0,0.0,0.0,0.0,0.0,0.0,0.0,0.0,0.0,0.0,0.0,0.0,0.0,0.0,0.0,0.0,0.0,0.0,0.0,0.0,0.0,0.0,0.0,0.0,0.0,0.0,0.0,0.0,0.0,0.0,0.0,0.0,0.0,0.0,0.0,0.0,0.0,0.0,0.0,0.0,0.0,0.0,0.0,0.0,0.0,0.0,0.0,0.0,0.0,0.0,0.0,0.0,0.0,0.0,0.0,0.0,0.0,0.0,0.0,0.0,0.0,0.0,0.0,0.0,0.0,0.0,0.0,0.0,0.0,0.0,0.0,0.0,0.0,0.0,0.0,0.0,2.7351,3.0256,3.2708,3.453,3.4535,3.4394,3.4328,3.1898,3.056,3.0963,0.0,0.0,0.0,0.0,0.0,0.0,0.0,0.0,0.0,0.0,0.0,0.0,0.0,0.0,0.0,0.0,0.0,0.0,0.0,0.0,0.0,0.0,0.0,0.0,0.0,0.0,0.0,0.0,0.0,0.0,0.0,0.0,0.0,0.0,0.0,0.0,0.0,0.0,0.0,0.0,0.0,0.0,0.0,0.0,0.0,0.0,0.0,0.0,0.0,0.0,0.0,0.0,0.0,0.0,0.0,0.0,0.0,0.0,0.0,0.0,0.0,0.0,0.0,0.0,0.0,0.0,0.0,0.0,0.0,0.0,0.0,0.0,0.0,0.0,0.0,0.0,0.0,0.0,0.0,0.0,0.0,0.0,0.0,0.0,0.0,0.0,0.0,0.0,0.0,0.0,0.0,0.0,0.0,0.0,0.0,0.0,0.0,0.0,0.0,0.0,0.0,0.0,2.8133,3.1035,3.3382,3.4858,3.5132,3.5018,3.4536,3.2044,3.0619,3.0901,0.0,0.0,0.0,0.0,0.0,0.0,0.0,0.0,0.0,0.0,0.0,0.0,0.0,0.0,0.0,0.0,0.0,0.0,0.0,0.0,0.0,0.0,0.0,0.0,0.0,0.0,0.0,0.0,0.0,0.0,0.0,0.0,0.0,0.0,0.0,0.0,0.0,0.0,0.0,0.0,0.0,0.0,0.0,0.0,0.0,0.0,0.0,0.0,0.0,0.0,0.0,0.0,0.0,0.0,0.0,0.0,0.0,0.0,0.0,0.0,2.1816,0.0,0.0,0.0,0.0,0.0,0.0,0.0,0.0,0.0,0.0,0.0,0.0,0.0,0.0,0.0,0.0,0.0,0.0,0.0,0.0,0.0,0.0,0.0,0.0,0.0,0.0,0.0,0.0,0.0,0.0,0.0,0.0,0.0,0.0,0.0,0.0,0.0,0.0,0.0,0.0,0.0,2.9911,3.1784,3.3589,3.5696,3.5491,3.5018,3.4536,3.2458,3.0906,3.0259,2.9323,0.0,0.0,0.0,0.0,0.0,0.0,0.0,0.0,0.0,0.0,0.0,0.0,0.0,0.0,0.0,0.0,0.0,0.0,0.0,0.0,0.0,0.0,0.0,0.0,0.0,0.0,0.0,0.0,0.0,0.0,0.0,0.0,0.0,0.0,0.0,0.0,0.0,0.0,0.0,0.0,0.0,0.0,0.0,0.0,0.0,0.0,0.0,0.0,0.0,0.0,0.0,0.0,0.0,0.0,0.0,0.0,0.0,0.0,0.0,0.0,2.2786,0.0,0.0,0.0,0.0,0.0,0.0,0.0,0.0,0.0,0.0,0.0,0.0,0.0,0.0,0.0,0.0,0.0,0.0,0.0,0.0,0.0,0.0,0.0,0.0,0.0,0.0,0.0,0.0,0.0,0.0,0.0,0.0,0.0,0.0,0.0,0.0,0.0,0.0,0.0,0.0,3.0873,3.2506,3.4103,3.5995,3.5968,3.56,3.5029,3.3366,3.1854,3.0657,2.9655,0.0,0.0,0.0,0.0,0.0,0.0,0.0,0.0,0.0,0.0,0.0,0.0,0.0,0.0,0.0,0.0,0.0,0.0,0.0,0.0,0.0,0.0,0.0,0.0,0.0,0.0,0.0,0.0,0.0,0.0,0.0,0.0,0.0,0.0,0.0,0.0,0.0,0.0,0.0,0.0,0.0,0.0,0.0,0.0,0.0,0.0,0.0,0.0,0.0,0.0,0.0,0.0,0.0,2.7551,2.7939,2.8247,2.8247,2.8611,2.9044,2.6178,2.4851,2.4699,0.0,0.0,0.0,0.0,0.0,0.0,0.0,0.0,0.0,0.0,0.0,0.0,0.0,0.0,0.0,0.0,0.0,0.0,0.0,0.0,0.0,0.0,0.0,0.0,0.0,2.8669,2.8745,0.0,0.0,0.0,0.0,0.0,0.0,0.0,0.0,0.0,0.0,0.0,0.0,3.1311,3.3147,3.4729,3.6105,3.6398,3.623,3.5552,3.4214,3.2819,3.1455,3.0125,2.9274,0.0,0.0,0.0,0.0,0.0,0.0,0.0,0.0,0.0,0.0,0.0,0.0,0.0,0.0,0.0,0.0,0.0,0.0,0.0,0.0,0.0,0.0,0.0,0.0,0.0,0.0,0.0,0.0,0.0,0.0,0.0,0.0,2.513,2.5259,0.0,0.0,0.0,0.0,0.0,0.0,0.0,0.0,0.0,0.0,0.0,0.0,0.0,0.0,2.8095,2.7733,2.8586,3.0626,3.0694,3.1477,3.2822,3.2822,3.342,3.4357,3.3438,0.0,2.8649,2.7501,0.0,0.0,0.0,0.0,0.0,0.0,0.0,0.0,0.0,0.0,0.0,0.0,0.0,0.0,0.0,0.0,0.0,0.0,0.0,0.0,0.0,0.0,2.794,2.9692,3.0215,3.038,0.0,2.8541,2.6426,2.5859,0.0,0.0,0.0,0.0,0.0,0.0,0.0,0.0,3.1269,3.3544,3.5401,3.6353,3.6476,3.623,3.5552,3.4214,3.302,3.2113,3.0813,2.9999,2.9852,2.9672,0.0,0.0,0.0,0.0,0.0,0.0,0.0,0.0,0.0,0.0,0.0,0.0,0.0,0.0,0.0,0.0,0.0,0.0,0.0,0.0,0.0,0.0,0.0,0.0,0.0,0.0,0.0,0.0,0.0,2.6017,2.6598,2.6841,2.7065,2.7216,0.0,0.0,0.0,0.0,0.0,0.0,0.0,0.0,0.0,2.8978,2.9705,3.0657,3.1869,3.1744,3.249,3.4111,3.4111,3.4652,3.5672,3.5672,3.6103,3.6845,3.6735,3.6009,3.4664,3.1685,2.965,2.8318,0.0,0.0,0.0,0.0,0.0,2.6525,2.5694,2.5534,0.0,0.0,0.0,0.0,0.0,0.0,0.0,0.0,0.0,0.0,0.0,0.0,0.0,3.1975,3.2766,3.329,3.32,3.1827,3.0075,0.0,2.7072,2.6307,2.6197,0.0,0.0,0.0,0.0,0.0,3.2278,3.4075,3.5523,3.6415,3.6507,3.6384,3.6091,3.5152,3.4276,3.3542,3.2192,3.1217,3.0701,3.0306,3.0224,0.0,0.0,0.0,0.0,0.0,0.0,0.0,0.0,0.0,0.0,0.0,0.0,0.0,0.0,0.0,0.0,0.0,0.0,0.0,0.0,0.0,0.0,0.0,0.0,0.0,0.0,0.0,0.0,2.7203,2.8191,2.8306,2.8595,2.8841,0.0,0.0,0.0,0.0,0.0,0.0,2.9882,3.0818,3.1917,3.3179,3.3552,3.4377,3.5745,3.5913,3.6669,3.8044,3.8044,3.8465,3.9272,3.9272,3.9497,3.9871,3.9833,3.9884,3.9613,3.5284,3.2391,3.0617,3.0056,2.9992,3.0146,2.9438,2.9805,3.0573,2.9876,2.9653,2.9654,2.9456,0.0,2.877,2.7056,0.0,0.0,0.0,0.0,2.9768,3.1569,3.2905,3.3889,3.4382,3.5265,3.5804,3.5146,3.4622,3.3465,0.0,2.9545,2.8921,2.8769,0.0,0.0,0.0,0.0,3.1925,3.3166,3.4622,3.5784,3.643,3.6507,3.6507,3.6507,3.5891,3.5291,3.4797,3.3754,3.2752,3.1801,3.1441,3.1267,3.1306,0.0,0.0,0.0,0.0,0.0,0.0,0.0,0.0,0.0,0.0,0.0,0.0,0.0,0.0,0.0,0.0,0.0,0.0,0.0,0.0,0.0,0.0,0.0,0.0,0.0,0.0,0.0,0.0,0.0,2.9011,3.074,0.0,0.0,0.0,0.0,3.0899,3.2535,3.3471,3.3279,3.4329,3.5619,3.7073,3.7077,3.7903,3.9705,3.9719,4.0751,4.2763,4.2763,4.3495,4.4887,4.4887,4.4902,4.4902,4.4265,4.3334,4.1876,3.7343,3.5795,3.6061,3.3653,3.2922,3.3202,3.258,3.2283,3.2109,3.1551,3.1088,3.0915,3.2028,3.1875,3.0989,2.9545,2.9442,0.0,0.0,3.063,3.1582,3.3759,3.4397,3.4922,3.6761,3.727,3.715,3.6538,3.6374,3.5549,0.0,3.1397,3.0495,3.0241,0.0,3.0424,2.9701,3.2174,3.3941,3.3453,3.517,3.6445,3.6507,3.6507,3.6507,3.6507,3.5891,3.5491,3.5445,3.532,3.467,3.3335,3.3801,3.3476,3.2174,3.1352,0.0,0.0,0.0,0.0,0.0,0.0,0.0,0.0,0.0,0.0,0.0,0.0,0.0,0.0,0.0,0.0,0.0,0.0,0.0,0.0,0.0,0.0,0.0,0.0,0.0,0.0,0.0,0.0,3.3329,3.4175,0.0,3.4787,3.4368,3.4115,3.4118,3.538,3.6434,3.7086,3.8351,3.9689,4.1016,4.1538,4.2322,4.3404,4.3419,4.3779,4.4516,4.4516,4.4781,4.5289,4.5289,4.5289,4.5289,4.505,4.4676,4.4107,4.2039,3.9851,3.7696,3.6793,3.6539,3.6561,3.5874,3.6151,3.6711,3.56,3.5429,3.5628,3.5235,3.4036,3.2653,3.2157,3.2151,3.2402,3.2904,3.3794,3.4879,3.6052,3.6372,3.6537,3.724,3.7387,3.7327,3.7135,3.7075,3.6825,3.6011,3.4035,3.251,3.2555,3.196,3.1693,3.2346,3.3502,3.4364,3.4531,3.5676,3.6507,3.6507,3.6507,3.6507,3.6507,3.6643,3.6564,3.6168,3.6006,3.5523,3.466,3.3957,3.3549,3.3484,3.2701,3.2043,0.0,0.0,0.0,0.0,0.0,0.0,0.0,0.0,0.0,0.0,0.0,0.0,0.0,0.0,0.0,0.0,0.0,0.0,0.0,0.0,0.0,0.0,0.0,0.0,0.0,0.0,3.5018,3.699,3.7773,3.8212,3.8345,3.7959,3.7798,3.8017,3.9087,4.0146,4.1143,4.207,4.3187,4.4469,4.4805,4.5304,4.5963,4.5963,4.5963,4.5963,4.5963,4.5963,4.5963,4.5963,4.5963,4.5963,4.5738,4.5648,4.5589,4.4915,4.309,4.0666,4.0232,3.9918,3.9687,3.9195,3.9472,3.9875,3.8494,3.8328,3.8512,3.7225,3.5893,3.4816,3.4816,3.4816,3.4906,3.5356,3.6284,3.7302,3.7896,3.824,3.8499,3.878,3.8677,3.8512,3.8512,3.8219,3.7955,3.8021,3.6278,3.4821,3.4876,3.4257,3.4122,3.5049,3.5447,3.5753,3.6045,3.6693,3.7049,3.6831,3.6998,3.7118,3.7118,3.7122,3.7031,3.6831,3.6694,3.6261,3.541,3.4913,3.4555,3.437,3.3738,3.3119,3.2505,0.0,0.0,0.0,0.0,0.0,0.0,0.0,0.0,0.0,0.0,0.0,0.0,0.0,0.0,0.0,0.0,0.0,0.0,0.0,0.0,0.0,0.0,0.0,3.2478,3.6097,3.895,3.9629,4.1381,4.2276,4.1613,4.2186,4.259,4.259,4.3718,4.4721,4.5379,4.5409,4.5992,4.7324,4.6734,4.6689,4.7339,4.7339,4.7324,4.7309,4.7309,4.7309,4.7309,4.7309,4.7309,4.7264,4.6614,4.633,4.6285,4.5633,4.5349,4.5229,4.3893,4.3015,4.2485,4.247,4.2036,4.1254,3.993,3.9481,3.9257,3.7958,3.7524,3.7477,3.7477,3.7477,3.7477,3.7477,3.7973,3.8631,3.9287,3.9948,4.0647,4.1501,4.121,4.0743,4.0743,3.9874,3.9037,3.8862,3.8127,3.7451,3.7094,3.7419,3.7682,3.7584,3.7996,0.0,3.7918,3.8215,3.8223,3.7558,3.8017,3.8357,3.8341,3.7347,3.6923,3.7399,3.7505,3.6966,3.5641,3.678,3.6584,3.4739,3.4402,3.4,3.3545,0.0,0.0,0.0,0.0,0.0,0.0,0.0,0.0,0.0,0.0,0.0,0.0,0.0,0.0,0.0,0.0,0.0,0.0,0.0,0.0,0.0,0.0,3.5188,3.6104,3.8789,4.1041,4.2153,4.4036,4.517,4.4954,4.5992,4.6687,4.6687,4.6995,4.7474,4.8154,4.775,4.787,4.8723,4.8573,4.8334,4.8012,4.8012,4.7773,4.7309,4.7309,4.7309,4.7309,4.7309,4.7309,4.7294,4.7115,4.704,4.7003,4.683,4.6756,4.6621,4.5274,4.4646,4.4436,4.3958,4.308,4.2081,4.1688,4.1268,4.0786,4.043,3.9963,3.9574,3.9574,3.9574,3.9574,3.9574,4.0053,4.0625,4.0786,4.1111,4.1407,4.1629,4.1665,4.1637,4.1637,4.1404,4.1201,4.1276,4.0994,4.0137,3.8267,3.8054,3.8316,3.8858,3.9078,0.0,3.9723,3.9856,3.9851,3.9672,3.9803,3.9679,3.9133,3.9203,3.893,3.8098,3.8391,3.8229,3.7416,3.6848,3.6093,3.5078,3.4881,3.4637,0.0,0.0,0.0,0.0,0.0,0.0,0.0,0.0,0.0,0.0,0.0,0.0,0.0,0.0,0.0,0.0,0.0,0.0,0.0,0.0,0.0,0.0,3.7275,3.95,4.1444,4.2485,4.3614,4.5194,4.6681,4.7563,4.7563,4.8274,4.8723,4.8723,4.8723,4.8887,4.9284,4.8917,4.8902,4.9299,4.9292,4.9097,4.8723,4.8723,4.8528,4.8154,4.8154,4.7982,4.7713,4.7713,4.7563,0.0,4.7309,4.7309,4.7309,4.7309,4.7309,0.0,0.0,0.0,0.0,0.0,4.3838,4.3125,4.259,4.2156,4.1762,4.1493,4.1149,4.0819,4.0913,4.0931,4.095,4.1058,4.1558,4.2055,4.2055,4.238,4.2671,4.2766,4.2648,4.2616,4.2909,4.2599,4.2334,4.2664,0.0,0.0,4.0353,3.9795,3.9762,4.0372,4.0388,4.0514,4.0975,4.1195,4.1183,4.0918,4.0837,4.0618,4.0191,3.9746,0.0,0.0,0.0,3.8715,3.8651,3.7697,0.0,0.0,0.0,3.5753,3.524,0.0,0.0,0.0,3.3426,3.3046,0.0,0.0,0.0,0.0,0.0,0.0,0.0,0.0,0.0,0.0,0.0,0.0,0.0,0.0,0.0,0.0,4.1496,4.4134,4.7304,4.6785,4.6651,4.8244,4.9052,4.9501,4.9501,4.9636,4.9726,4.9726,4.9666,4.9621,4.9621,0.0,0.0,0.0,0.0,4.9546,4.9396,4.9396,4.9366,4.9292,4.9292,4.8947,4.8304,4.8304,4.7923,4.7309,4.7309,4.7309,4.7309,4.7309,4.7309,4.7309,4.7309,4.6884,4.6151,4.488,4.4356,4.4117,4.2915,0.0,0.0,4.1846,4.1666,4.1704,4.1897,4.1972,4.201,4.2174,4.2637,4.3126,4.3126,4.3571,4.4069,4.4262,4.3861,4.362,4.4217,4.3592,4.3078,4.3497,4.3294,4.304,4.2963,4.2196,4.1695,4.2072,4.2058,4.2046,4.222,4.2554,4.2505,4.1834,0.0,0.0,4.1339,3.9794,3.897,3.9279,3.8857,3.8829,3.9362,3.8862,3.821,3.7417,3.7387,3.6967,3.6116,3.6037,3.6037,3.6054,3.4512,3.4101,0.0,0.0,0.0,0.0,0.0,0.0,0.0,0.0,0.0,0.0,0.0,0.0,0.0,0.0,0.0,4.1369,4.4415,4.7328,5.0069,5.069,5.0421,4.9247,5.0122,5.084,5.084,5.1798,5.245,5.245,5.1932,5.1633,5.1633,5.1633,0.0,5.0855,5.1364,5.1124,5.0039,5.0024,4.9778,4.9292,0.0,0.0,4.8304,4.8304,4.7923,4.7309,4.7309,4.7309,4.7309,4.7309,4.7309,4.7309,4.7309,4.6884,4.6196,4.5409,4.4766,4.4192,4.3399,4.313,4.314,4.3231,4.3259,4.3298,4.3496,4.3554,0.0,4.3593,4.3718,4.381,4.381,4.4017,4.4243,4.4301,4.4308,4.438,4.4503,4.4846,4.5132,4.5222,4.5631,4.5816,4.5272,4.4087,4.3443,4.4056,4.4608,4.496,4.4938,4.5017,4.4788,4.4058,4.397,4.3433,4.2198,4.176,4.1083,3.9998,3.9834,3.9609,3.9259,3.9122,3.8548,3.7432,3.7237,3.7071,3.689,3.629,3.6258,3.6707,3.5889,3.5591,0.0,0.0,0.0,0.0,0.0,0.0,0.0,0.0,0.0,0.0,0.0,3.4757,0.0,0.0,4.2647,4.5499,4.8082,5.0331,5.1977,5.2486,5.2345,5.1372,5.1798,5.2202,5.2202,5.28,5.3198,5.3198,5.2899,5.2695,5.2695,5.2695,5.2381,5.1738,5.2037,5.1723,5.0712,5.0712,5.0548,5.0242,5.0242,4.9898,4.9247,4.9247,4.891,4.8267,4.7938,4.7803,4.7773,4.7444,4.7309,4.7309,4.7402,4.7186,4.6719,4.6052,4.5441,4.4854,4.4188,4.3832,4.374,4.4205,4.4351,4.4451,4.5002,4.5152,4.5172,4.5271,4.531,4.5393,4.5793,4.5984,4.614,4.6557,4.6437,4.6352,4.6719,4.6498,4.6461,4.7201,4.7052,4.6811,4.6846,4.628,4.5683,4.5308,4.5559,4.591,4.6222,4.6244,4.5974,4.5229,4.4821,4.4127,4.2946,4.2168,4.1284,4.018,4.0096,3.9969,3.967,3.9657,3.9216,3.8325,3.8193,3.8009,3.7706,3.734,3.731,3.7589,3.7295,3.6738,0.0,0.0,0.0,0.0,0.0,0.0,0.0,0.0,3.5004,3.5439,3.6624,3.853,4.1661,4.4329,4.6882,4.9277,5.1304,5.277,5.3333,5.3513,5.3603,5.3603,5.3483,5.3393,5.3393,5.3513,5.3603,5.3603,5.3603,5.3543,5.3408,5.3528,5.3228,5.2411,5.2516,5.2276,5.1618,5.1445,5.1385,5.1385,5.1251,5.0847,5.0196,5.0196,4.986,4.9262,4.8723,4.8364,4.8094,4.7697,4.7479,4.7381,4.7581,4.7596,4.7349,4.6689,4.6193,4.5771,4.5107,4.4668,4.4517,4.5251,4.5478,4.5649,4.6561,4.6814,4.6869,4.701,4.7068,4.7224,4.7848,4.8036,4.8203,4.886,4.855,4.8273,4.8875,4.8184,4.7782,4.8991,4.8377,4.7826,4.8432,4.8546,4.8014,4.6441,4.6319,4.6565,4.6963,4.7005,4.6735,4.5991,4.5246,4.4418,4.349,4.2172,4.1153,4.0557,4.0388,4.0303,4.0303,4.018,3.9812,3.9219,3.9206,3.896,3.846,3.8365,3.8348,3.846,3.846,3.7749,3.1901,3.1014,3.0917,3.2038,3.2189,3.2858,0.0,0.0,3.7751,3.9319,4.117,4.2996,4.4594,4.7048,4.9322,5.0742,5.2656,5.4012,5.4087,5.4596,5.497,5.497,5.4446,5.4102,5.4102,5.4625,5.497,5.497,5.497,5.4715,5.4117,5.464,5.4411,5.3139,5.3668,5.3653,5.2989,5.2381,5.2097,5.2082,5.1475,5.0847,5.0196,5.0196,4.986,4.9292,4.9217,4.8513,4.748,4.8171,4.8086,4.7581,4.7858,4.7943,4.7846,4.7179,4.6876,4.6745,4.6077,4.5809,4.593,4.6917,4.7225,4.7413,4.8409,4.8697,4.8699,4.8734,4.8734,4.8752,4.8842,4.8878,4.8897,4.8986,4.894,4.8907,4.8988,4.9388,4.9788,4.9953,5.0376,5.0721,5.0805,5.082,5.0102,4.7982,4.8215,4.8434,4.7838,4.7785,4.7481,4.6752,4.6024,4.4993,4.3524,4.2658,4.2147,4.2063,4.1441,4.1085,4.1085,4.0455,3.9812,3.9219,3.9206,3.9179,3.9112,3.856,3.8574,3.9112,3.9112,3.8726,3.2519,3.198,3.2258,3.3953,3.502,3.6282,3.8583,4.0069,4.1283,4.2406,4.4545,4.6621,4.7901,5.0017,5.2001,0.0,5.4551,5.5478,5.5837,5.5848,5.5504,5.4715,5.4386,5.4356,5.4745,5.5399,5.5623,5.5224,5.5564,5.5504,5.482,5.5044,5.476,5.3803,5.4057,5.3877,5.3213,5.2929,5.277,5.2794,5.2501,5.2007,5.1355,5.1355,5.088,5.005,5.005,4.9388,4.8313,4.8672,4.8443,4.7858,4.8091,4.8443,4.882,4.843,4.81,4.7898,4.8094,4.7968,4.789,4.8688,4.8946,4.9101,4.996,5.0235,5.0235,5.0235,5.0235,5.0327,5.0797,5.0921,5.1046,5.1502,5.1257,5.1057,5.1523,5.1161,5.1011,5.19,5.1595,5.1336,5.1759,5.1488,5.0884,4.9953,4.9724,4.9373,4.8646,4.8529,4.8105,4.6921,4.6515,4.5551,4.3575,4.3538,4.3264,4.2367,4.161,4.1204,4.1204,4.0489,3.9982,3.9735,3.9722,3.9722,3.9722,3.9467,3.9484,3.9722,3.9722,3.9809,3.2975,3.3117,3.391,3.6117,3.8062,3.9902,4.1628,4.3399,4.4925,4.5747,4.7623,4.9494,5.0787,5.2217,5.3707,5.5234,5.5893,5.6357,5.6806,5.6162,5.5209,5.4057,5.3608,5.3677,5.4411,5.5185,5.5534,5.5209,5.5653,5.5713,5.5224,5.5194,5.497,5.4491,5.4476,5.4236,5.3767,5.3573,5.3498,5.3483,5.3109,5.2714,5.2297,5.2188,5.1623,5.0736,5.0918,5.0244,4.9046,4.95,4.9199,4.8464,4.8903,4.9439,4.9943,5.0037,4.97,4.9314,4.9869,4.9863,4.9704,5.0391,5.0627,5.0778,5.1534,5.1771,5.1771,5.1771,5.1771,5.1915,5.2467,5.2625,5.2781,5.3348,5.3061,5.279,5.3382,5.2604,5.2165,5.3281,5.2588,5.1996,5.2536,5.2198,5.1759,5.1539,5.0879,5.0135,4.9407,4.9137,4.8511,4.7242,4.7107,4.6346,4.4488,4.4688,4.4432,4.3301,4.2337,4.18,4.18,4.1098,4.0709,4.0709,4.0709,4.0709,4.0709,4.0709,4.0709,4.0709,4.0709,4.0997,0.0,0.0,3.6071,3.8885,4.0937,4.2955,4.5538,4.7174,4.8491,4.977,5.0607,5.1528,5.2869,5.3169,5.3857,5.5848,5.6192,5.6207,5.6222,5.5089,5.3997,5.3318,5.2082,5.1668,0.0,5.3626,5.4521,5.5149,5.5209,5.5209,5.5194,5.5194,5.5179,5.5164,5.5164,5.5149,5.5134,5.4491,5.4177,5.4162,5.2845,5.2351,5.2573,5.2182,5.1615,5.1008,5.1683,5.0818,4.9141,5.0749,5.0641,4.9567,5.0618,5.1032,5.1145,5.1915,5.1698,5.1019,5.1056,5.1059,5.1173,5.1972,5.2238,5.2381,5.3178,5.3433,5.3433,5.3433,5.3433,5.3433,5.3467,5.3467,5.3467,5.3484,5.3484,5.3467,5.3501,5.3467,5.345,5.3501,5.3467,5.345,5.3467,5.345,5.3179,5.2384,5.1641,5.0897,5.0167,4.9441,4.8714,4.7954,4.787,4.7549,4.6752,4.6058,4.5652,4.5602,4.4167,4.3338,4.3338,4.2625,4.2232,4.2232,4.2232,4.2232,4.2232,4.2232,4.2232,4.2232,4.2232,4.2249,0.0,0.0,4.0279,4.3318,4.5215,4.6777,4.8499,4.9576,5.0219,5.0204,5.0054,4.995,4.995,5.031,5.1253,5.3243,5.468,5.5698,5.6132,5.6152,5.5125,5.2461,5.1982,0.0,0.0,0.0,0.0,5.4739,5.504,5.5194,5.5194,5.5623,5.5668,5.5209,5.5638,5.573,5.5471,5.5245,5.5225,5.5383,5.4038,5.3427,5.3492,5.248,5.2267,5.2747,5.2964,5.286,5.2515,5.2592,5.2096,5.1276,5.1154,5.144,5.1931,5.22,5.2467,5.2678,5.2678,5.2678,5.2747,5.3024,5.3093,5.3144,5.3416,5.3501,5.3501,5.3501,5.3501,5.3501,5.3501,5.3501,5.3501,5.3501,5.3501,5.3501,5.3501,5.3501,5.3501,5.3501,5.3501,5.3501,5.3501,5.3501,5.3416,5.3145,5.1606,5.0202,4.9475,4.9154,4.8715,4.7988,4.8343,4.8139,4.6902,4.7022,4.6737,4.5756,4.4739,4.3961,4.3423,4.2692,4.23,4.23,4.23,4.23,4.23,4.23,4.23,4.23,4.23,4.2557,0.0,4.1677,4.4048,4.7252,4.888,4.9912,5.0727,5.1251,5.1236,5.0122,4.9,4.8087,4.7653,4.7376,4.7989,5.0406,5.1872,5.3253,5.4705,5.4835,5.3999,5.1865,5.1698,5.1656,0.0,0.0,0.0,5.4603,5.5105,5.5486,5.5827,5.6474,5.6544,5.5857,5.6248,5.6259,5.5746,5.5731,5.5709,5.5624,5.4587,5.3981,5.3746,5.3039,5.3089,5.3762,5.4067,5.4241,5.4275,5.3795,5.3229,5.2585,5.2123,5.2273,5.2729,5.2729,5.3058,5.3501,5.3501,5.3501,5.3501,5.3501,5.3501,5.3501,5.3501,5.3501,5.3501,5.3501,5.3501,5.3501,5.3501,5.3501,5.3501,5.3501,5.3501,5.3501,5.3501,5.3501,5.3501,5.3501,5.3501,5.3501,5.3501,5.3501,5.3399,5.3112,5.1826,5.0625,4.9865,4.956,4.912,4.8377,4.8715,4.8612,4.7665,4.7768,4.7498,4.6551,4.5802,4.5041,4.4251,4.3775,4.3386,4.3129,4.3112,4.3112,4.3112,4.3112,4.3112,4.3112,4.3112,4.3369,4.2352,4.5059,4.7362,5.0541,5.1806,5.227,5.2225,5.2151,5.1507,4.9501,4.7444,4.5986,0.0,0.0,4.4382,4.7653,4.8379,4.9502,5.2309,5.1663,5.1098,0.0,0.0,0.0,0.0,0.0,0.0,5.4849,0.0,5.5987,5.6935,5.7628,5.7689,5.7021,5.699,5.6672,5.6028,5.6028,5.5734,5.5095,5.4613,5.4051,5.3454,5.3868,5.4083,5.4168,5.501,5.5024,5.4482,5.446,5.4083,5.353,5.3498,5.3501,5.3501,5.3501,5.3501,5.3501,5.3501,5.3501,5.3501,5.3501,5.3501,5.3501,5.3501,5.3501,5.3501,5.3501,5.3501,5.3501,5.3501,5.3501,5.3501,5.3501,5.3501,5.3501,5.3501,5.3501,5.3501,5.3501,5.3501,5.3501,5.3501,5.3501,5.3247,5.2486,5.2367,5.208,5.1302,5.0591,4.9864,4.9137,4.9069,4.9035,4.9001,4.836,4.7938,4.7904,4.7242,4.6532,4.5788,4.572,4.5365,4.4682,4.4632,4.4615,4.4615,4.4615,4.4615,4.4615,4.4615,4.4615,4.6172,4.882,5.1066,5.2605,5.3134,5.3119,5.2616,5.1329,4.9501,4.6858,4.3973,4.1609,0.0,0.0,0.0,4.6292,4.9442,0.0,5.3848,5.4788,0.0,5.3061,0.0,5.3791,5.33,5.3855,0.0,0.0,5.5588,5.5603,5.6667,5.7526,5.7689,5.7021,5.6935,5.6716,5.6299,5.6494,5.6499,5.634,5.5813,5.5475,5.5317,5.507,5.5316,5.5955,5.6169,5.6536,5.6908,5.5815,5.5264,5.5014,5.3906,5.3501,5.3501,5.3501,5.3501,5.3501,5.3501,5.3501,5.3501,5.3501,5.3501,5.3501,5.3501,5.3501,5.3501,5.3501,5.3501,5.3501,5.3501,5.3501,5.3501,5.3501,5.3501,5.3501,5.3501,5.3501,5.3501,5.3501,5.3501,5.3501,5.3501,5.3501,5.3433,5.323,5.3196,5.2723,5.137,5.1032,5.0642,4.9898,4.9813,4.9593,4.9052,4.8817,4.8479,4.7938,4.7718,4.7293,4.6549,4.5991,4.5618,4.5415,4.4888,4.4615,4.4615,4.4615,4.4615,4.4615,4.4615,4.4615,4.9464,5.1991,5.3983,5.4522,5.4198,5.3261,5.1462,4.9407,4.6849,4.325,4.0219,3.7928,3.6883,3.815,4.0382,0.0,0.0,0.0,5.2866,5.445,5.5082,0.0,5.5424,0.0,5.5386,5.5873,5.6583,0.0,5.6867,5.6913,5.7938,5.8502,5.8487,5.7814,5.7478,5.7261,5.7187,5.7353,5.7606,5.8018,5.7083,5.6608,5.6598,5.6087,5.6149,5.6614,0.0,5.746,5.7798,5.6325,5.5699,5.5547,5.4093,5.3704,5.3974,5.3974,5.4194,5.4465,5.4465,5.4465,5.4346,5.3721,5.3501,5.3568,5.3873,5.3974,5.4059,5.438,5.4228,5.3974,5.3974,5.3974,5.3974,5.3974,5.3974,5.4076,5.4397,5.4211,5.3974,5.3974,5.3974,5.3873,5.3568,5.3501,5.3501,5.3501,5.3501,5.3196,5.2317,5.1894,5.1403,5.0659,5.0287,4.9915,4.9509,4.9187,4.8832,4.8411,4.8377,4.8039,4.731,4.6889,4.65,4.6194,4.5449,4.5091,4.5091,4.4753,4.4615,4.4615,4.4615,4.4615,5.2389,5.4558,5.611,5.6068,5.4858,5.2838,4.9604,4.6982,4.3939,3.9435,3.6768,3.5026,3.4353,3.5681,3.7816,4.067,0.0,4.7753,5.1382,5.2941,5.4212,5.5566,5.7033,5.7826,5.7603,5.797,5.8303,5.8568,5.8665,5.9017,5.9712,5.9793,5.9515,5.8879,5.8423,5.8262,5.8379,5.8379,5.8796,5.9587,5.8323,5.7688,5.7563,5.7123,5.6867,5.6806,0.0,0.0,5.7798,5.6409,5.5783,5.5564,5.4279,5.4126,5.46,5.4702,5.5158,5.5699,5.5699,5.5699,5.5496,5.4194,5.3788,5.3923,5.4549,5.4753,5.4871,5.5513,5.5243,5.4753,5.4753,5.4753,5.4753,5.4753,5.4753,5.4921,5.5564,5.5209,5.4736,5.4634,5.46,5.438,5.3636,5.3501,5.3501,5.3501,5.3501,5.3501,5.3501,5.2892,5.2165,5.1421,5.0693,5.0252,5.0252,4.9475,4.9035,4.9137,4.9052,4.8714,4.8073,4.7954,4.7599,4.6955,4.6227,4.5855,4.5838,4.521,4.4838,4.4736,4.4736,4.4685,5.4998,5.6115,5.6737,5.6411,5.4452,5.1734,4.8498,4.517,0.0,0.0,3.5053,3.3634,3.2976,3.5281,3.8519,4.2261,4.6024,4.9882,5.3819,5.4915,5.5806,0.0,5.8116,5.8608,5.8558,0.0,0.0,0.0,0.0,6.0126,5.9502,5.9691,5.9594,5.9128,5.9812,5.992,5.9361,5.9361,5.9449,5.9587,5.9512,5.9123,5.8476,5.8545,5.8253,5.7681,0.0,0.0,5.7832,5.6968,5.624,5.5665,5.5411,5.5023,5.4668,5.5276,5.5581,5.5699,5.5699,5.5699,5.5665,5.5395,5.531,5.5344,5.5462,5.5513,5.553,5.5665,5.5614,5.5513,5.5513,5.5513,5.5513,5.5513,5.5513,5.553,5.5665,5.5597,5.5344,5.4718,5.46,5.438,5.3636,5.3501,5.3501,5.3501,5.3501,5.3501,5.3501,5.3382,5.2993,5.2198,5.1438,5.0998,5.0998,4.9779,4.9255,4.988,4.934,4.8951,4.88,4.8225,4.7836,4.7718,4.6989,4.6599,4.6599,4.6479,4.6123,4.5517,4.5517,4.5179,5.6469,5.7331,5.7716,5.6813,5.4029,5.0401,4.6375,0.0,0.0,3.4729,3.3126,3.2362,3.2034,3.4491,3.7583,4.0698,4.3959,4.7822,5.2749,5.4129,5.5576,5.8033,5.9234,5.9824,0.0,0.0,0.0,0.0,0.0,6.1385,6.0932,6.1188,6.0955,6.0003,6.0438,6.0586,6.0317,6.0317,6.0572,6.1049,6.0779,6.0423,6.0038,5.9334,5.881,5.8457,5.8068,0.0,5.7849,5.7103,5.6596,5.6223,5.5851,5.5733,5.5784,5.6139,5.6528,5.685,5.685,5.685,5.685,5.685,5.6342,5.5767,5.6155,5.6257,5.6341,5.6748,5.6579,5.6257,5.6257,5.6257,5.6257,5.6257,5.6579,5.6748,5.6358,5.6579,5.6511,5.5395,5.5175,5.482,5.3687,5.3501,5.3501,5.3501,5.3501,5.3501,5.3501,5.3501,5.3348,5.2976,5.2232,5.1759,5.1759,5.0761,5.0288,5.0659,4.9982,4.956,4.956,4.8851,4.8462,4.8462,4.7752,4.7378,4.7378,4.6989,4.6616,4.6261,4.6261,4.6075,5.7205,5.8038,5.8294,5.7093,5.3614,4.9235,4.4468,4.0515,0.0,3.28,3.1726,3.1511,3.1511,3.3592,3.6119,3.8606,4.1217,4.4953,5.0653,5.2671,5.4877,0.0,5.99,0.0,6.1399,0.0,0.0,0.0,0.0,0.0,6.2607,6.3085,6.2682,6.1255,6.142,6.146,6.1309,6.1292,6.1672,6.2381,6.1806,6.145,6.1247,5.9859,5.9148,5.8962,5.822,0.0,0.0,5.7273,5.6934,5.6765,5.6325,5.6444,5.6816,5.6985,5.7391,5.79,5.79,5.79,5.79,5.79,5.712,5.6274,5.6867,5.7036,5.7154,5.7747,5.7476,5.7036,5.7036,5.7036,5.7036,5.7036,5.7476,5.7747,5.7154,5.7492,5.7459,5.5986,5.5699,5.5225,5.3754,5.3501,5.3501,5.3501,5.3501,5.3501,5.3501,5.3501,5.3501,5.3501,5.279,5.2367,5.2536,5.1708,5.1269,5.1421,5.0591,5.01,5.01,4.939,4.9001,4.9001,4.8428,4.814,4.814,4.7547,4.7192,4.7039,4.7039,4.6955,5.7165,5.7823,5.7709,5.697,5.3259,4.8563,4.3787,0.0,3.6127,3.2709,3.1726,3.1511,3.1511,3.2706,3.4659,3.7561,3.9993,4.3416,4.8951,5.166,5.4592,5.8766,0.0,0.0,6.3283,0.0,0.0,0.0,0.0,0.0,6.3663,6.4557,6.4399,6.2922,6.3768,6.362,6.2282,6.2282,6.2322,6.24,6.2333,6.1941,6.1264,6.0402,5.9622,5.8962,5.822,0.0,0.0,5.7832,5.7391,5.6867,5.7459,5.7323,5.6884,5.7543,5.7849,5.79,5.79,5.79,5.79,5.79,5.7815,5.7695,5.7781,5.7798,5.7815,5.7883,5.7849,5.7798,5.7798,5.7798,5.7798,5.7798,5.7849,5.7883,5.7815,5.7849,5.7459,5.5986,5.5699,5.5225,5.3754,5.3501,5.3501,5.3501,5.3501,5.3501,5.3501,5.3501,5.3501,5.3501,5.279,5.2604,5.3331,5.2046,5.1488,5.2164,5.0879,5.01,5.01,4.939,4.9001,4.9001,4.8934,4.89,4.89,4.8832,4.846,4.7802,4.7802,4.743,5.5698,5.7155,5.7448,5.5915,5.2063,4.7392,4.2754,0.0,3.4683,3.2221,3.1267,3.1031,3.1436,3.1929,3.3201,3.6012,3.6778,3.9071,4.4942,4.709,5.0299,5.6309,5.8113,0.0,0.0,0.0,0.0,0.0,0.0,0.0,6.4965,6.5729,6.5521,6.4044,6.4396,6.3886,6.2398,6.24,6.24,6.24,6.24,6.2009,6.1264,6.0469,5.9708,5.8962,5.822,0.0,0.0,5.79,5.7729,5.7492,5.7798,5.773,5.7492,5.7798,5.79,5.79,5.79,5.79,5.79,5.79,5.79,5.79,5.79,5.79,5.79,5.79,5.79,5.79,5.79,5.79,5.79,5.79,5.79,5.7781,5.7323,5.7239,5.6799,5.5327,5.504,5.4718,5.3687,5.3501,5.3501,5.3501,5.3501,5.3501,5.3501,5.3501,5.3501,5.3501,5.3213,5.3162,5.3467,5.2942,5.2723,5.301,5.2012,5.1234,5.0777,5.005,4.9458,4.9018,4.9001,4.9001,4.9001,4.9001,4.8849,4.8563,4.8563,4.8409,5.3169,5.5199,5.5976,5.4652,5.0623,4.5931,0.0,0.0,3.3463,3.1581,3.0837,3.0643,3.1122,3.1376,3.2253,3.4539,3.4724,3.6492,4.1938,4.414,4.7406,5.3359,0.0,0.0,0.0,0.0,0.0,0.0,0.0,0.0,0.0,6.5821,6.5578,6.4326,6.4275,6.3666,6.2398,6.24,6.24,6.24,6.24,6.2009,6.1264,6.0469,5.9708,5.8962,0.0,0.0,0.0,5.79,5.79,5.79,5.79,5.79,5.79,5.79,5.79,5.79,5.79,5.79,5.79,5.79,5.79,5.79,5.79,5.79,5.79,5.79,5.79,5.79,5.79,5.79,5.79,5.79,5.79,5.7714,5.6968,5.6799,5.6359,5.4905,5.46,5.438,5.3636,5.3501,5.3501,5.3501,5.3501,5.3501,5.3501,5.3501,5.3501,5.3501,5.3501,5.3501,5.3501,5.3501,5.3501,5.3501,5.2739,5.208,5.1539,5.0608,4.9847,4.934,4.912,4.9001,4.9001,4.9001,4.9001,4.9001,4.9001,4.9001,4.9491,5.1581,5.2861,5.33,4.9095,4.4132,4.1419,3.6872,3.2689,3.089,3.0507,3.0507,3.0507,3.1047,3.1937,3.3296,3.4627,3.6848,4.0768,4.4076,4.7248,0.0,0.0,5.5216,0.0,0.0,0.0,0.0,0.0,0.0,0.0,6.4472,6.4292,6.3528,6.3511,6.3159,6.2417,6.24,6.24,6.24,6.24,6.2009,6.1264,6.0469,5.9708,0.0,0.0,0.0,0.0,5.79,5.79,5.79,5.79,5.79,5.79,5.79,5.79,5.79,5.79,5.79,5.79,5.79,5.79,5.79,5.79,5.79,5.79,5.79,5.79,5.79,5.79,5.79,5.79,5.79,5.79,5.7714,5.6968,5.6799,5.6359,5.4905,5.46,5.438,5.3636,5.3501,5.3501,5.3501,5.3501,5.3501,5.3501,5.3501,5.3501,5.3501,5.3501,5.3501,5.3501,5.3501,5.3501,5.3501,5.2739,5.23,5.2283,5.0879,5.01,5.01,4.9373,4.9001,4.9001,4.9001,4.9001,4.9001,4.9001,4.9001,4.377,4.5755,4.663,4.5868,4.3329,4.0289,3.7349,3.4091,3.1358,3.0141,2.9877,2.9998,3.0417,3.1046,3.215,3.4196,3.5078,3.6614,3.9756,0.0,0.0,5.1426,5.7666,6.2367,0.0,0.0,0.0,0.0,0.0,0.0,0.0,6.3809,6.3731,6.3511,6.3494,6.3159,6.2417,6.189,6.189,6.24,6.1332,6.0706,6.0452,5.9691,0.0,0.0,0.0,0.0,0.0,5.79,5.79,5.79,5.79,5.79,5.79,5.79,5.79,5.79,5.79,5.79,5.79,5.79,5.79,5.79,5.79,5.79,5.79,5.79,5.79,5.79,5.79,5.79,5.79,5.79,5.79,5.7714,5.6968,5.6799,5.6359,5.4905,5.46,5.438,5.3636,5.3923,5.4076,5.3585,5.3923,5.4059,5.3568,5.3501,5.3501,5.3501,5.3501,5.3501,5.3501,5.3501,5.3501,5.3501,5.3264,5.2875,5.2317,5.186,5.1133,5.0117,4.988,4.9492,4.9001,4.9001,4.9001,4.9001,4.9001,4.9001,3.8795,4.1133,4.2068,4.1398,3.9503,0.0,3.4846,3.2201,3.0059,2.936,2.9219,2.9413,3.0043,3.0786,3.1918,3.3723,3.4722,3.6191,0.0,0.0,0.0,5.3051,0.0,0.0,0.0,0.0,0.0,0.0,0.0,0.0,0.0,6.297,6.2804,6.3091,6.3091,6.2736,6.1992,6.1535,6.1383,6.1518,6.0554,5.9945,5.9674,5.9199,0.0,0.0,0.0,0.0,0.0,5.79,5.79,5.79,5.79,5.79,5.79,5.79,5.79,5.79,5.79,5.79,5.79,5.79,5.79,5.79,5.79,5.79,5.79,5.79,5.79,5.79,5.79,5.79,5.79,5.79,5.79,5.7714,5.6968,5.6799,5.6444,5.5243,5.5023,5.4871,5.4414,5.4482,5.4448,5.3974,5.4059,5.4008,5.3568,5.3737,5.3805,5.3534,5.3754,5.3805,5.3518,5.3501,5.3501,5.3501,5.3501,5.3281,5.2773,5.2469,5.186,5.0947,5.0371,4.9864,4.9407,4.9137,4.9001,4.9001,4.9001,4.9001,0.0,3.7184,3.8483,3.8944,3.6978,3.4592,3.3412,3.0985,0.0,2.8597,2.8562,2.8801,2.9473,3.0378,3.132,3.2331,3.3933,3.5826,0.0,4.2861,0.0,0.0,0.0,0.0,0.0,0.0,0.0,0.0,0.0,0.0,0.0,6.2057,6.1603,6.2296,6.2282,6.1924,6.1315,6.1197,6.0791,6.0097,5.9996,5.9624,5.8996,5.8945,0.0,0.0,0.0,0.0,0.0,5.79,5.79,5.79,5.79,5.79,5.79,5.79,5.79,5.79,5.79,5.79,5.79,5.79,5.79,5.79,5.79,5.79,5.79,5.79,5.79,5.79,5.79,5.79,5.79,5.79,5.79,5.7695,5.7019,5.6884,5.6664,5.5919,5.5783,5.5767,5.5716,5.5175,5.4753,5.4702,5.4093,5.3653,5.3602,5.4126,5.4245,5.3568,5.411,5.4245,5.3568,5.3501,5.3501,5.3501,5.3501,5.3501,5.3501,5.279,5.2367,5.23,5.0896,5.015,5.01,4.9407,4.9052,4.9001,4.9001,4.9001,0.0,0.0,3.1216,3.1835,3.1457,3.0733,0.0,2.9199,2.8533,2.7944,2.8246,2.8801,2.9473,3.0378,3.1485,3.299,3.5091,3.7429,4.005,0.0,0.0,5.9359,0.0,0.0,0.0,0.0,0.0,0.0,0.0,0.0,0.0,6.1789,6.1383,6.1552,6.096,6.0842,6.1298,6.0129,5.9742,6.008,5.8947,5.8626,5.8979,5.8423,0.0,0.0,0.0,0.0,5.79,5.79,5.79,5.79,5.79,5.79,5.79,5.79,5.79,5.79,5.79,5.79,5.79,5.79,5.79,5.79,5.79,5.79,5.79,5.79,5.79,5.79,5.79,5.79,5.79,5.79,5.79,5.7849,5.7697,5.7628,5.7408,5.6681,5.6545,5.6358,5.58,5.6021,5.6089,5.553,5.5293,5.4989,5.4414,5.3991,5.3687,5.3518,5.3653,5.3687,5.3518,5.3501,5.3501,5.3501,5.3501,5.3501,5.3501,5.3315,5.2942,5.2317,5.142,5.0659,5.01,4.9915,4.9543,4.9001,4.9001,4.9001,2.5498,2.7111,2.8682,2.9054,2.9368,2.9413,2.8742,2.8353,2.8036,2.7675,2.7899,2.844,2.9413,3.0378,3.1716,3.3914,3.6267,0.0,0.0,0.0,5.5201,6.0171,0.0,0.0,0.0,0.0,0.0,0.0,0.0,0.0,0.0,6.1163,6.0757,6.0757,5.9658,5.9455,6.025,5.9419,5.9032,5.9082,5.8271,5.8101,5.849,5.8068,5.79,0.0,0.0,0.0,5.79,5.79,5.79,5.79,5.79,5.79,5.79,5.79,5.79,5.79,5.79,5.79,5.79,5.79,5.79,5.79,5.79,5.79,5.79,5.79,5.79,5.79,5.79,5.79,5.79,5.79,5.79,5.79,5.79,5.79,5.7763,5.7374,5.7306,5.7171,5.6782,5.6765,5.6664,5.6257,5.5919,5.5564,5.5158,5.5057,5.4752,5.4076,5.4313,5.4245,5.3568,5.3501,5.3501,5.3501,5.3501,5.3501,5.3501,5.3501,5.3129,5.2317,5.1894,5.1183,5.01,5.01,4.9712,4.9001,4.9001,4.9001,2.4545,2.6635,2.8547,2.8353,2.8874,2.9264,2.8592,2.8006,2.76,2.76,2.7675,2.8169,2.9488,3.0699,0.0,3.4773,0.0,0.0,4.9343,5.201,5.4958,0.0,0.0,0.0,0.0,0.0,0.0,0.0,0.0,0.0,0.0,6.0368,5.9928,5.9928,5.849,5.8084,5.881,5.8827,5.8524,5.79,5.79,5.79,5.79,5.79,5.79,0.0,0.0,0.0,5.79,5.79,5.79,5.79,5.79,5.79,5.79,5.79,5.79,5.79,5.79,5.79,5.79,5.79,5.79,5.79,5.79,5.79,5.79,5.79,5.79,5.79,5.79,5.79,5.79,5.79,5.79,5.79,5.79,5.79,5.79,5.79,5.79,5.79,5.79,5.7374,5.6968,5.6968,5.6325,5.5868,5.5868,5.6308,5.6105,5.4753,5.5158,5.4972,5.3619,5.3501,5.3501,5.3501,5.3501,5.3501,5.3501,5.3501,5.3179,5.2503,5.2486,5.1758,5.027,5.027,4.983,4.9001,4.9001,4.9001,2.5109,2.6979,2.8323,2.7198,2.7829,2.8577,2.7914,2.7675,2.76,2.76,2.8051,2.8831,3.0133,3.2199,3.4001,0.0,0.0,4.6405,0.0,0.0,0.0,0.0,0.0,0.0,0.0,0.0,0.0,0.0,0.0,0.0,0.0,5.959,5.9165,5.9165,5.7746,5.7323,5.8051,5.8068,5.8018,5.79,5.79,5.79,5.79,5.79,5.79,0.0,0.0,5.79,5.79,5.79,5.79,5.79,5.79,5.79,5.79,5.79,5.79,5.79,5.79,5.79,5.79,5.79,5.79,5.79,5.79,5.79,5.79,5.79,5.79,5.79,5.79,5.79,5.79,5.79,5.79,5.79,5.79,5.79,5.79,5.79,5.79,5.79,5.79,5.7815,5.7729,5.7729,5.7103,5.663,5.663,5.6172,5.553,5.4685,5.4702,5.4414,5.3568,5.3501,5.3501,5.3501,5.3501,5.3501,5.3501,5.3501,5.345,5.3315,5.3315,5.257,5.1032,5.1032,5.0322,4.9001,4.9001,4.9001,2.4358,2.5989,2.7455,2.7198,2.9015,3.0691,3.0027,2.9929,2.9904,2.9604,3.0269,3.1247,3.2297,0.0,3.7444,4.1287,0.0,0.0,0.0,0.0,0.0,0.0,0.0,0.0,0.0,0.0,0.0,0.0,0.0,0.0,0.0,0.0,5.8624,5.7848,5.7154,5.6765,5.6714,5.7103,5.7306,5.7306,5.7695,5.7679,5.7306,5.773,5.79,5.79,0.0,5.79,5.7883,5.7459,5.7306,5.7344,5.7702,5.7842,5.7946,5.8754,5.8772,5.844,5.844,5.8192,5.79,5.79,5.79,5.79,5.79,5.79,5.79,5.79,5.79,5.79,5.79,5.79,5.79,5.79,5.79,5.79,5.79,5.79,5.79,5.79,5.79,5.79,5.79,5.79,5.79,5.79,5.7612,5.7391,5.7391,5.7103,5.6613,5.5869,5.5784,5.5327,5.4194,5.4093,5.3923,5.3534,5.3501,5.3501,5.3501,5.3501,5.3501,5.3501,5.3501,5.2942,5.1776,5.1776,5.1235,5.0186,5.0186,4.9982,2.3984,2.5467,2.7077,2.7687,2.9838,3.1891,3.2147,3.2206,3.2273,3.2492,3.3269,3.4219,3.5187,3.7508,0.0,4.7347,0.0,0.0,0.0,0.0,0.0,0.0,0.0,0.0,0.0,0.0,0.0,0.0,0.0,0.0,0.0,0.0,5.788,5.6579,5.6376,5.6105,5.5699,5.6089,5.6461,5.6816,5.7543,5.7509,5.6816,5.7374,5.7628,5.7628,5.7628,5.7628,5.7594,5.7036,5.6889,5.7084,5.7603,5.8009,5.8449,5.9578,5.9659,5.9179,5.9028,5.8651,5.8226,5.8027,5.7954,5.7954,5.79,5.79,5.79,5.7954,5.7954,5.7954,5.79,5.7936,5.7954,5.7954,5.8007,5.8026,5.7989,5.7954,5.7971,5.79,5.79,5.79,5.79,5.79,5.79,5.79,5.79,5.79,5.79,5.7764,5.7425,5.6867,5.6664,5.6021,5.4702,5.46,5.4279,5.3551,5.3501,5.3501,5.3501,5.3501,5.3501,5.3501,5.3501,5.3112,5.23,5.23,5.1928,5.1201,5.1201,5.0897,2.5109,2.6651,2.7996,2.8417,2.8725,2.9696,3.2691,3.3102,3.3539,3.5969,3.6697,3.729,0.0,4.1324,4.4816,4.9228,0.0,0.0,0.0,0.0,0.0,0.0,0.0,0.0,0.0,0.0,0.0,0.0,0.0,0.0,0.0,0.0,0.0,5.58,5.5124,5.5057,5.5699,5.5074,5.5446,5.6816,5.7543,5.7509,5.6799,5.685,5.6884,5.6884,5.6884,5.6884,5.6884,5.6816,5.7172,5.7721,5.7788,5.8652,5.9848,5.9949,6.0046,6.0011,5.9397,5.923,5.9163,5.8421,5.817,5.8152,5.7971,5.79,5.7953,5.8134,5.817,5.8134,5.7953,5.8044,5.817,5.817,5.8313,5.8419,5.8224,5.817,5.8116,5.7953,5.79,5.79,5.79,5.79,5.79,5.79,5.79,5.79,5.79,5.7289,5.6867,5.6816,5.6189,5.5463,5.4685,5.46,5.4279,5.3551,5.3501,5.3501,5.3501,5.3501,5.3501,5.3501,5.3501,5.3112,5.23,5.23,5.1928,5.1201,5.1201,5.1167,2.4223,2.6027,2.7893,2.8453,2.9352,3.0817,3.3622,3.5674,3.728,3.8244,4.0276,0.0,0.0,0.0,4.8907,5.0476,0.0,0.0,0.0,0.0,0.0,0.0,0.0,0.0,0.0,0.0,0.0,0.0,0.0,0.0,0.0,0.0,0.0,5.504,5.4753,5.4515,5.4329,5.4499,5.4871,5.5429,5.619,5.6156,5.5446,5.5919,5.6376,5.6782,5.6308,5.6393,5.6767,5.6218,5.6177,5.6619,5.8058,5.9794,6.1493,6.1493,6.1257,6.0858,6.0235,5.974,5.9297,5.8615,5.8401,5.8367,5.8295,5.826,5.8277,5.8384,5.8401,5.8384,5.8277,5.8331,5.8401,5.8401,5.8438,5.849,5.8384,5.8401,5.8349,5.8277,5.826,5.826,5.826,5.817,5.8098,5.8098,5.7989,5.79,5.79,5.7645,5.7476,5.7476,5.6816,5.6275,5.5987,5.5124,5.4482,5.4194,5.3754,5.3501,5.3501,5.3501,5.3501,5.3501,5.3501,5.3348,5.3061,5.3061,5.2909,5.2621,5.2621,5.2351,2.3924,2.5625,2.7608,2.8458,3.0177,3.2464,3.5377,3.806,4.0381,4.2013,4.4139,4.5766,4.5912,0.0,0.0,0.0,0.0,0.0,0.0,0.0,0.0,0.0,0.0,0.0,0.0,0.0,0.0,0.0,0.0,0.0,0.0,0.0,0.0,0.0,5.4245,5.4008,5.3501,5.3991,5.4245,5.4245,5.4752,5.4871,5.4617,5.5315,5.5824,5.6089,5.5996,5.6116,5.6354,5.6025,5.6077,5.6618,5.8882,6.0523,6.1709,6.2219,6.1977,6.1343,6.0997,6.045,5.9753,5.9097,5.8736,5.8578,5.8525,5.8508,5.8508,5.8578,5.8596,5.8596,5.8649,5.8631,5.8596,5.8596,5.8631,5.8649,5.8596,5.8596,5.8578,5.8508,5.8508,5.8508,5.8508,5.8401,5.8295,5.8295,5.817,5.808,5.7991,5.7804,5.7616,5.7561,5.7306,5.6968,5.6494,5.553,5.4752,5.4279,5.3788,5.3501,5.3501,5.3501,5.3501,5.3501,5.3501,5.3501,5.3501,5.3501,5.3501,5.3501,5.3501,5.3213,2.459,2.5771,2.7306,2.8505,3.1037,3.427,3.8152,3.9961,4.2325,4.7622,4.8288,4.7721,4.7048,4.8075,0.0,0.0,0.0,0.0,0.0,0.0,0.0,0.0,0.0,0.0,0.0,0.0,0.0,0.0,0.0,0.0,0.0,0.0,0.0,0.0,5.3501,5.3501,5.3501,5.3501,5.3501,5.3501,5.3501,5.3873,5.4617,5.5221,5.5155,5.4669,5.5942,5.6112,5.5561,5.6367,5.7175,5.8128,6.0326,6.0688,6.0196,6.1782,6.1963,6.1417,6.1625,6.134,6.076,5.9947,5.9282,5.8771,5.8578,5.8508,5.8543,5.8771,5.8805,5.8823,5.8961,5.8892,5.8788,5.8805,5.8892,5.8961,5.8823,5.8805,5.8753,5.8543,5.8508,5.8508,5.8508,5.8508,5.8508,5.8508,5.8508,5.8437,5.8224,5.7559,5.7029,5.6834,5.7459,5.7289,5.5834,5.5699,5.5056,5.3602,5.3501,5.3501,5.3501,5.3501,5.3501,5.3501,5.3501,5.3501,5.3501,5.3501,5.3501,5.3501,5.3501,5.3501,2.4018,2.6041,2.847,2.9292,3.2885,3.7123,4.0595,4.2075,4.4007,4.866,4.9522,4.9372,4.9128,0.0,0.0,0.0,0.0,0.0,0.0,0.0,0.0,0.0,0.0,0.0,0.0,0.0,0.0,0.0,0.0,0.0,0.0,0.0,0.0,0.0,5.3501,5.3501,5.3501,5.3501,5.3501,5.3501,5.3501,5.3619,5.3822,5.4024,5.4279,5.4618,5.4897,5.5203,5.5557,5.6375,5.748,5.8749,5.9505,5.9993,6.0353,6.083,6.0872,6.064,6.0277,6.0431,6.0574,5.9439,5.9323,5.9632,5.9565,5.9233,5.9064,6.0012,5.9262,5.8408,5.9443,5.8553,5.7652,5.8686,5.8961,5.8978,5.8961,5.8944,5.8927,5.8858,5.884,5.884,5.884,5.8754,5.8718,5.8718,5.8578,5.8437,5.8224,5.7893,5.7632,5.7578,5.7306,5.6951,5.6511,5.553,5.4735,5.4296,5.3788,5.3501,5.3501,5.3501,5.3501,5.3501,5.3501,5.3501,5.3501,5.3501,5.3501,5.3501,5.3501,5.3501,2.516,2.6967,2.9254,3.1439,3.5323,3.9733,4.4032,4.5811,0.0,0.0,5.0942,5.0599,5.0861,5.1429,0.0,0.0,0.0,0.0,0.0,0.0,0.0,0.0,0.0,0.0,0.0,0.0,0.0,0.0,0.0,0.0,0.0,0.0,0.0,0.0,5.3331,5.3348,5.3027,5.3348,5.3501,5.3501,5.3501,5.3501,5.3501,5.375,5.3972,5.4178,5.4615,5.5238,5.6026,5.6765,5.7398,5.8002,5.8603,5.8822,5.8872,5.9747,5.9858,5.959,5.9794,6.002,6.0097,5.9323,5.9235,5.9412,5.9412,5.9118,5.8959,5.9737,5.9072,5.8319,5.9181,5.8297,5.7408,5.8339,5.8547,5.8547,5.8547,5.8788,5.8995,5.8995,5.8995,5.8995,5.8995,5.8927,5.8875,5.8875,5.8736,5.8543,5.8348,5.8152,5.7989,5.7917,5.7239,5.6681,5.6375,5.5277,5.4465,5.4177,5.3754,5.3501,5.3501,5.3501,5.3501,5.3501,5.3501,5.3501,5.3501,5.3501,5.3501,5.3501,5.3501,5.3501,2.7139,2.828,2.9969,3.4376,3.8262,4.2442,4.7934,5.0236,5.1605,5.3011,0.0,5.1607,5.23,0.0,0.0,0.0,0.0,0.0,0.0,0.0,0.0,0.0,0.0,0.0,0.0,0.0,0.0,0.0,0.0,0.0,0.0,0.0,0.0,5.2232,5.2909,5.2976,5.2317,5.2959,5.3331,0.0,5.3331,5.3298,5.3331,5.4023,5.4124,5.3784,5.492,5.5929,5.6775,5.737,5.7102,5.6429,5.7701,5.7421,5.655,5.8599,5.8867,5.8382,5.9725,5.987,5.9468,5.9416,5.9033,5.8595,5.8595,5.8552,5.8524,5.8638,5.8542,5.8435,5.8563,5.8072,5.7609,5.7743,5.7787,5.7823,5.7892,5.8426,5.8909,5.8978,5.8995,5.8995,5.8995,5.8995,5.8995,5.8995,5.8892,5.8736,5.8543,5.8349,5.8152,5.7954,5.7207,5.6445,5.5785,5.4955,5.4211,5.3551,5.3501,5.3501,5.3501,5.3501,5.3501,5.3501,5.3501,5.3501,5.3501,5.3501,5.3501,5.3501,5.3501,5.3501,2.6594,2.9062,3.2208,3.5872,4.1565,4.704,4.9981,5.1379,5.197,5.1746,5.2385,5.3044,0.0,0.0,0.0,0.0,0.0,0.0,0.0,0.0,0.0,0.0,0.0,0.0,0.0,0.0,0.0,0.0,0.0,0.0,0.0,0.0,0.0,5.1438,5.1607,5.1877,5.23,5.1894,5.1979,0.0,5.1962,5.1773,5.1969,5.3254,5.4392,5.5317,5.5612,5.6144,5.6899,5.7504,5.719,5.6375,5.7093,5.6909,5.6407,5.7322,5.7532,5.7463,5.8243,5.8832,5.9195,5.8704,5.89,5.9294,5.9294,5.8922,5.8709,5.9719,5.8838,5.7902,5.9011,5.7953,5.662,5.6766,5.6918,5.7202,5.7771,5.803,5.8323,5.8892,5.8995,5.8995,5.8995,5.8995,5.8995,5.8995,5.8892,5.8788,5.8736,5.8561,5.8419,5.8384,5.7051,5.6113,5.5943,5.4567,5.367,5.3518,5.3501,5.3501,5.3501,5.3501,5.3501,5.3501,5.3501,5.3501,5.3501,5.3501,5.3501,5.3501,5.3501,5.3501,2.7269,3.0038,3.3853,3.9743,4.4838,4.9003,5.1177,5.1714,5.1765,5.1744,5.2655,5.3501,0.0,0.0,0.0,0.0,0.0,0.0,0.0,0.0,0.0,0.0,0.0,0.0,0.0,0.0,0.0,0.0,0.0,0.0,0.0,5.1201,5.1032,5.0676,5.1015,5.1234,5.1251,5.1234,5.1387,5.1759,5.1484,5.1473,5.176,5.245,5.3515,5.4834,5.4834,5.532,5.6138,5.6736,5.6357,5.5487,5.6065,5.612,5.5943,5.6501,5.6869,5.7179,5.7785,5.8272,5.8574,5.8251,5.8439,5.8767,5.8767,5.8537,5.8404,5.906,5.85,5.7858,5.8584,5.7737,5.6702,5.6771,5.6725,5.6675,5.6785,5.7375,5.8012,5.8409,5.8754,5.8995,5.8995,5.8702,5.8582,5.8944,5.8634,5.8462,5.8754,5.8718,5.8596,5.8508,5.7071,5.6099,5.6099,5.4567,5.3601,5.3601,5.3551,5.3501,5.3501,5.3501,5.3501,5.3501,5.3501,5.3501,5.3501,5.3501,5.3501,5.3501,5.3501,5.3501,2.821,3.1334,3.5673,4.3631,4.7218,4.9375,5.1442,5.1555,5.137,5.1979,5.2739,0.0,0.0,0.0,0.0,0.0,0.0,0.0,0.0,0.0,0.0,0.0,0.0,0.0,0.0,0.0,0.0,0.0,0.0,0.0,5.0829,5.0829,5.0525,4.9915,5.0507,5.0591,5.01,5.0591,5.088,5.0998,5.1103,5.1319,5.1596,5.1473,5.2241,5.3671,5.3671,5.4181,5.5076,5.5685,5.537,5.4557,5.5164,5.5343,5.5343,5.6041,5.6568,5.7065,5.7762,5.7997,5.7997,5.7997,5.7997,5.7997,5.7997,5.7997,5.7997,5.7997,5.7997,5.7997,5.7997,5.7637,5.7228,5.711,5.6849,5.6455,5.5881,5.6761,5.7714,5.7874,5.8512,5.8995,5.8995,5.8495,5.8289,5.8909,5.8478,5.8272,5.8771,5.8823,5.8771,5.8596,5.7175,5.6252,5.6252,5.4685,5.37,5.37,5.3584,5.3501,5.3501,5.3501,5.3501,5.3501,5.3501,5.3501,5.3501,5.3501,5.3501,5.3501,5.3501,5.3501,2.8203,3.3242,3.8949,4.4339,4.6874,4.8456,5.0034,0.0,5.1235,0.0,0.0,0.0,0.0,0.0,0.0,0.0,0.0,0.0,0.0,0.0,0.0,0.0,0.0,0.0,0.0,0.0,0.0,0.0,0.0,0.0,4.934,4.9289,4.9255,4.9154,4.9238,4.9543,5.01,4.956,4.961,5.0252,4.9918,4.9853,5.0017,5.0155,5.1304,5.3179,5.3179,5.3618,5.4378,5.4993,5.4941,5.4557,5.5164,5.5076,5.4759,5.5887,5.6344,5.6559,5.7625,5.7997,5.7997,5.7997,5.7997,5.7997,5.7997,5.7997,5.7997,5.7997,5.7997,5.7997,5.7997,5.7932,5.775,5.7216,5.7061,5.6891,5.6472,5.6532,5.6939,5.7733,5.8512,5.8995,5.8995,5.8909,5.8892,5.8978,5.8909,5.8892,5.8961,5.8961,5.8961,5.8927,5.7449,5.6455,5.6455,5.4751,5.37,5.37,5.3584,5.3501,5.3501,5.3501,5.3501,5.3501,5.3501,5.3501,5.3501,5.3501,5.3501,5.3501,5.3501,5.3501,3.0631,3.4761,3.886,4.3394,4.5591,4.7041,4.8529,4.9121,4.9476,4.9882,0.0,0.0,0.0,0.0,0.0,0.0,0.0,0.0,0.0,0.0,0.0,0.0,0.0,0.0,0.0,0.0,0.0,0.0,0.0,4.934,4.9018,4.9001,4.9001,4.9001,4.8597,4.8732,4.9475,4.8748,4.8856,4.9768,4.9654,4.9696,4.9874,4.9964,5.0723,5.1972,5.1972,5.2407,5.31,5.3375,5.3383,5.3285,5.4007,5.452,5.4958,5.5933,5.6704,5.7327,5.7827,5.7997,5.7997,5.7997,5.7997,5.7997,5.7997,5.7997,5.7997,5.7997,5.7997,5.7997,5.7997,5.7997,5.792,5.766,5.7613,5.7449,5.6958,5.6918,5.7282,5.8215,5.8384,5.8513,5.8926,5.8668,5.8513,5.8944,5.8651,5.8392,5.8392,5.8737,5.884,5.8426,5.7342,5.6622,5.6505,5.4951,5.3898,5.37,5.3634,5.3584,5.3501,5.3501,5.3501,5.3501,5.3501,5.3501,5.3501,5.3501,5.3501,5.3501,5.3501,5.3501,3.1875,3.4651,3.7256,4.1553,4.3597,4.5046,0.0,0.0,4.7549,0.0,0.0,0.0,0.0,0.0,0.0,0.0,0.0,0.0,0.0,0.0,0.0,0.0,0.0,0.0,0.0,0.0,0.0,0.0,0.0,4.8646,4.846,4.8443,4.8443,4.8443,4.7904,4.787,4.8443,4.7932,4.8112,4.8998,4.9272,4.9524,4.9703,4.9907,5.0304,5.0824,5.0824,5.1237,5.1927,5.1927,5.203,5.227,5.3006,5.3815,5.4669,5.5575,5.6431,5.7181,5.7338,5.7519,5.7703,5.7703,5.7831,5.7997,5.7997,5.7997,5.7997,5.7997,5.7997,5.7997,5.7997,5.7997,5.7997,5.7997,5.7997,5.7821,5.7228,5.7262,5.7594,5.8308,5.8109,5.802,5.8574,5.8095,5.7823,5.8374,5.7978,5.7633,5.7633,5.8254,5.8443,5.7702,5.7133,5.6669,5.6297,5.4962,5.4028,5.3783,5.3701,5.3601,5.3501,5.3501,5.3501,5.3501,5.3501,5.3501,5.3501,5.3501,5.3501,5.3501,5.3501,5.3501,3.0026,3.1879,3.4382,3.8872,4.0731,4.2188,0.0,0.0,0.0,0.0,0.0,0.0,0.0,0.0,0.0,0.0,0.0,0.0,0.0,0.0,0.0,0.0,0.0,0.0,0.0,0.0,0.0,0.0,0.0,4.765,4.6938,4.6904,4.6904,4.6904,4.687,4.687,4.6904,4.7,4.7218,4.7617,4.8321,4.8733,4.8893,4.9651,5.0028,5.0062,5.0062,5.0479,5.1151,5.1151,5.1565,5.2263,5.2823,5.3063,5.3261,5.4371,5.4816,5.4955,5.5528,5.6216,5.6866,5.6866,5.7373,5.7997,5.7997,5.7997,5.7997,5.7997,5.7997,5.7997,5.7997,5.7997,5.7997,5.7997,5.7997,5.7821,5.7228,5.7262,5.7401,5.7462,5.7591,5.7712,5.7765,5.7262,5.6874,5.6909,5.6874,5.6857,5.6857,5.7495,5.7685,5.6943,5.6822,5.6495,5.5704,5.4637,5.3997,5.398,5.3685,5.3501,5.3501,5.3501,5.3501,5.3501,5.3501,5.3501,5.3501,5.3501,5.3501,5.3501,5.3501,5.3501,2.9577,3.0751,3.2328,3.5532,3.749,3.9191,4.1298,4.2752,4.3975,0.0,0.0,0.0,0.0,0.0,0.0,0.0,0.0,0.0,0.0,0.0,0.0,0.0,0.0,0.0,0.0,0.0,0.0,0.0,0.0,0.0,4.6802,4.68,4.68,4.68,4.6346,4.6092,4.6092,4.6779,4.719,4.7304,4.7794,4.8044,4.81,4.8393,4.8513,4.8513,4.8513,4.9238,5.0321,4.9324,4.9863,5.1325,5.1518,5.2325,5.3493,5.4374,5.4953,5.5302,5.5519,5.5787,5.6106,5.6627,5.6987,5.7336,5.7831,5.7997,5.7997,5.7997,5.7997,5.7997,5.7997,5.7997,5.7997,5.7997,5.7997,5.7932,5.7708,5.7427,5.7359,5.7868,5.7398,5.709,5.7601,5.7208,5.6805,5.6805,5.6805,5.6615,5.6099,5.6719,5.6891,5.6099,5.6029,5.5877,5.5505,5.4653,5.4045,5.3816,5.3684,5.3601,5.3501,5.3501,5.3501,5.3501,5.3501,5.3501,5.3501,5.3501,5.3501,5.3501,5.3501,5.3501,2.8904,2.9789,3.0955,3.3514,3.5002,3.6421,3.868,0.0,4.1599,0.0,0.0,0.0,0.0,0.0,0.0,0.0,0.0,0.0,0.0,0.0,0.0,0.0,0.0,0.0,0.0,0.0,0.0,0.0,0.0,0.0,4.5669,4.5652,4.5652,4.5652,4.5255,4.5058,4.51,4.5794,4.6309,4.659,4.6832,4.7065,4.7341,4.7582,4.7703,4.77,4.7598,4.8194,4.9151,4.8117,4.8601,5.003,5.0493,5.1537,5.2913,5.3839,5.446,5.4785,5.4785,5.4979,5.5291,5.5831,5.6363,5.6902,5.7446,5.7795,5.7997,5.7997,5.7997,5.7997,5.7997,5.7997,5.7997,5.7997,5.7997,5.7997,5.7997,5.7703,5.7558,5.8097,5.7397,5.6805,5.7167,5.6735,5.6252,5.6062,5.6029,5.5839,5.5289,5.5909,5.6098,5.5306,5.5444,5.5464,5.5127,5.4499,5.4045,5.3816,5.3701,5.3584,5.3501,5.3501,5.3501,5.3501,5.3501,5.3501,5.3501,5.3501,5.3501,5.3501,5.3501,5.3501,0.0,0.0,0.0,3.2899,0.0,0.0,3.7431,0.0,3.8957,0.0,0.0,0.0,0.0,0.0,0.0,0.0,0.0,0.0,0.0,0.0,0.0,0.0,0.0,0.0,0.0,0.0,0.0,0.0,0.0,4.4195,4.3406,4.3372,4.3372,4.3372,4.3556,4.3734,4.3864,4.4009,4.45,4.5328,4.5328,4.5742,4.6514,4.7238,4.7596,4.7603,4.7347,4.7405,4.7676,4.7676,4.7981,4.8568,4.9859,5.0718,5.1382,5.2688,5.3177,5.3196,5.3196,5.371,5.4363,5.4399,5.5464,5.6719,5.6756,5.7317,5.7923,5.7923,5.7923,5.7923,5.796,5.7978,5.7997,5.7997,5.7997,5.7997,5.7997,5.7997,5.7997,5.7997,5.751,5.6933,5.6412,5.5816,5.5224,5.462,5.4527,5.4527,5.4512,5.5116,5.5289,5.4565,5.5134,5.5272,5.4547,5.4191,5.3997,5.3997,5.3685,5.3501,5.3501,5.3501,5.3501,5.3501,5.3501,5.3501,5.3501,5.3501,5.3501,5.3501,5.3501,5.3501,2.8991,0.0,0.0,0.0,0.0,0.0,0.0,0.0,0.0,0.0,0.0,0.0,0.0,0.0,0.0,0.0,0.0,0.0,0.0,0.0,0.0,0.0,0.0,0.0,0.0,0.0,0.0,0.0,4.3061,4.2841,4.2625,4.2591,4.2648,4.2758,4.2798,4.289,4.3017,4.3173,4.3348,4.3597,4.3747,4.3919,4.4143,4.435,4.493,4.5748,4.5669,4.6197,4.7131,4.7131,4.8087,4.9545,4.9327,5.0279,5.181,5.2192,5.2711,5.3196,5.3196,5.3343,5.3618,5.4216,5.4693,5.517,5.5757,5.6099,5.6264,5.6264,5.6264,5.6411,5.6987,5.7556,5.7997,5.7997,5.7997,5.7997,5.7997,5.7997,5.7997,5.7997,5.751,5.7047,5.6894,5.6407,5.5844,5.5239,5.5149,5.4985,5.4559,5.4668,5.472,5.4513,5.4668,5.472,5.4513,5.4191,5.3997,5.3997,5.3685,5.3501,5.3501,5.3501,5.3501,5.3501,5.3501,5.3501,5.3501,5.3501,5.3501,5.3501,5.3501,5.3501,2.8994,2.9099,2.9277,0.0,0.0,0.0,3.2909,3.4493,0.0,0.0,0.0,0.0,0.0,0.0,0.0,0.0,0.0,0.0,0.0,0.0,0.0,0.0,0.0,0.0,0.0,0.0,0.0,4.23,4.1999,4.183,4.183,4.1555,4.1586,4.2026,4.2108,4.2181,4.2321,4.246,4.269,4.3029,4.2807,4.2879,4.3189,4.3189,4.3682,4.4518,4.4706,4.5307,4.6237,4.6765,4.7777,4.8992,4.8858,4.9909,5.1536,5.1877,5.2509,5.3196,5.3196,5.3196,5.3287,5.3757,5.4124,5.4491,5.495,5.5328,5.5603,5.5603,5.5603,5.5713,5.618,5.6638,5.6998,5.6998,5.7262,5.7501,5.7501,5.7758,5.7997,5.7997,5.7726,5.7395,5.7141,5.683,5.6434,5.5858,5.5791,5.556,5.4939,5.488,5.479,5.4527,5.4496,5.4496,5.4496,5.4239,5.4062,5.3997,5.3734,5.3551,5.3501,5.3501,5.3501,5.3501,5.3501,5.3331,5.301,5.3348,5.3331,5.2993,5.2672,5.2537,2.8742,2.9295,3.0104,0.0,0.0,0.0,3.3579,3.4288,3.4811,0.0,0.0,0.0,0.0,0.0,0.0,0.0,0.0,0.0,0.0,0.0,0.0,0.0,0.0,0.0,4.2063,4.2063,4.2063,4.2063,4.1441,4.1085,4.1085,4.0468,4.0476,4.1278,4.1421,4.1559,4.17,4.1822,4.224,4.293,4.2223,4.2282,4.3017,4.3017,4.3309,4.3849,4.4273,4.4764,4.5368,4.6503,4.7195,4.762,4.8425,4.9531,5.0747,5.1455,5.2234,5.2939,5.2939,5.2939,5.2939,5.2939,5.3416,5.4014,5.4106,5.462,5.5218,5.531,5.5401,5.5475,5.5475,5.553,5.5603,5.5603,5.6143,5.6675,5.6675,5.7226,5.7721,5.7721,5.7868,5.7839,5.7296,5.7191,5.7002,5.6398,5.6303,5.6055,5.5402,5.5299,5.5091,5.4557,5.4496,5.4496,5.4496,5.4319,5.4159,5.4029,5.3849,5.3667,5.3534,5.3534,5.3517,5.3501,5.3501,5.3112,5.23,5.3027,5.2959,5.2164,5.1505,5.1201,0.0,0.0,0.0,0.0,0.0,0.0,3.1812,3.3012,3.403,0.0,0.0,0.0,0.0,0.0,0.0,0.0,0.0,0.0,0.0,0.0,0.0,0.0,0.0,0.0,4.0536,4.0536,4.0536,4.0536,4.04,4.0303,4.0303,4.0285,4.0381,4.0666,4.0805,4.0939,4.1071,4.1095,4.1193,4.1343,4.1188,4.1371,4.1833,4.1833,4.2645,4.4047,4.4137,4.4774,4.5782,4.603,4.6543,4.7274,4.8089,4.899,4.9839,4.9949,5.0527,5.1269,5.1269,5.1269,5.1269,5.1269,5.1371,5.1628,5.227,5.2574,5.285,5.35,5.4124,5.4638,5.4638,5.5108,5.5603,5.5603,5.5713,5.5842,5.5842,5.597,5.6081,5.6081,5.7097,5.7955,5.7832,5.7821,5.7492,5.6452,5.6303,5.5901,5.4821,5.4683,5.4636,5.4512,5.4496,5.4496,5.4496,5.4319,5.4174,5.4158,5.4029,5.3849,5.3667,5.3651,5.3618,5.3501,5.3501,5.3112,5.23,5.2469,5.2147,5.1404,5.1269,5.1201,0.0,0.0,0.0,3.1532,0.0,0.0,0.0,3.327,3.3899,0.0,0.0,0.0,0.0,0.0,0.0,0.0,0.0,0.0,0.0,0.0,0.0,0.0,0.0,0.0,3.9,3.9339,3.9694,4.0079,4.0163,4.0201,4.0201,4.0325,4.0461,4.06,4.066,4.0769,4.0912,4.0912,4.0912,4.0912,4.0912,4.1105,4.1494,4.1494,4.2225,4.3507,4.3507,4.3952,4.4736,4.5149,4.5544,4.6021,4.7232,4.8214,4.9003,4.9399,5.0078,5.0802,5.0802,5.0802,5.0802,5.0802,5.0802,5.0949,5.1767,5.227,5.2674,5.3086,5.3489,5.3801,5.3801,5.4106,5.4399,5.4399,5.4711,5.4997,5.4997,5.5328,5.5603,5.5603,5.6246,5.6943,5.7336,5.7721,5.7815,5.7222,5.6808,5.6359,5.5858,5.5462,5.5131,5.4966,5.4957,5.4819,5.4527,5.4399,5.4303,5.4223,5.3799,5.3433,5.3156,5.2799,5.2531,5.2351,5.2351,5.1978,5.12,5.12,5.1014,5.0642,5.0271,5.0102,0.0,0.0,0.0,0.0,0.0,3.2882,0.0,0.0,0.0,0.0,0.0,0.0,0.0,0.0,0.0,0.0,0.0,0.0,0.0,0.0,0.0,0.0,0.0,0.0,0.0,3.8311,3.8882,3.9609,3.9641,3.9741,4.003,4.019,4.0392,4.0643,4.0709,4.0793,4.0912,4.0912,4.0912,4.0912,4.0977,4.1226,4.1637,4.1724,4.2229,4.3031,4.3031,4.3205,4.3543,4.4195,4.4461,4.4626,4.6241,4.7269,4.7921,4.8628,4.9399,5.0095,5.0095,5.0196,5.0325,5.0325,5.0435,5.0692,5.1344,5.2105,5.2774,5.292,5.2957,5.2994,5.3159,5.3196,5.3196,5.3196,5.3691,5.4179,5.4179,5.4675,5.5144,5.5144,5.5254,5.5611,5.6436,5.7116,5.7496,5.7374,5.6802,5.6415,5.6472,5.5891,5.5384,5.5118,5.5088,5.4858,5.4264,5.4217,5.4162,5.4064,5.3343,5.2842,5.2661,5.1882,5.1362,5.1201,5.1201,5.0845,5.01,5.01,5.0032,4.9864,4.9272,4.9001,0.0,0.0,0.0,0.0,3.3326,0.0,0.0,0.0,0.0,0.0,0.0,0.0,0.0,0.0,0.0,0.0,0.0,0.0,0.0,0.0,0.0,0.0,0.0,0.0,0.0,3.7381,3.7359,3.8091,3.7557,3.7772,3.9092,3.9391,3.9826,4.0505,4.0752,4.0871,4.0912,4.0912,4.0912,4.0894,4.126,4.167,4.2126,4.2537,4.2995,4.3427,4.3427,4.3471,4.3506,4.3598,4.3635,4.38,4.5406,4.6085,4.6177,4.6287,4.6828,4.7516,4.7516,4.7984,4.8572,4.8572,4.9114,4.9757,4.9849,5.0417,5.1224,5.194,5.2152,5.2307,5.3012,5.3196,5.3196,5.3196,5.3269,5.3343,5.3343,5.3416,5.3471,5.3471,5.4051,5.4785,5.5603,5.5805,5.5685,5.5166,5.5003,5.4742,5.4244,5.4094,5.4024,5.3993,5.3985,5.3768,5.3217,5.3174,5.3273,5.3477,5.2741,5.2482,5.2837,5.1817,5.1217,5.1201,5.1201,5.0845,5.01,5.01,4.9763,4.912,4.9035,4.9001,0.0,0.0,0.0,0.0,0.0,0.0,3.4321,0.0,3.323,0.0,0.0,0.0,0.0,0.0,0.0,0.0,0.0,0.0,0.0,0.0,0.0,0.0,0.0,0.0,0.0,0.0,0.0,0.0,3.7282,3.7374,3.8414,3.8697,3.8957,3.9282,3.9875,4.021,4.021,4.067,4.0912,4.0894,4.1317,4.1746,4.2226,4.2682,4.3114,4.3506,4.3506,4.3506,4.3506,4.3506,4.3506,4.3561,4.424,4.4782,4.525,4.5736,4.6104,4.6406,4.6406,4.6617,4.6985,4.7452,4.8508,4.9592,4.9545,5.0133,5.0875,5.1206,5.1298,5.1371,5.172,5.216,5.2399,5.1922,5.2517,5.3067,5.2601,5.2865,5.3196,5.3196,5.3471,5.3812,5.4161,5.4979,5.5519,5.5268,5.4821,5.4595,5.4809,5.4429,5.4182,5.4315,5.4046,5.3624,5.305,5.2712,5.2577,5.2701,5.1903,5.1333,5.1043,5.0396,5.004,5.004,4.9963,4.9779,4.9458,4.9458,4.9306,4.9001,4.9001,4.9001,3.5766,0.0,0.0,0.0,0.0,0.0,0.0,0.0,0.0,0.0,0.0,0.0,0.0,0.0,0.0,0.0,0.0,0.0,0.0,0.0,0.0,0.0,0.0,0.0,0.0,0.0,0.0,3.6845,3.639,3.6514,3.7681,3.7934,3.814,3.8345,3.9043,3.9491,3.9698,4.0279,4.0676,4.0912,4.1434,4.1874,4.2208,4.2798,4.3214,4.3506,4.3506,4.3506,4.3506,4.3506,4.3506,4.3506,4.3506,4.3873,4.4443,4.5021,4.5369,4.5571,4.5571,4.5718,4.5993,4.6571,4.7737,4.8921,4.8857,4.9444,5.016,5.0398,5.0472,5.0508,5.0747,5.1224,5.1518,5.0949,5.1691,5.237,5.1793,5.2123,5.2609,5.2829,5.2682,5.2682,5.3122,5.4179,5.4932,5.4932,5.4454,5.4289,5.4858,5.4436,5.4129,5.4267,5.3807,5.3247,5.267,5.2131,5.1743,5.1614,5.1154,5.0547,4.9728,4.9426,4.926,4.9199,4.9092,4.9032,4.9001,4.9001,4.9001,4.9001,4.9001,4.9001,0.0,0.0,0.0,3.7273,0.0,0.0,0.0,0.0,3.4188,0.0,0.0,0.0,0.0,0.0,3.3286,3.154,3.1853,0.0,0.0,0.0,0.0,0.0,0.0,0.0,0.0,0.0,0.0,3.45,3.3931,3.45,3.6711,3.703,3.7479,3.8179,3.8488,3.8985,3.9681,3.9727,4.0124,4.0923,4.1774,4.2195,4.2229,4.3087,4.3497,4.3506,4.3506,4.3506,4.3506,4.3506,4.3506,4.3506,4.3506,4.3524,4.3543,4.3561,4.4066,4.4737,4.4737,4.5259,4.5902,4.592,4.6498,4.7186,4.7186,4.7746,4.8563,4.9399,4.9647,4.9821,5.06,5.082,5.0839,5.082,5.0839,5.0875,5.0829,5.0857,5.1114,5.1895,5.1408,5.1371,5.2939,5.3232,5.3287,5.3287,5.3269,5.3251,5.3269,5.3251,5.324,5.3248,5.2778,5.2228,5.1685,5.1149,5.0617,5.0091,5.0587,5.0547,4.9728,4.9577,4.9413,4.9199,4.9199,4.9123,4.9001,4.9001,4.9001,4.9001,4.9001,4.9001,0.0,0.0,3.9153,3.9152,0.0,0.0,0.0,0.0,0.0,0.0,0.0,0.0,0.0,0.0,3.3389,3.1854,3.1589,3.1198,0.0,0.0,0.0,0.0,0.0,0.0,0.0,0.0,0.0,3.3376,3.3414,3.3947,3.521,3.5886,3.6382,3.6738,3.7401,3.789,3.8243,3.9209,3.9836,4.0118,4.1531,4.2198,4.2229,4.3105,4.3506,4.3506,4.3506,4.3506,4.3506,4.3506,4.3506,4.3506,4.3506,4.3506,4.3506,4.3506,4.3671,4.3901,4.3901,4.4433,4.5104,4.5104,4.5654,4.6296,4.6296,4.6865,4.7581,4.7856,4.8324,4.8802,4.9077,4.9572,4.9858,4.9279,4.9994,5.0655,5.0115,5.0417,5.0875,5.1151,5.1426,5.149,5.115,5.1533,5.2178,5.3062,5.3196,5.3196,5.3196,5.289,5.2665,5.2665,5.1879,5.1275,5.1096,5.0592,5.0192,5.0008,5.0176,5.012,4.9725,4.956,4.9413,4.9199,4.9107,4.9048,4.9001,4.9001,4.9001,4.9001,4.9001,4.9001,3.9643,3.991,0.0,4.0096,3.8896,0.0,3.7882,0.0,0.0,0.0,0.0,0.0,0.0,0.0,3.3537,3.2406,3.1645,3.0863,0.0,2.941,0.0,0.0,0.0,0.0,0.0,0.0,3.2039,3.2746,3.2818,3.3324,0.0,0.0,3.5643,3.5997,3.6612,3.7115,3.7502,3.8433,3.9254,3.9971,4.1209,4.2039,4.2468,4.3187,4.3506,4.3506,4.3506,4.3506,4.3506,4.3506,4.3506,4.3506,4.3506,4.3506,4.3506,4.3506,4.3506,4.3506,4.3506,4.3836,4.4268,4.4268,4.4819,4.5535,4.581,4.6461,4.7168,4.7443,4.7911,4.8296,4.8296,4.8728,4.8995,4.8434,4.9122,4.9774,4.9252,4.9554,4.9994,5.0306,5.0527,5.0541,5.0072,5.0184,5.0772,5.202,5.2206,5.2315,5.2595,5.2326,5.2108,5.2108,5.1326,5.0725,5.0537,5.0192,5.0011,5.0011,5.0011,4.9935,4.9813,4.971,4.9684,4.9699,4.9352,4.9124,4.9001,4.9001,4.8883,4.8614,4.8883,4.8866]}]]